<?xml version="1.0" encoding="UTF-8" standalone="no" ?>
<gpx xmlns="http://www.topografix.com/GPX/1/1" xmlns:xsi="http://www.w3.org/2001/XMLSchema-instance" xsi:schemaLocation="http://www.topografix.com/GPX/1/1 http://www.topografix.com/GPX/1/1/gpx.xsd" version="1.1" creator="VisuGPX - https://www.visugpx.com">
  <metadata>
    <name>Le Caire Cyclisme</name>
    <desc><![CDATA[fred, raymond, christian ]]></desc>
  </metadata>
  <trk>
    <name><![CDATA[Le Caire Cyclisme]]></name>
    <trkseg>
      <trkpt lat="44.37637" lon="6.07074">
        <ele>779.59997558594</ele>
        <time>2021-03-07T13:15:24.000Z</time>
      </trkpt>
      <trkpt lat="44.37642" lon="6.07073">
        <ele>779.59997558594</ele>
        <time>2021-03-07T13:15:40.000Z</time>
      </trkpt>
      <trkpt lat="44.37646" lon="6.0707">
        <ele>779.59997558594</ele>
        <time>2021-03-07T13:15:54.000Z</time>
      </trkpt>
      <trkpt lat="44.37649" lon="6.07067">
        <ele>779.59997558594</ele>
        <time>2021-03-07T13:15:56.000Z</time>
      </trkpt>
      <trkpt lat="44.3765" lon="6.07063">
        <ele>779.59997558594</ele>
        <time>2021-03-07T13:15:58.000Z</time>
      </trkpt>
      <trkpt lat="44.37647" lon="6.07061">
        <ele>779.59997558594</ele>
        <time>2021-03-07T13:16:02.000Z</time>
      </trkpt>
      <trkpt lat="44.37648" lon="6.07059">
        <ele>779.20001220703</ele>
        <time>2021-03-07T13:16:10.000Z</time>
      </trkpt>
      <trkpt lat="44.37645" lon="6.07062">
        <ele>779.20001220703</ele>
        <time>2021-03-07T13:16:17.000Z</time>
      </trkpt>
      <trkpt lat="44.37646" lon="6.07064">
        <ele>779.20001220703</ele>
        <time>2021-03-07T13:16:18.000Z</time>
      </trkpt>
      <trkpt lat="44.37655" lon="6.07069">
        <ele>779.20001220703</ele>
        <time>2021-03-07T13:16:24.000Z</time>
      </trkpt>
      <trkpt lat="44.37657" lon="6.0707">
        <ele>779.20001220703</ele>
        <time>2021-03-07T13:16:25.000Z</time>
      </trkpt>
      <trkpt lat="44.37659" lon="6.07071">
        <ele>779.20001220703</ele>
        <time>2021-03-07T13:16:26.000Z</time>
      </trkpt>
      <trkpt lat="44.37673" lon="6.07075">
        <ele>779.59997558594</ele>
        <time>2021-03-07T13:16:32.000Z</time>
      </trkpt>
      <trkpt lat="44.37691" lon="6.07084">
        <ele>779.59997558594</ele>
        <time>2021-03-07T13:16:40.000Z</time>
      </trkpt>
      <trkpt lat="44.37706" lon="6.07091">
        <ele>780</ele>
        <time>2021-03-07T13:16:46.000Z</time>
      </trkpt>
      <trkpt lat="44.37724" lon="6.07096">
        <ele>780.20001220703</ele>
        <time>2021-03-07T13:16:53.000Z</time>
      </trkpt>
      <trkpt lat="44.37741" lon="6.07095">
        <ele>780.40002441406</ele>
        <time>2021-03-07T13:17:00.000Z</time>
      </trkpt>
      <trkpt lat="44.37743" lon="6.07093">
        <ele>780.59997558594</ele>
        <time>2021-03-07T13:17:01.000Z</time>
      </trkpt>
      <trkpt lat="44.37753" lon="6.0708">
        <ele>781.40002441406</ele>
        <time>2021-03-07T13:17:06.000Z</time>
      </trkpt>
      <trkpt lat="44.37755" lon="6.07078">
        <ele>781.59997558594</ele>
        <time>2021-03-07T13:17:07.000Z</time>
      </trkpt>
      <trkpt lat="44.37767" lon="6.07061">
        <ele>782</ele>
        <time>2021-03-07T13:17:14.000Z</time>
      </trkpt>
      <trkpt lat="44.37771" lon="6.07053">
        <ele>782.59997558594</ele>
        <time>2021-03-07T13:17:17.000Z</time>
      </trkpt>
      <trkpt lat="44.37778" lon="6.07046">
        <ele>783.79998779297</ele>
        <time>2021-03-07T13:17:21.000Z</time>
      </trkpt>
      <trkpt lat="44.37787" lon="6.07039">
        <ele>784.79998779297</ele>
        <time>2021-03-07T13:17:26.000Z</time>
      </trkpt>
      <trkpt lat="44.37795" lon="6.07034">
        <ele>786</ele>
        <time>2021-03-07T13:17:30.000Z</time>
      </trkpt>
      <trkpt lat="44.37802" lon="6.0703">
        <ele>787</ele>
        <time>2021-03-07T13:17:34.000Z</time>
      </trkpt>
      <trkpt lat="44.3781" lon="6.0703">
        <ele>788.20001220703</ele>
        <time>2021-03-07T13:17:38.000Z</time>
      </trkpt>
      <trkpt lat="44.37817" lon="6.07036">
        <ele>789.40002441406</ele>
        <time>2021-03-07T13:17:42.000Z</time>
      </trkpt>
      <trkpt lat="44.3782" lon="6.07041">
        <ele>790.40002441406</ele>
        <time>2021-03-07T13:17:44.000Z</time>
      </trkpt>
      <trkpt lat="44.37822" lon="6.07043">
        <ele>790.59997558594</ele>
        <time>2021-03-07T13:17:45.000Z</time>
      </trkpt>
      <trkpt lat="44.37831" lon="6.07061">
        <ele>791.40002441406</ele>
        <time>2021-03-07T13:17:51.000Z</time>
      </trkpt>
      <trkpt lat="44.37837" lon="6.07071">
        <ele>791.59997558594</ele>
        <time>2021-03-07T13:17:55.000Z</time>
      </trkpt>
      <trkpt lat="44.37841" lon="6.07081">
        <ele>792</ele>
        <time>2021-03-07T13:17:59.000Z</time>
      </trkpt>
      <trkpt lat="44.3785" lon="6.07102">
        <ele>792.20001220703</ele>
        <time>2021-03-07T13:18:04.000Z</time>
      </trkpt>
      <trkpt lat="44.37858" lon="6.07118">
        <ele>792.59997558594</ele>
        <time>2021-03-07T13:18:08.000Z</time>
      </trkpt>
      <trkpt lat="44.37865" lon="6.07132">
        <ele>792.59997558594</ele>
        <time>2021-03-07T13:18:12.000Z</time>
      </trkpt>
      <trkpt lat="44.37874" lon="6.07151">
        <ele>792.40002441406</ele>
        <time>2021-03-07T13:18:17.000Z</time>
      </trkpt>
      <trkpt lat="44.37876" lon="6.07155">
        <ele>792.40002441406</ele>
        <time>2021-03-07T13:18:18.000Z</time>
      </trkpt>
      <trkpt lat="44.37889" lon="6.07168">
        <ele>792.40002441406</ele>
        <time>2021-03-07T13:18:21.000Z</time>
      </trkpt>
      <trkpt lat="44.37897" lon="6.07176">
        <ele>792.40002441406</ele>
        <time>2021-03-07T13:18:23.000Z</time>
      </trkpt>
      <trkpt lat="44.37905" lon="6.07179">
        <ele>791.79998779297</ele>
        <time>2021-03-07T13:18:25.000Z</time>
      </trkpt>
      <trkpt lat="44.37919" lon="6.07178">
        <ele>791.40002441406</ele>
        <time>2021-03-07T13:18:31.000Z</time>
      </trkpt>
      <trkpt lat="44.37925" lon="6.07165">
        <ele>791.59997558594</ele>
        <time>2021-03-07T13:18:36.000Z</time>
      </trkpt>
      <trkpt lat="44.37928" lon="6.0715">
        <ele>793.40002441406</ele>
        <time>2021-03-07T13:18:41.000Z</time>
      </trkpt>
      <trkpt lat="44.37933" lon="6.0714">
        <ele>794.59997558594</ele>
        <time>2021-03-07T13:18:45.000Z</time>
      </trkpt>
      <trkpt lat="44.3794" lon="6.07139">
        <ele>795.79998779297</ele>
        <time>2021-03-07T13:18:49.000Z</time>
      </trkpt>
      <trkpt lat="44.37942" lon="6.0714">
        <ele>796</ele>
        <time>2021-03-07T13:18:50.000Z</time>
      </trkpt>
      <trkpt lat="44.37948" lon="6.07142">
        <ele>796.79998779297</ele>
        <time>2021-03-07T13:18:53.000Z</time>
      </trkpt>
      <trkpt lat="44.37956" lon="6.07145">
        <ele>797.79998779297</ele>
        <time>2021-03-07T13:18:57.000Z</time>
      </trkpt>
      <trkpt lat="44.37965" lon="6.07147">
        <ele>798.59997558594</ele>
        <time>2021-03-07T13:19:01.000Z</time>
      </trkpt>
      <trkpt lat="44.3797" lon="6.07148">
        <ele>798.79998779297</ele>
        <time>2021-03-07T13:19:03.000Z</time>
      </trkpt>
      <trkpt lat="44.37978" lon="6.0715">
        <ele>800</ele>
        <time>2021-03-07T13:19:07.000Z</time>
      </trkpt>
      <trkpt lat="44.37988" lon="6.07152">
        <ele>801.20001220703</ele>
        <time>2021-03-07T13:19:12.000Z</time>
      </trkpt>
      <trkpt lat="44.37994" lon="6.07153">
        <ele>802</ele>
        <time>2021-03-07T13:19:15.000Z</time>
      </trkpt>
      <trkpt lat="44.37996" lon="6.07154">
        <ele>802.40002441406</ele>
        <time>2021-03-07T13:19:16.000Z</time>
      </trkpt>
      <trkpt lat="44.38002" lon="6.07156">
        <ele>803.40002441406</ele>
        <time>2021-03-07T13:19:19.000Z</time>
      </trkpt>
      <trkpt lat="44.38007" lon="6.07159">
        <ele>804.79998779297</ele>
        <time>2021-03-07T13:19:22.000Z</time>
      </trkpt>
      <trkpt lat="44.38009" lon="6.0716">
        <ele>805.20001220703</ele>
        <time>2021-03-07T13:19:23.000Z</time>
      </trkpt>
      <trkpt lat="44.38011" lon="6.07164">
        <ele>805.79998779297</ele>
        <time>2021-03-07T13:19:25.000Z</time>
      </trkpt>
      <trkpt lat="44.38018" lon="6.07174">
        <ele>807</ele>
        <time>2021-03-07T13:19:29.000Z</time>
      </trkpt>
      <trkpt lat="44.38026" lon="6.07182">
        <ele>807.79998779297</ele>
        <time>2021-03-07T13:19:33.000Z</time>
      </trkpt>
      <trkpt lat="44.38033" lon="6.07187">
        <ele>808.59997558594</ele>
        <time>2021-03-07T13:19:36.000Z</time>
      </trkpt>
      <trkpt lat="44.38047" lon="6.07196">
        <ele>808.79998779297</ele>
        <time>2021-03-07T13:19:42.000Z</time>
      </trkpt>
      <trkpt lat="44.38059" lon="6.07206">
        <ele>809.40002441406</ele>
        <time>2021-03-07T13:19:48.000Z</time>
      </trkpt>
      <trkpt lat="44.38059" lon="6.07208">
        <ele>809.40002441406</ele>
        <time>2021-03-07T13:19:49.000Z</time>
      </trkpt>
      <trkpt lat="44.38058" lon="6.07217">
        <ele>809.59997558594</ele>
        <time>2021-03-07T13:19:52.000Z</time>
      </trkpt>
      <trkpt lat="44.38057" lon="6.07224">
        <ele>809.40002441406</ele>
        <time>2021-03-07T13:19:54.000Z</time>
      </trkpt>
      <trkpt lat="44.38059" lon="6.07231">
        <ele>809.40002441406</ele>
        <time>2021-03-07T13:19:56.000Z</time>
      </trkpt>
      <trkpt lat="44.38059" lon="6.07235">
        <ele>809.59997558594</ele>
        <time>2021-03-07T13:19:58.000Z</time>
      </trkpt>
      <trkpt lat="44.38058" lon="6.07235">
        <ele>809.59997558594</ele>
        <time>2021-03-07T13:20:00.000Z</time>
      </trkpt>
      <trkpt lat="44.38058" lon="6.07235">
        <ele>809.79998779297</ele>
        <time>2021-03-07T13:20:01.000Z</time>
      </trkpt>
      <trkpt lat="44.38058" lon="6.07235">
        <ele>811</ele>
        <time>2021-03-07T13:20:06.000Z</time>
      </trkpt>
      <trkpt lat="44.38058" lon="6.07235">
        <ele>811.40002441406</ele>
        <time>2021-03-07T13:20:12.000Z</time>
      </trkpt>
      <trkpt lat="44.38057" lon="6.07235">
        <ele>811.79998779297</ele>
        <time>2021-03-07T13:20:18.000Z</time>
      </trkpt>
      <trkpt lat="44.38058" lon="6.07235">
        <ele>811.79998779297</ele>
        <time>2021-03-07T13:20:19.000Z</time>
      </trkpt>
      <trkpt lat="44.38057" lon="6.07231">
        <ele>811.79998779297</ele>
        <time>2021-03-07T13:20:22.000Z</time>
      </trkpt>
      <trkpt lat="44.38056" lon="6.07223">
        <ele>811.79998779297</ele>
        <time>2021-03-07T13:20:24.000Z</time>
      </trkpt>
      <trkpt lat="44.38055" lon="6.07203">
        <ele>811.79998779297</ele>
        <time>2021-03-07T13:20:28.000Z</time>
      </trkpt>
      <trkpt lat="44.38042" lon="6.07194">
        <ele>810.40002441406</ele>
        <time>2021-03-07T13:20:32.000Z</time>
      </trkpt>
      <trkpt lat="44.38039" lon="6.07192">
        <ele>810.20001220703</ele>
        <time>2021-03-07T13:20:33.000Z</time>
      </trkpt>
      <trkpt lat="44.38025" lon="6.07182">
        <ele>809.59997558594</ele>
        <time>2021-03-07T13:20:38.000Z</time>
      </trkpt>
      <trkpt lat="44.38015" lon="6.07168">
        <ele>809.59997558594</ele>
        <time>2021-03-07T13:20:43.000Z</time>
      </trkpt>
      <trkpt lat="44.38004" lon="6.07159">
        <ele>809.40002441406</ele>
        <time>2021-03-07T13:20:48.000Z</time>
      </trkpt>
      <trkpt lat="44.37999" lon="6.07157">
        <ele>809.40002441406</ele>
        <time>2021-03-07T13:20:49.000Z</time>
      </trkpt>
      <trkpt lat="44.37988" lon="6.07153">
        <ele>809.20001220703</ele>
        <time>2021-03-07T13:20:51.000Z</time>
      </trkpt>
      <trkpt lat="44.37981" lon="6.07151">
        <ele>809.20001220703</ele>
        <time>2021-03-07T13:20:52.000Z</time>
      </trkpt>
      <trkpt lat="44.37956" lon="6.07143">
        <ele>809</ele>
        <time>2021-03-07T13:20:55.000Z</time>
      </trkpt>
      <trkpt lat="44.37943" lon="6.07137">
        <ele>808.20001220703</ele>
        <time>2021-03-07T13:20:57.000Z</time>
      </trkpt>
      <trkpt lat="44.37937" lon="6.07135">
        <ele>806.59997558594</ele>
        <time>2021-03-07T13:20:58.000Z</time>
      </trkpt>
      <trkpt lat="44.37932" lon="6.07135">
        <ele>805.20001220703</ele>
        <time>2021-03-07T13:20:59.000Z</time>
      </trkpt>
      <trkpt lat="44.37929" lon="6.07136">
        <ele>803.79998779297</ele>
        <time>2021-03-07T13:21:00.000Z</time>
      </trkpt>
      <trkpt lat="44.37927" lon="6.07137">
        <ele>802</ele>
        <time>2021-03-07T13:21:01.000Z</time>
      </trkpt>
      <trkpt lat="44.37925" lon="6.07138">
        <ele>800.40002441406</ele>
        <time>2021-03-07T13:21:02.000Z</time>
      </trkpt>
      <trkpt lat="44.37924" lon="6.07138">
        <ele>799.59997558594</ele>
        <time>2021-03-07T13:21:03.000Z</time>
      </trkpt>
      <trkpt lat="44.37924" lon="6.07137">
        <ele>799</ele>
        <time>2021-03-07T13:21:04.000Z</time>
      </trkpt>
      <trkpt lat="44.37922" lon="6.07135">
        <ele>798.59997558594</ele>
        <time>2021-03-07T13:21:06.000Z</time>
      </trkpt>
      <trkpt lat="44.37923" lon="6.07133">
        <ele>798.20001220703</ele>
        <time>2021-03-07T13:21:08.000Z</time>
      </trkpt>
      <trkpt lat="44.37926" lon="6.0713">
        <ele>798.20001220703</ele>
        <time>2021-03-07T13:21:11.000Z</time>
      </trkpt>
      <trkpt lat="44.37935" lon="6.07131">
        <ele>798.20001220703</ele>
        <time>2021-03-07T13:21:16.000Z</time>
      </trkpt>
      <trkpt lat="44.37939" lon="6.07131">
        <ele>798.20001220703</ele>
        <time>2021-03-07T13:21:18.000Z</time>
      </trkpt>
      <trkpt lat="44.37948" lon="6.07133">
        <ele>798.79998779297</ele>
        <time>2021-03-07T13:21:23.000Z</time>
      </trkpt>
      <trkpt lat="44.37953" lon="6.07134">
        <ele>800.40002441406</ele>
        <time>2021-03-07T13:21:26.000Z</time>
      </trkpt>
      <trkpt lat="44.37959" lon="6.07136">
        <ele>801.79998779297</ele>
        <time>2021-03-07T13:21:29.000Z</time>
      </trkpt>
      <trkpt lat="44.37966" lon="6.07136">
        <ele>803</ele>
        <time>2021-03-07T13:21:33.000Z</time>
      </trkpt>
      <trkpt lat="44.37971" lon="6.07136">
        <ele>804</ele>
        <time>2021-03-07T13:21:36.000Z</time>
      </trkpt>
      <trkpt lat="44.37976" lon="6.07136">
        <ele>805.20001220703</ele>
        <time>2021-03-07T13:21:39.000Z</time>
      </trkpt>
      <trkpt lat="44.37978" lon="6.07137">
        <ele>805.59997558594</ele>
        <time>2021-03-07T13:21:40.000Z</time>
      </trkpt>
      <trkpt lat="44.37982" lon="6.07137">
        <ele>806.20001220703</ele>
        <time>2021-03-07T13:21:42.000Z</time>
      </trkpt>
      <trkpt lat="44.37989" lon="6.07138">
        <ele>807.20001220703</ele>
        <time>2021-03-07T13:21:46.000Z</time>
      </trkpt>
      <trkpt lat="44.37993" lon="6.0714">
        <ele>807.59997558594</ele>
        <time>2021-03-07T13:21:48.000Z</time>
      </trkpt>
      <trkpt lat="44.37996" lon="6.07142">
        <ele>808.20001220703</ele>
        <time>2021-03-07T13:21:50.000Z</time>
      </trkpt>
      <trkpt lat="44.38003" lon="6.07145">
        <ele>809.40002441406</ele>
        <time>2021-03-07T13:21:54.000Z</time>
      </trkpt>
      <trkpt lat="44.38007" lon="6.07147">
        <ele>810</ele>
        <time>2021-03-07T13:21:56.000Z</time>
      </trkpt>
      <trkpt lat="44.3801" lon="6.07149">
        <ele>810.40002441406</ele>
        <time>2021-03-07T13:21:58.000Z</time>
      </trkpt>
      <trkpt lat="44.38016" lon="6.07153">
        <ele>811.59997558594</ele>
        <time>2021-03-07T13:22:02.000Z</time>
      </trkpt>
      <trkpt lat="44.38024" lon="6.07155">
        <ele>812.59997558594</ele>
        <time>2021-03-07T13:22:06.000Z</time>
      </trkpt>
      <trkpt lat="44.38034" lon="6.0716">
        <ele>813.59997558594</ele>
        <time>2021-03-07T13:22:11.000Z</time>
      </trkpt>
      <trkpt lat="44.38036" lon="6.07161">
        <ele>813.79998779297</ele>
        <time>2021-03-07T13:22:12.000Z</time>
      </trkpt>
      <trkpt lat="44.38043" lon="6.07164">
        <ele>814.79998779297</ele>
        <time>2021-03-07T13:22:16.000Z</time>
      </trkpt>
      <trkpt lat="44.3805" lon="6.07168">
        <ele>815.79998779297</ele>
        <time>2021-03-07T13:22:20.000Z</time>
      </trkpt>
      <trkpt lat="44.3806" lon="6.07172">
        <ele>817</ele>
        <time>2021-03-07T13:22:25.000Z</time>
      </trkpt>
      <trkpt lat="44.38066" lon="6.07173">
        <ele>817.79998779297</ele>
        <time>2021-03-07T13:22:28.000Z</time>
      </trkpt>
      <trkpt lat="44.38068" lon="6.07173">
        <ele>818</ele>
        <time>2021-03-07T13:22:29.000Z</time>
      </trkpt>
      <trkpt lat="44.38078" lon="6.07174">
        <ele>819</ele>
        <time>2021-03-07T13:22:34.000Z</time>
      </trkpt>
      <trkpt lat="44.38081" lon="6.07175">
        <ele>819.40002441406</ele>
        <time>2021-03-07T13:22:36.000Z</time>
      </trkpt>
      <trkpt lat="44.38082" lon="6.07175">
        <ele>820</ele>
        <time>2021-03-07T13:22:38.000Z</time>
      </trkpt>
      <trkpt lat="44.38082" lon="6.07175">
        <ele>820.40002441406</ele>
        <time>2021-03-07T13:22:41.000Z</time>
      </trkpt>
      <trkpt lat="44.38082" lon="6.07175">
        <ele>821.20001220703</ele>
        <time>2021-03-07T13:22:44.000Z</time>
      </trkpt>
      <trkpt lat="44.38082" lon="6.07175">
        <ele>822.20001220703</ele>
        <time>2021-03-07T13:22:49.000Z</time>
      </trkpt>
      <trkpt lat="44.38082" lon="6.07175">
        <ele>822.20001220703</ele>
        <time>2021-03-07T13:22:52.000Z</time>
      </trkpt>
      <trkpt lat="44.38084" lon="6.07175">
        <ele>822.40002441406</ele>
        <time>2021-03-07T13:22:58.000Z</time>
      </trkpt>
      <trkpt lat="44.38084" lon="6.07175">
        <ele>823</ele>
        <time>2021-03-07T13:23:07.000Z</time>
      </trkpt>
      <trkpt lat="44.38085" lon="6.07173">
        <ele>823.20001220703</ele>
        <time>2021-03-07T13:23:11.000Z</time>
      </trkpt>
      <trkpt lat="44.38085" lon="6.07173">
        <ele>823.20001220703</ele>
        <time>2021-03-07T13:23:23.000Z</time>
      </trkpt>
      <trkpt lat="44.38085" lon="6.07176">
        <ele>823.20001220703</ele>
        <time>2021-03-07T13:23:28.000Z</time>
      </trkpt>
      <trkpt lat="44.38087" lon="6.07176">
        <ele>823.20001220703</ele>
        <time>2021-03-07T13:23:33.000Z</time>
      </trkpt>
      <trkpt lat="44.38088" lon="6.07177">
        <ele>823.20001220703</ele>
        <time>2021-03-07T13:23:34.000Z</time>
      </trkpt>
      <trkpt lat="44.38093" lon="6.07181">
        <ele>823.20001220703</ele>
        <time>2021-03-07T13:23:38.000Z</time>
      </trkpt>
      <trkpt lat="44.38095" lon="6.07183">
        <ele>823.20001220703</ele>
        <time>2021-03-07T13:23:39.000Z</time>
      </trkpt>
      <trkpt lat="44.38096" lon="6.07184">
        <ele>823.20001220703</ele>
        <time>2021-03-07T13:23:40.000Z</time>
      </trkpt>
      <trkpt lat="44.38103" lon="6.07186">
        <ele>823.59997558594</ele>
        <time>2021-03-07T13:23:44.000Z</time>
      </trkpt>
      <trkpt lat="44.38105" lon="6.07186">
        <ele>823.79998779297</ele>
        <time>2021-03-07T13:23:45.000Z</time>
      </trkpt>
      <trkpt lat="44.3811" lon="6.07187">
        <ele>824.79998779297</ele>
        <time>2021-03-07T13:23:48.000Z</time>
      </trkpt>
      <trkpt lat="44.38115" lon="6.07189">
        <ele>826</ele>
        <time>2021-03-07T13:23:51.000Z</time>
      </trkpt>
      <trkpt lat="44.3812" lon="6.0719">
        <ele>827</ele>
        <time>2021-03-07T13:23:54.000Z</time>
      </trkpt>
      <trkpt lat="44.38122" lon="6.07191">
        <ele>827.20001220703</ele>
        <time>2021-03-07T13:23:55.000Z</time>
      </trkpt>
      <trkpt lat="44.38127" lon="6.07193">
        <ele>828.59997558594</ele>
        <time>2021-03-07T13:23:58.000Z</time>
      </trkpt>
      <trkpt lat="44.38133" lon="6.07195">
        <ele>830</ele>
        <time>2021-03-07T13:24:02.000Z</time>
      </trkpt>
      <trkpt lat="44.38135" lon="6.07196">
        <ele>830.40002441406</ele>
        <time>2021-03-07T13:24:03.000Z</time>
      </trkpt>
      <trkpt lat="44.3814" lon="6.07198">
        <ele>831.20001220703</ele>
        <time>2021-03-07T13:24:06.000Z</time>
      </trkpt>
      <trkpt lat="44.38143" lon="6.07198">
        <ele>832</ele>
        <time>2021-03-07T13:24:08.000Z</time>
      </trkpt>
      <trkpt lat="44.38148" lon="6.07198">
        <ele>833.40002441406</ele>
        <time>2021-03-07T13:24:11.000Z</time>
      </trkpt>
      <trkpt lat="44.3815" lon="6.07198">
        <ele>833.79998779297</ele>
        <time>2021-03-07T13:24:12.000Z</time>
      </trkpt>
      <trkpt lat="44.38153" lon="6.07198">
        <ele>834.59997558594</ele>
        <time>2021-03-07T13:24:14.000Z</time>
      </trkpt>
      <trkpt lat="44.38154" lon="6.07199">
        <ele>835</ele>
        <time>2021-03-07T13:24:15.000Z</time>
      </trkpt>
      <trkpt lat="44.38158" lon="6.07202">
        <ele>835.79998779297</ele>
        <time>2021-03-07T13:24:18.000Z</time>
      </trkpt>
      <trkpt lat="44.38165" lon="6.07204">
        <ele>836.79998779297</ele>
        <time>2021-03-07T13:24:22.000Z</time>
      </trkpt>
      <trkpt lat="44.3817" lon="6.07205">
        <ele>837.79998779297</ele>
        <time>2021-03-07T13:24:25.000Z</time>
      </trkpt>
      <trkpt lat="44.38172" lon="6.07205">
        <ele>838.40002441406</ele>
        <time>2021-03-07T13:24:26.000Z</time>
      </trkpt>
      <trkpt lat="44.38173" lon="6.07205">
        <ele>838.79998779297</ele>
        <time>2021-03-07T13:24:27.000Z</time>
      </trkpt>
      <trkpt lat="44.38178" lon="6.07206">
        <ele>840</ele>
        <time>2021-03-07T13:24:30.000Z</time>
      </trkpt>
      <trkpt lat="44.38181" lon="6.07208">
        <ele>841</ele>
        <time>2021-03-07T13:24:32.000Z</time>
      </trkpt>
      <trkpt lat="44.38182" lon="6.07209">
        <ele>841.40002441406</ele>
        <time>2021-03-07T13:24:33.000Z</time>
      </trkpt>
      <trkpt lat="44.38187" lon="6.07209">
        <ele>842.59997558594</ele>
        <time>2021-03-07T13:24:36.000Z</time>
      </trkpt>
      <trkpt lat="44.38192" lon="6.07211">
        <ele>843.40002441406</ele>
        <time>2021-03-07T13:24:39.000Z</time>
      </trkpt>
      <trkpt lat="44.38193" lon="6.07212">
        <ele>843.79998779297</ele>
        <time>2021-03-07T13:24:40.000Z</time>
      </trkpt>
      <trkpt lat="44.38196" lon="6.07212">
        <ele>845</ele>
        <time>2021-03-07T13:24:42.000Z</time>
      </trkpt>
      <trkpt lat="44.38203" lon="6.07212">
        <ele>846.20001220703</ele>
        <time>2021-03-07T13:24:46.000Z</time>
      </trkpt>
      <trkpt lat="44.38204" lon="6.07212">
        <ele>846.59997558594</ele>
        <time>2021-03-07T13:24:47.000Z</time>
      </trkpt>
      <trkpt lat="44.38209" lon="6.0721">
        <ele>847.40002441406</ele>
        <time>2021-03-07T13:24:50.000Z</time>
      </trkpt>
      <trkpt lat="44.38215" lon="6.07206">
        <ele>848.40002441406</ele>
        <time>2021-03-07T13:24:54.000Z</time>
      </trkpt>
      <trkpt lat="44.38219" lon="6.07204">
        <ele>849.40002441406</ele>
        <time>2021-03-07T13:24:57.000Z</time>
      </trkpt>
      <trkpt lat="44.38225" lon="6.07203">
        <ele>850.59997558594</ele>
        <time>2021-03-07T13:25:01.000Z</time>
      </trkpt>
      <trkpt lat="44.38231" lon="6.07204">
        <ele>851.79998779297</ele>
        <time>2021-03-07T13:25:05.000Z</time>
      </trkpt>
      <trkpt lat="44.38235" lon="6.07207">
        <ele>853</ele>
        <time>2021-03-07T13:25:08.000Z</time>
      </trkpt>
      <trkpt lat="44.38239" lon="6.07209">
        <ele>854</ele>
        <time>2021-03-07T13:25:11.000Z</time>
      </trkpt>
      <trkpt lat="44.38244" lon="6.07209">
        <ele>855.40002441406</ele>
        <time>2021-03-07T13:25:14.000Z</time>
      </trkpt>
      <trkpt lat="44.38249" lon="6.07208">
        <ele>856.79998779297</ele>
        <time>2021-03-07T13:25:17.000Z</time>
      </trkpt>
      <trkpt lat="44.38253" lon="6.07207">
        <ele>857.79998779297</ele>
        <time>2021-03-07T13:25:20.000Z</time>
      </trkpt>
      <trkpt lat="44.38256" lon="6.07205">
        <ele>858.40002441406</ele>
        <time>2021-03-07T13:25:22.000Z</time>
      </trkpt>
      <trkpt lat="44.38258" lon="6.07204">
        <ele>859</ele>
        <time>2021-03-07T13:25:24.000Z</time>
      </trkpt>
      <trkpt lat="44.38264" lon="6.07204">
        <ele>860.20001220703</ele>
        <time>2021-03-07T13:25:28.000Z</time>
      </trkpt>
      <trkpt lat="44.38266" lon="6.07206">
        <ele>860.79998779297</ele>
        <time>2021-03-07T13:25:30.000Z</time>
      </trkpt>
      <trkpt lat="44.38269" lon="6.07208">
        <ele>861.20001220703</ele>
        <time>2021-03-07T13:25:32.000Z</time>
      </trkpt>
      <trkpt lat="44.38272" lon="6.07211">
        <ele>862.40002441406</ele>
        <time>2021-03-07T13:25:35.000Z</time>
      </trkpt>
      <trkpt lat="44.38275" lon="6.07213">
        <ele>863.40002441406</ele>
        <time>2021-03-07T13:25:37.000Z</time>
      </trkpt>
      <trkpt lat="44.38277" lon="6.07215">
        <ele>864</ele>
        <time>2021-03-07T13:25:39.000Z</time>
      </trkpt>
      <trkpt lat="44.38278" lon="6.07217">
        <ele>864.40002441406</ele>
        <time>2021-03-07T13:25:40.000Z</time>
      </trkpt>
      <trkpt lat="44.38282" lon="6.07221">
        <ele>865.59997558594</ele>
        <time>2021-03-07T13:25:43.000Z</time>
      </trkpt>
      <trkpt lat="44.38285" lon="6.07225">
        <ele>866.59997558594</ele>
        <time>2021-03-07T13:25:46.000Z</time>
      </trkpt>
      <trkpt lat="44.38286" lon="6.0723">
        <ele>867.59997558594</ele>
        <time>2021-03-07T13:25:49.000Z</time>
      </trkpt>
      <trkpt lat="44.38289" lon="6.07237">
        <ele>868.79998779297</ele>
        <time>2021-03-07T13:25:53.000Z</time>
      </trkpt>
      <trkpt lat="44.38292" lon="6.07241">
        <ele>869.59997558594</ele>
        <time>2021-03-07T13:25:56.000Z</time>
      </trkpt>
      <trkpt lat="44.38294" lon="6.07242">
        <ele>869.79998779297</ele>
        <time>2021-03-07T13:25:57.000Z</time>
      </trkpt>
      <trkpt lat="44.38296" lon="6.07241">
        <ele>870.40002441406</ele>
        <time>2021-03-07T13:25:59.000Z</time>
      </trkpt>
      <trkpt lat="44.38297" lon="6.0724">
        <ele>870.79998779297</ele>
        <time>2021-03-07T13:26:00.000Z</time>
      </trkpt>
      <trkpt lat="44.38298" lon="6.07238">
        <ele>871.20001220703</ele>
        <time>2021-03-07T13:26:01.000Z</time>
      </trkpt>
      <trkpt lat="44.38298" lon="6.07234">
        <ele>871.59997558594</ele>
        <time>2021-03-07T13:26:03.000Z</time>
      </trkpt>
      <trkpt lat="44.38297" lon="6.07231">
        <ele>872.40002441406</ele>
        <time>2021-03-07T13:26:04.000Z</time>
      </trkpt>
      <trkpt lat="44.38297" lon="6.07224">
        <ele>873</ele>
        <time>2021-03-07T13:26:07.000Z</time>
      </trkpt>
      <trkpt lat="44.38294" lon="6.07214">
        <ele>873.40002441406</ele>
        <time>2021-03-07T13:26:11.000Z</time>
      </trkpt>
      <trkpt lat="44.3829" lon="6.07205">
        <ele>874.20001220703</ele>
        <time>2021-03-07T13:26:15.000Z</time>
      </trkpt>
      <trkpt lat="44.38288" lon="6.07201">
        <ele>874.40002441406</ele>
        <time>2021-03-07T13:26:17.000Z</time>
      </trkpt>
      <trkpt lat="44.38282" lon="6.0719">
        <ele>875.20001220703</ele>
        <time>2021-03-07T13:26:22.000Z</time>
      </trkpt>
      <trkpt lat="44.38281" lon="6.07183">
        <ele>875.40002441406</ele>
        <time>2021-03-07T13:26:25.000Z</time>
      </trkpt>
      <trkpt lat="44.38281" lon="6.07173">
        <ele>876</ele>
        <time>2021-03-07T13:26:29.000Z</time>
      </trkpt>
      <trkpt lat="44.38281" lon="6.07169">
        <ele>876.59997558594</ele>
        <time>2021-03-07T13:26:31.000Z</time>
      </trkpt>
      <trkpt lat="44.38284" lon="6.07155">
        <ele>877.79998779297</ele>
        <time>2021-03-07T13:26:37.000Z</time>
      </trkpt>
      <trkpt lat="44.38285" lon="6.07151">
        <ele>878.40002441406</ele>
        <time>2021-03-07T13:26:39.000Z</time>
      </trkpt>
      <trkpt lat="44.38285" lon="6.07149">
        <ele>878.79998779297</ele>
        <time>2021-03-07T13:26:40.000Z</time>
      </trkpt>
      <trkpt lat="44.38287" lon="6.0714">
        <ele>880</ele>
        <time>2021-03-07T13:26:44.000Z</time>
      </trkpt>
      <trkpt lat="44.38289" lon="6.07129">
        <ele>881</ele>
        <time>2021-03-07T13:26:49.000Z</time>
      </trkpt>
      <trkpt lat="44.3829" lon="6.07123">
        <ele>882</ele>
        <time>2021-03-07T13:26:52.000Z</time>
      </trkpt>
      <trkpt lat="44.38292" lon="6.07114">
        <ele>883</ele>
        <time>2021-03-07T13:26:56.000Z</time>
      </trkpt>
      <trkpt lat="44.38292" lon="6.07112">
        <ele>883.20001220703</ele>
        <time>2021-03-07T13:26:57.000Z</time>
      </trkpt>
      <trkpt lat="44.38293" lon="6.07108">
        <ele>884.20001220703</ele>
        <time>2021-03-07T13:26:59.000Z</time>
      </trkpt>
      <trkpt lat="44.38295" lon="6.07102">
        <ele>885.20001220703</ele>
        <time>2021-03-07T13:27:02.000Z</time>
      </trkpt>
      <trkpt lat="44.38295" lon="6.07097">
        <ele>886.40002441406</ele>
        <time>2021-03-07T13:27:05.000Z</time>
      </trkpt>
      <trkpt lat="44.38295" lon="6.07091">
        <ele>887.59997558594</ele>
        <time>2021-03-07T13:27:08.000Z</time>
      </trkpt>
      <trkpt lat="44.38294" lon="6.07085">
        <ele>889</ele>
        <time>2021-03-07T13:27:11.000Z</time>
      </trkpt>
      <trkpt lat="44.38294" lon="6.07084">
        <ele>889.40002441406</ele>
        <time>2021-03-07T13:27:12.000Z</time>
      </trkpt>
      <trkpt lat="44.38292" lon="6.07081">
        <ele>890.20001220703</ele>
        <time>2021-03-07T13:27:14.000Z</time>
      </trkpt>
      <trkpt lat="44.38286" lon="6.07077">
        <ele>891.59997558594</ele>
        <time>2021-03-07T13:27:18.000Z</time>
      </trkpt>
      <trkpt lat="44.38281" lon="6.07075">
        <ele>892.59997558594</ele>
        <time>2021-03-07T13:27:21.000Z</time>
      </trkpt>
      <trkpt lat="44.3828" lon="6.07075">
        <ele>892.79998779297</ele>
        <time>2021-03-07T13:27:22.000Z</time>
      </trkpt>
      <trkpt lat="44.38273" lon="6.07073">
        <ele>894</ele>
        <time>2021-03-07T13:27:26.000Z</time>
      </trkpt>
      <trkpt lat="44.38271" lon="6.07072">
        <ele>894.59997558594</ele>
        <time>2021-03-07T13:27:27.000Z</time>
      </trkpt>
      <trkpt lat="44.38268" lon="6.07072">
        <ele>895.20001220703</ele>
        <time>2021-03-07T13:27:29.000Z</time>
      </trkpt>
      <trkpt lat="44.38258" lon="6.07067">
        <ele>896.20001220703</ele>
        <time>2021-03-07T13:27:35.000Z</time>
      </trkpt>
      <trkpt lat="44.38257" lon="6.07066">
        <ele>896.20001220703</ele>
        <time>2021-03-07T13:27:36.000Z</time>
      </trkpt>
      <trkpt lat="44.38251" lon="6.0706">
        <ele>897.40002441406</ele>
        <time>2021-03-07T13:27:41.000Z</time>
      </trkpt>
      <trkpt lat="44.38247" lon="6.07056">
        <ele>898.40002441406</ele>
        <time>2021-03-07T13:27:44.000Z</time>
      </trkpt>
      <trkpt lat="44.38246" lon="6.07055">
        <ele>898.59997558594</ele>
        <time>2021-03-07T13:27:45.000Z</time>
      </trkpt>
      <trkpt lat="44.38242" lon="6.07049">
        <ele>899.59997558594</ele>
        <time>2021-03-07T13:27:49.000Z</time>
      </trkpt>
      <trkpt lat="44.3824" lon="6.07047">
        <ele>900.20001220703</ele>
        <time>2021-03-07T13:27:51.000Z</time>
      </trkpt>
      <trkpt lat="44.38237" lon="6.07046">
        <ele>900.79998779297</ele>
        <time>2021-03-07T13:27:53.000Z</time>
      </trkpt>
      <trkpt lat="44.38236" lon="6.07045">
        <ele>901.40002441406</ele>
        <time>2021-03-07T13:27:54.000Z</time>
      </trkpt>
      <trkpt lat="44.38235" lon="6.07042">
        <ele>902.20001220703</ele>
        <time>2021-03-07T13:27:56.000Z</time>
      </trkpt>
      <trkpt lat="44.38237" lon="6.07037">
        <ele>903.40002441406</ele>
        <time>2021-03-07T13:27:59.000Z</time>
      </trkpt>
      <trkpt lat="44.38239" lon="6.07035">
        <ele>904.40002441406</ele>
        <time>2021-03-07T13:28:01.000Z</time>
      </trkpt>
      <trkpt lat="44.3824" lon="6.07036">
        <ele>904.79998779297</ele>
        <time>2021-03-07T13:28:02.000Z</time>
      </trkpt>
      <trkpt lat="44.38245" lon="6.07037">
        <ele>905.59997558594</ele>
        <time>2021-03-07T13:28:05.000Z</time>
      </trkpt>
      <trkpt lat="44.38247" lon="6.07038">
        <ele>906</ele>
        <time>2021-03-07T13:28:06.000Z</time>
      </trkpt>
      <trkpt lat="44.38248" lon="6.07038">
        <ele>906.20001220703</ele>
        <time>2021-03-07T13:28:07.000Z</time>
      </trkpt>
      <trkpt lat="44.38255" lon="6.07039">
        <ele>907.20001220703</ele>
        <time>2021-03-07T13:28:11.000Z</time>
      </trkpt>
      <trkpt lat="44.3826" lon="6.07038">
        <ele>907.79998779297</ele>
        <time>2021-03-07T13:28:14.000Z</time>
      </trkpt>
      <trkpt lat="44.38262" lon="6.07035">
        <ele>908.20001220703</ele>
        <time>2021-03-07T13:28:16.000Z</time>
      </trkpt>
      <trkpt lat="44.38263" lon="6.07032">
        <ele>908.59997558594</ele>
        <time>2021-03-07T13:28:18.000Z</time>
      </trkpt>
      <trkpt lat="44.38261" lon="6.0703">
        <ele>909</ele>
        <time>2021-03-07T13:28:20.000Z</time>
      </trkpt>
      <trkpt lat="44.3826" lon="6.07029">
        <ele>909.40002441406</ele>
        <time>2021-03-07T13:28:21.000Z</time>
      </trkpt>
      <trkpt lat="44.38258" lon="6.07029">
        <ele>909.59997558594</ele>
        <time>2021-03-07T13:28:22.000Z</time>
      </trkpt>
      <trkpt lat="44.38253" lon="6.07028">
        <ele>910.59997558594</ele>
        <time>2021-03-07T13:28:25.000Z</time>
      </trkpt>
      <trkpt lat="44.38251" lon="6.07027">
        <ele>910.79998779297</ele>
        <time>2021-03-07T13:28:26.000Z</time>
      </trkpt>
      <trkpt lat="44.3825" lon="6.07027">
        <ele>911</ele>
        <time>2021-03-07T13:28:27.000Z</time>
      </trkpt>
      <trkpt lat="44.38245" lon="6.07024">
        <ele>911.59997558594</ele>
        <time>2021-03-07T13:28:30.000Z</time>
      </trkpt>
      <trkpt lat="44.38241" lon="6.07019">
        <ele>912.59997558594</ele>
        <time>2021-03-07T13:28:34.000Z</time>
      </trkpt>
      <trkpt lat="44.3824" lon="6.07018">
        <ele>912.79998779297</ele>
        <time>2021-03-07T13:28:35.000Z</time>
      </trkpt>
      <trkpt lat="44.38232" lon="6.07014">
        <ele>913.79998779297</ele>
        <time>2021-03-07T13:28:40.000Z</time>
      </trkpt>
      <trkpt lat="44.38227" lon="6.07013">
        <ele>914.40002441406</ele>
        <time>2021-03-07T13:28:43.000Z</time>
      </trkpt>
      <trkpt lat="44.38226" lon="6.07013">
        <ele>914.79998779297</ele>
        <time>2021-03-07T13:28:44.000Z</time>
      </trkpt>
      <trkpt lat="44.38219" lon="6.07016">
        <ele>916.40002441406</ele>
        <time>2021-03-07T13:28:48.000Z</time>
      </trkpt>
      <trkpt lat="44.38218" lon="6.07016">
        <ele>916.59997558594</ele>
        <time>2021-03-07T13:28:49.000Z</time>
      </trkpt>
      <trkpt lat="44.38214" lon="6.07016">
        <ele>917.40002441406</ele>
        <time>2021-03-07T13:28:51.000Z</time>
      </trkpt>
      <trkpt lat="44.38207" lon="6.07017">
        <ele>918.40002441406</ele>
        <time>2021-03-07T13:28:55.000Z</time>
      </trkpt>
      <trkpt lat="44.38206" lon="6.07016">
        <ele>918.59997558594</ele>
        <time>2021-03-07T13:28:56.000Z</time>
      </trkpt>
      <trkpt lat="44.38197" lon="6.07011">
        <ele>919.59997558594</ele>
        <time>2021-03-07T13:29:02.000Z</time>
      </trkpt>
      <trkpt lat="44.38195" lon="6.07011">
        <ele>919.79998779297</ele>
        <time>2021-03-07T13:29:03.000Z</time>
      </trkpt>
      <trkpt lat="44.38189" lon="6.0701">
        <ele>920.59997558594</ele>
        <time>2021-03-07T13:29:07.000Z</time>
      </trkpt>
      <trkpt lat="44.38184" lon="6.07011">
        <ele>921.20001220703</ele>
        <time>2021-03-07T13:29:10.000Z</time>
      </trkpt>
      <trkpt lat="44.3818" lon="6.07011">
        <ele>921.79998779297</ele>
        <time>2021-03-07T13:29:12.000Z</time>
      </trkpt>
      <trkpt lat="44.38173" lon="6.0701">
        <ele>922.79998779297</ele>
        <time>2021-03-07T13:29:16.000Z</time>
      </trkpt>
      <trkpt lat="44.38168" lon="6.07009">
        <ele>923.59997558594</ele>
        <time>2021-03-07T13:29:19.000Z</time>
      </trkpt>
      <trkpt lat="44.38166" lon="6.07009">
        <ele>923.79998779297</ele>
        <time>2021-03-07T13:29:20.000Z</time>
      </trkpt>
      <trkpt lat="44.38158" lon="6.07005">
        <ele>924.79998779297</ele>
        <time>2021-03-07T13:29:25.000Z</time>
      </trkpt>
      <trkpt lat="44.38155" lon="6.07003">
        <ele>925</ele>
        <time>2021-03-07T13:29:27.000Z</time>
      </trkpt>
      <trkpt lat="44.38148" lon="6.06997">
        <ele>926</ele>
        <time>2021-03-07T13:29:32.000Z</time>
      </trkpt>
      <trkpt lat="44.38143" lon="6.06991">
        <ele>926.40002441406</ele>
        <time>2021-03-07T13:29:36.000Z</time>
      </trkpt>
      <trkpt lat="44.38139" lon="6.06985">
        <ele>927</ele>
        <time>2021-03-07T13:29:40.000Z</time>
      </trkpt>
      <trkpt lat="44.38135" lon="6.06976">
        <ele>928</ele>
        <time>2021-03-07T13:29:45.000Z</time>
      </trkpt>
      <trkpt lat="44.38136" lon="6.06971">
        <ele>929</ele>
        <time>2021-03-07T13:29:48.000Z</time>
      </trkpt>
      <trkpt lat="44.38137" lon="6.0697">
        <ele>929.20001220703</ele>
        <time>2021-03-07T13:29:49.000Z</time>
      </trkpt>
      <trkpt lat="44.38138" lon="6.0697">
        <ele>929.59997558594</ele>
        <time>2021-03-07T13:29:50.000Z</time>
      </trkpt>
      <trkpt lat="44.3814" lon="6.06973">
        <ele>930.20001220703</ele>
        <time>2021-03-07T13:29:52.000Z</time>
      </trkpt>
      <trkpt lat="44.38143" lon="6.06976">
        <ele>931</ele>
        <time>2021-03-07T13:29:54.000Z</time>
      </trkpt>
      <trkpt lat="44.38145" lon="6.06977">
        <ele>931.59997558594</ele>
        <time>2021-03-07T13:29:55.000Z</time>
      </trkpt>
      <trkpt lat="44.38148" lon="6.06979">
        <ele>932.40002441406</ele>
        <time>2021-03-07T13:29:57.000Z</time>
      </trkpt>
      <trkpt lat="44.38149" lon="6.0698">
        <ele>932.59997558594</ele>
        <time>2021-03-07T13:29:58.000Z</time>
      </trkpt>
      <trkpt lat="44.38157" lon="6.06982">
        <ele>933.79998779297</ele>
        <time>2021-03-07T13:30:03.000Z</time>
      </trkpt>
      <trkpt lat="44.38167" lon="6.06981">
        <ele>934.79998779297</ele>
        <time>2021-03-07T13:30:09.000Z</time>
      </trkpt>
      <trkpt lat="44.3817" lon="6.06981">
        <ele>935.59997558594</ele>
        <time>2021-03-07T13:30:11.000Z</time>
      </trkpt>
      <trkpt lat="44.38173" lon="6.0698">
        <ele>935.79998779297</ele>
        <time>2021-03-07T13:30:13.000Z</time>
      </trkpt>
      <trkpt lat="44.38179" lon="6.06979">
        <ele>936.79998779297</ele>
        <time>2021-03-07T13:30:18.000Z</time>
      </trkpt>
      <trkpt lat="44.38185" lon="6.06979">
        <ele>938</ele>
        <time>2021-03-07T13:30:22.000Z</time>
      </trkpt>
      <trkpt lat="44.38188" lon="6.06979">
        <ele>938.59997558594</ele>
        <time>2021-03-07T13:30:24.000Z</time>
      </trkpt>
      <trkpt lat="44.3819" lon="6.06978">
        <ele>939.20001220703</ele>
        <time>2021-03-07T13:30:26.000Z</time>
      </trkpt>
      <trkpt lat="44.38194" lon="6.06975">
        <ele>940.40002441406</ele>
        <time>2021-03-07T13:30:29.000Z</time>
      </trkpt>
      <trkpt lat="44.38195" lon="6.06973">
        <ele>940.79998779297</ele>
        <time>2021-03-07T13:30:30.000Z</time>
      </trkpt>
      <trkpt lat="44.38196" lon="6.06971">
        <ele>941.20001220703</ele>
        <time>2021-03-07T13:30:31.000Z</time>
      </trkpt>
      <trkpt lat="44.38195" lon="6.06969">
        <ele>941.40002441406</ele>
        <time>2021-03-07T13:30:32.000Z</time>
      </trkpt>
      <trkpt lat="44.38191" lon="6.06966">
        <ele>942</ele>
        <time>2021-03-07T13:30:35.000Z</time>
      </trkpt>
      <trkpt lat="44.3819" lon="6.06965">
        <ele>942.40002441406</ele>
        <time>2021-03-07T13:30:36.000Z</time>
      </trkpt>
      <trkpt lat="44.38185" lon="6.06964">
        <ele>943.59997558594</ele>
        <time>2021-03-07T13:30:39.000Z</time>
      </trkpt>
      <trkpt lat="44.38179" lon="6.06961">
        <ele>944.79998779297</ele>
        <time>2021-03-07T13:30:43.000Z</time>
      </trkpt>
      <trkpt lat="44.38177" lon="6.0696">
        <ele>944.79998779297</ele>
        <time>2021-03-07T13:30:44.000Z</time>
      </trkpt>
      <trkpt lat="44.38172" lon="6.06952">
        <ele>946</ele>
        <time>2021-03-07T13:30:49.000Z</time>
      </trkpt>
      <trkpt lat="44.38168" lon="6.06945">
        <ele>947</ele>
        <time>2021-03-07T13:30:53.000Z</time>
      </trkpt>
      <trkpt lat="44.38167" lon="6.06944">
        <ele>947.20001220703</ele>
        <time>2021-03-07T13:30:54.000Z</time>
      </trkpt>
      <trkpt lat="44.38163" lon="6.06937">
        <ele>948.40002441406</ele>
        <time>2021-03-07T13:30:58.000Z</time>
      </trkpt>
      <trkpt lat="44.3816" lon="6.06932">
        <ele>949.40002441406</ele>
        <time>2021-03-07T13:31:01.000Z</time>
      </trkpt>
      <trkpt lat="44.38159" lon="6.0693">
        <ele>949.40002441406</ele>
        <time>2021-03-07T13:31:02.000Z</time>
      </trkpt>
      <trkpt lat="44.38156" lon="6.06925">
        <ele>950.79998779297</ele>
        <time>2021-03-07T13:31:05.000Z</time>
      </trkpt>
      <trkpt lat="44.38153" lon="6.06917">
        <ele>952</ele>
        <time>2021-03-07T13:31:09.000Z</time>
      </trkpt>
      <trkpt lat="44.38151" lon="6.06914">
        <ele>952.59997558594</ele>
        <time>2021-03-07T13:31:11.000Z</time>
      </trkpt>
      <trkpt lat="44.38149" lon="6.06911">
        <ele>953.20001220703</ele>
        <time>2021-03-07T13:31:13.000Z</time>
      </trkpt>
      <trkpt lat="44.38146" lon="6.06906">
        <ele>954.40002441406</ele>
        <time>2021-03-07T13:31:16.000Z</time>
      </trkpt>
      <trkpt lat="44.38142" lon="6.06899">
        <ele>955.20001220703</ele>
        <time>2021-03-07T13:31:20.000Z</time>
      </trkpt>
      <trkpt lat="44.3814" lon="6.06897">
        <ele>955.20001220703</ele>
        <time>2021-03-07T13:31:22.000Z</time>
      </trkpt>
      <trkpt lat="44.38135" lon="6.06891">
        <ele>956.40002441406</ele>
        <time>2021-03-07T13:31:26.000Z</time>
      </trkpt>
      <trkpt lat="44.38133" lon="6.06888">
        <ele>957.20001220703</ele>
        <time>2021-03-07T13:31:28.000Z</time>
      </trkpt>
      <trkpt lat="44.3813" lon="6.06886">
        <ele>957.79998779297</ele>
        <time>2021-03-07T13:31:30.000Z</time>
      </trkpt>
      <trkpt lat="44.38123" lon="6.06883">
        <ele>959</ele>
        <time>2021-03-07T13:31:34.000Z</time>
      </trkpt>
      <trkpt lat="44.3812" lon="6.06883">
        <ele>959.20001220703</ele>
        <time>2021-03-07T13:31:36.000Z</time>
      </trkpt>
      <trkpt lat="44.38115" lon="6.06881">
        <ele>960</ele>
        <time>2021-03-07T13:31:39.000Z</time>
      </trkpt>
      <trkpt lat="44.38111" lon="6.06878">
        <ele>960.59997558594</ele>
        <time>2021-03-07T13:31:42.000Z</time>
      </trkpt>
      <trkpt lat="44.38108" lon="6.06876">
        <ele>961.20001220703</ele>
        <time>2021-03-07T13:31:44.000Z</time>
      </trkpt>
      <trkpt lat="44.381" lon="6.06868">
        <ele>962.40002441406</ele>
        <time>2021-03-07T13:31:50.000Z</time>
      </trkpt>
      <trkpt lat="44.38099" lon="6.06867">
        <ele>962.59997558594</ele>
        <time>2021-03-07T13:31:51.000Z</time>
      </trkpt>
      <trkpt lat="44.38093" lon="6.06863">
        <ele>963.40002441406</ele>
        <time>2021-03-07T13:31:55.000Z</time>
      </trkpt>
      <trkpt lat="44.38086" lon="6.06858">
        <ele>965</ele>
        <time>2021-03-07T13:32:00.000Z</time>
      </trkpt>
      <trkpt lat="44.38081" lon="6.06854">
        <ele>966.20001220703</ele>
        <time>2021-03-07T13:32:04.000Z</time>
      </trkpt>
      <trkpt lat="44.38078" lon="6.06847">
        <ele>967.40002441406</ele>
        <time>2021-03-07T13:32:08.000Z</time>
      </trkpt>
      <trkpt lat="44.38078" lon="6.06845">
        <ele>967.59997558594</ele>
        <time>2021-03-07T13:32:09.000Z</time>
      </trkpt>
      <trkpt lat="44.38081" lon="6.06842">
        <ele>968.59997558594</ele>
        <time>2021-03-07T13:32:12.000Z</time>
      </trkpt>
      <trkpt lat="44.38087" lon="6.06842">
        <ele>969.20001220703</ele>
        <time>2021-03-07T13:32:16.000Z</time>
      </trkpt>
      <trkpt lat="44.38088" lon="6.06842">
        <ele>969.40002441406</ele>
        <time>2021-03-07T13:32:17.000Z</time>
      </trkpt>
      <trkpt lat="44.38091" lon="6.06842">
        <ele>970</ele>
        <time>2021-03-07T13:32:19.000Z</time>
      </trkpt>
      <trkpt lat="44.38093" lon="6.06842">
        <ele>970.79998779297</ele>
        <time>2021-03-07T13:32:21.000Z</time>
      </trkpt>
      <trkpt lat="44.38098" lon="6.06843">
        <ele>971.79998779297</ele>
        <time>2021-03-07T13:32:24.000Z</time>
      </trkpt>
      <trkpt lat="44.38103" lon="6.06843">
        <ele>972.79998779297</ele>
        <time>2021-03-07T13:32:27.000Z</time>
      </trkpt>
      <trkpt lat="44.38106" lon="6.06844">
        <ele>973.40002441406</ele>
        <time>2021-03-07T13:32:29.000Z</time>
      </trkpt>
      <trkpt lat="44.38111" lon="6.06846">
        <ele>974</ele>
        <time>2021-03-07T13:32:32.000Z</time>
      </trkpt>
      <trkpt lat="44.38118" lon="6.06847">
        <ele>975.20001220703</ele>
        <time>2021-03-07T13:32:37.000Z</time>
      </trkpt>
      <trkpt lat="44.38125" lon="6.06846">
        <ele>976.20001220703</ele>
        <time>2021-03-07T13:32:42.000Z</time>
      </trkpt>
      <trkpt lat="44.38129" lon="6.06843">
        <ele>977</ele>
        <time>2021-03-07T13:32:45.000Z</time>
      </trkpt>
      <trkpt lat="44.38131" lon="6.0684">
        <ele>977.20001220703</ele>
        <time>2021-03-07T13:32:47.000Z</time>
      </trkpt>
      <trkpt lat="44.38134" lon="6.06836">
        <ele>978.20001220703</ele>
        <time>2021-03-07T13:32:50.000Z</time>
      </trkpt>
      <trkpt lat="44.38136" lon="6.06833">
        <ele>979.20001220703</ele>
        <time>2021-03-07T13:32:53.000Z</time>
      </trkpt>
      <trkpt lat="44.38138" lon="6.06832">
        <ele>980</ele>
        <time>2021-03-07T13:32:55.000Z</time>
      </trkpt>
      <trkpt lat="44.38139" lon="6.06832">
        <ele>980.40002441406</ele>
        <time>2021-03-07T13:32:56.000Z</time>
      </trkpt>
      <trkpt lat="44.38143" lon="6.06832">
        <ele>981.59997558594</ele>
        <time>2021-03-07T13:32:59.000Z</time>
      </trkpt>
      <trkpt lat="44.38149" lon="6.06833">
        <ele>982.79998779297</ele>
        <time>2021-03-07T13:33:03.000Z</time>
      </trkpt>
      <trkpt lat="44.38153" lon="6.06833">
        <ele>983.79998779297</ele>
        <time>2021-03-07T13:33:06.000Z</time>
      </trkpt>
      <trkpt lat="44.38159" lon="6.06833">
        <ele>985</ele>
        <time>2021-03-07T13:33:10.000Z</time>
      </trkpt>
      <trkpt lat="44.38161" lon="6.06832">
        <ele>985.20001220703</ele>
        <time>2021-03-07T13:33:11.000Z</time>
      </trkpt>
      <trkpt lat="44.38165" lon="6.06832">
        <ele>986.20001220703</ele>
        <time>2021-03-07T13:33:14.000Z</time>
      </trkpt>
      <trkpt lat="44.38171" lon="6.06831">
        <ele>987.20001220703</ele>
        <time>2021-03-07T13:33:18.000Z</time>
      </trkpt>
      <trkpt lat="44.38174" lon="6.06831">
        <ele>987.79998779297</ele>
        <time>2021-03-07T13:33:20.000Z</time>
      </trkpt>
      <trkpt lat="44.38176" lon="6.0683">
        <ele>988.59997558594</ele>
        <time>2021-03-07T13:33:22.000Z</time>
      </trkpt>
      <trkpt lat="44.38181" lon="6.06829">
        <ele>989.59997558594</ele>
        <time>2021-03-07T13:33:26.000Z</time>
      </trkpt>
      <trkpt lat="44.38185" lon="6.06828">
        <ele>990.59997558594</ele>
        <time>2021-03-07T13:33:29.000Z</time>
      </trkpt>
      <trkpt lat="44.38186" lon="6.06828">
        <ele>990.59997558594</ele>
        <time>2021-03-07T13:33:30.000Z</time>
      </trkpt>
      <trkpt lat="44.38191" lon="6.06827">
        <ele>991.79998779297</ele>
        <time>2021-03-07T13:33:34.000Z</time>
      </trkpt>
      <trkpt lat="44.38195" lon="6.06827">
        <ele>992.79998779297</ele>
        <time>2021-03-07T13:33:37.000Z</time>
      </trkpt>
      <trkpt lat="44.38196" lon="6.06827">
        <ele>993.20001220703</ele>
        <time>2021-03-07T13:33:38.000Z</time>
      </trkpt>
      <trkpt lat="44.38202" lon="6.06828">
        <ele>994.20001220703</ele>
        <time>2021-03-07T13:33:42.000Z</time>
      </trkpt>
      <trkpt lat="44.38207" lon="6.06828">
        <ele>995.40002441406</ele>
        <time>2021-03-07T13:33:46.000Z</time>
      </trkpt>
      <trkpt lat="44.38209" lon="6.06828">
        <ele>995.79998779297</ele>
        <time>2021-03-07T13:33:47.000Z</time>
      </trkpt>
      <trkpt lat="44.38211" lon="6.06826">
        <ele>996.20001220703</ele>
        <time>2021-03-07T13:33:49.000Z</time>
      </trkpt>
      <trkpt lat="44.38212" lon="6.06822">
        <ele>997.20001220703</ele>
        <time>2021-03-07T13:33:51.000Z</time>
      </trkpt>
      <trkpt lat="44.38212" lon="6.0682">
        <ele>997.59997558594</ele>
        <time>2021-03-07T13:33:52.000Z</time>
      </trkpt>
      <trkpt lat="44.38209" lon="6.06815">
        <ele>998.40002441406</ele>
        <time>2021-03-07T13:33:55.000Z</time>
      </trkpt>
      <trkpt lat="44.38208" lon="6.06813">
        <ele>998.40002441406</ele>
        <time>2021-03-07T13:33:56.000Z</time>
      </trkpt>
      <trkpt lat="44.38207" lon="6.06812">
        <ele>998.59997558594</ele>
        <time>2021-03-07T13:33:57.000Z</time>
      </trkpt>
      <trkpt lat="44.38201" lon="6.06805">
        <ele>999.79998779297</ele>
        <time>2021-03-07T13:34:02.000Z</time>
      </trkpt>
      <trkpt lat="44.38197" lon="6.068">
        <ele>1000.200012207</ele>
        <time>2021-03-07T13:34:05.000Z</time>
      </trkpt>
      <trkpt lat="44.38192" lon="6.06795">
        <ele>1000.799987793</ele>
        <time>2021-03-07T13:34:09.000Z</time>
      </trkpt>
      <trkpt lat="44.38186" lon="6.06789">
        <ele>1001.799987793</ele>
        <time>2021-03-07T13:34:14.000Z</time>
      </trkpt>
      <trkpt lat="44.38185" lon="6.06788">
        <ele>1002</ele>
        <time>2021-03-07T13:34:15.000Z</time>
      </trkpt>
      <trkpt lat="44.3818" lon="6.06783">
        <ele>1002.799987793</ele>
        <time>2021-03-07T13:34:19.000Z</time>
      </trkpt>
      <trkpt lat="44.38175" lon="6.06777">
        <ele>1003.799987793</ele>
        <time>2021-03-07T13:34:24.000Z</time>
      </trkpt>
      <trkpt lat="44.38171" lon="6.06771">
        <ele>1004.799987793</ele>
        <time>2021-03-07T13:34:28.000Z</time>
      </trkpt>
      <trkpt lat="44.38168" lon="6.06764">
        <ele>1005.5999755859</ele>
        <time>2021-03-07T13:34:32.000Z</time>
      </trkpt>
      <trkpt lat="44.38167" lon="6.06762">
        <ele>1005.799987793</ele>
        <time>2021-03-07T13:34:33.000Z</time>
      </trkpt>
      <trkpt lat="44.38165" lon="6.06753">
        <ele>1007.200012207</ele>
        <time>2021-03-07T13:34:38.000Z</time>
      </trkpt>
      <trkpt lat="44.38165" lon="6.06751">
        <ele>1007.4000244141</ele>
        <time>2021-03-07T13:34:39.000Z</time>
      </trkpt>
      <trkpt lat="44.38165" lon="6.06743">
        <ele>1008</ele>
        <time>2021-03-07T13:34:43.000Z</time>
      </trkpt>
      <trkpt lat="44.38164" lon="6.06737">
        <ele>1009.200012207</ele>
        <time>2021-03-07T13:34:46.000Z</time>
      </trkpt>
      <trkpt lat="44.38163" lon="6.06732">
        <ele>1010.4000244141</ele>
        <time>2021-03-07T13:34:49.000Z</time>
      </trkpt>
      <trkpt lat="44.38158" lon="6.06727">
        <ele>1011.799987793</ele>
        <time>2021-03-07T13:34:53.000Z</time>
      </trkpt>
      <trkpt lat="44.38157" lon="6.06724">
        <ele>1012.4000244141</ele>
        <time>2021-03-07T13:34:55.000Z</time>
      </trkpt>
      <trkpt lat="44.38156" lon="6.06722">
        <ele>1012.799987793</ele>
        <time>2021-03-07T13:34:56.000Z</time>
      </trkpt>
      <trkpt lat="44.38153" lon="6.06717">
        <ele>1013.799987793</ele>
        <time>2021-03-07T13:35:00.000Z</time>
      </trkpt>
      <trkpt lat="44.38152" lon="6.06713">
        <ele>1014.4000244141</ele>
        <time>2021-03-07T13:35:02.000Z</time>
      </trkpt>
      <trkpt lat="44.3815" lon="6.06708">
        <ele>1015.200012207</ele>
        <time>2021-03-07T13:35:05.000Z</time>
      </trkpt>
      <trkpt lat="44.38149" lon="6.06703">
        <ele>1016.4000244141</ele>
        <time>2021-03-07T13:35:08.000Z</time>
      </trkpt>
      <trkpt lat="44.38149" lon="6.06701">
        <ele>1017</ele>
        <time>2021-03-07T13:35:09.000Z</time>
      </trkpt>
      <trkpt lat="44.38149" lon="6.06698">
        <ele>1017.5999755859</ele>
        <time>2021-03-07T13:35:11.000Z</time>
      </trkpt>
      <trkpt lat="44.38148" lon="6.06694">
        <ele>1018.799987793</ele>
        <time>2021-03-07T13:35:13.000Z</time>
      </trkpt>
      <trkpt lat="44.38146" lon="6.0669">
        <ele>1020</ele>
        <time>2021-03-07T13:35:16.000Z</time>
      </trkpt>
      <trkpt lat="44.38145" lon="6.06687">
        <ele>1020.5999755859</ele>
        <time>2021-03-07T13:35:18.000Z</time>
      </trkpt>
      <trkpt lat="44.38145" lon="6.06685">
        <ele>1021</ele>
        <time>2021-03-07T13:35:19.000Z</time>
      </trkpt>
      <trkpt lat="44.38143" lon="6.06681">
        <ele>1022.200012207</ele>
        <time>2021-03-07T13:35:22.000Z</time>
      </trkpt>
      <trkpt lat="44.38139" lon="6.06676">
        <ele>1023.200012207</ele>
        <time>2021-03-07T13:35:26.000Z</time>
      </trkpt>
      <trkpt lat="44.38138" lon="6.06673">
        <ele>1023.799987793</ele>
        <time>2021-03-07T13:35:28.000Z</time>
      </trkpt>
      <trkpt lat="44.38137" lon="6.0667">
        <ele>1024.4000244141</ele>
        <time>2021-03-07T13:35:30.000Z</time>
      </trkpt>
      <trkpt lat="44.38133" lon="6.06664">
        <ele>1025.5999755859</ele>
        <time>2021-03-07T13:35:34.000Z</time>
      </trkpt>
      <trkpt lat="44.38129" lon="6.06659">
        <ele>1026.8000488281</ele>
        <time>2021-03-07T13:35:38.000Z</time>
      </trkpt>
      <trkpt lat="44.38126" lon="6.06655">
        <ele>1028</ele>
        <time>2021-03-07T13:35:41.000Z</time>
      </trkpt>
      <trkpt lat="44.38122" lon="6.06647">
        <ele>1029.1999511719</ele>
        <time>2021-03-07T13:35:46.000Z</time>
      </trkpt>
      <trkpt lat="44.38121" lon="6.06646">
        <ele>1029.5999755859</ele>
        <time>2021-03-07T13:35:47.000Z</time>
      </trkpt>
      <trkpt lat="44.38118" lon="6.06641">
        <ele>1030.4000244141</ele>
        <time>2021-03-07T13:35:50.000Z</time>
      </trkpt>
      <trkpt lat="44.38113" lon="6.06635">
        <ele>1031.5999755859</ele>
        <time>2021-03-07T13:35:55.000Z</time>
      </trkpt>
      <trkpt lat="44.3811" lon="6.06629">
        <ele>1032.5999755859</ele>
        <time>2021-03-07T13:35:59.000Z</time>
      </trkpt>
      <trkpt lat="44.38106" lon="6.06623">
        <ele>1033.8000488281</ele>
        <time>2021-03-07T13:36:04.000Z</time>
      </trkpt>
      <trkpt lat="44.381" lon="6.06617">
        <ele>1035.1999511719</ele>
        <time>2021-03-07T13:36:09.000Z</time>
      </trkpt>
      <trkpt lat="44.38093" lon="6.06614">
        <ele>1036.4000244141</ele>
        <time>2021-03-07T13:36:14.000Z</time>
      </trkpt>
      <trkpt lat="44.38092" lon="6.06613">
        <ele>1036.4000244141</ele>
        <time>2021-03-07T13:36:15.000Z</time>
      </trkpt>
      <trkpt lat="44.38086" lon="6.06611">
        <ele>1037.1999511719</ele>
        <time>2021-03-07T13:36:19.000Z</time>
      </trkpt>
      <trkpt lat="44.38079" lon="6.0661">
        <ele>1038.1999511719</ele>
        <time>2021-03-07T13:36:24.000Z</time>
      </trkpt>
      <trkpt lat="44.38073" lon="6.06609">
        <ele>1039.1999511719</ele>
        <time>2021-03-07T13:36:28.000Z</time>
      </trkpt>
      <trkpt lat="44.38066" lon="6.0661">
        <ele>1040.4000244141</ele>
        <time>2021-03-07T13:36:33.000Z</time>
      </trkpt>
      <trkpt lat="44.38062" lon="6.0661">
        <ele>1041.4000244141</ele>
        <time>2021-03-07T13:36:36.000Z</time>
      </trkpt>
      <trkpt lat="44.38055" lon="6.06609">
        <ele>1042.4000244141</ele>
        <time>2021-03-07T13:36:40.000Z</time>
      </trkpt>
      <trkpt lat="44.38053" lon="6.06608">
        <ele>1042.5999755859</ele>
        <time>2021-03-07T13:36:41.000Z</time>
      </trkpt>
      <trkpt lat="44.38046" lon="6.06608">
        <ele>1043.4000244141</ele>
        <time>2021-03-07T13:36:46.000Z</time>
      </trkpt>
      <trkpt lat="44.38044" lon="6.06608">
        <ele>1043.5999755859</ele>
        <time>2021-03-07T13:36:47.000Z</time>
      </trkpt>
      <trkpt lat="44.38037" lon="6.06606">
        <ele>1044.4000244141</ele>
        <time>2021-03-07T13:36:51.000Z</time>
      </trkpt>
      <trkpt lat="44.3803" lon="6.06601">
        <ele>1045.4000244141</ele>
        <time>2021-03-07T13:36:56.000Z</time>
      </trkpt>
      <trkpt lat="44.38029" lon="6.06599">
        <ele>1045.5999755859</ele>
        <time>2021-03-07T13:36:57.000Z</time>
      </trkpt>
      <trkpt lat="44.38023" lon="6.06588">
        <ele>1046.8000488281</ele>
        <time>2021-03-07T13:37:04.000Z</time>
      </trkpt>
      <trkpt lat="44.38021" lon="6.06585">
        <ele>1047</ele>
        <time>2021-03-07T13:37:06.000Z</time>
      </trkpt>
      <trkpt lat="44.38018" lon="6.06582">
        <ele>1047.8000488281</ele>
        <time>2021-03-07T13:37:09.000Z</time>
      </trkpt>
      <trkpt lat="44.38014" lon="6.06577">
        <ele>1048.8000488281</ele>
        <time>2021-03-07T13:37:13.000Z</time>
      </trkpt>
      <trkpt lat="44.38013" lon="6.06576">
        <ele>1049</ele>
        <time>2021-03-07T13:37:14.000Z</time>
      </trkpt>
      <trkpt lat="44.38011" lon="6.06574">
        <ele>1049.8000488281</ele>
        <time>2021-03-07T13:37:16.000Z</time>
      </trkpt>
      <trkpt lat="44.38008" lon="6.06569">
        <ele>1050.8000488281</ele>
        <time>2021-03-07T13:37:19.000Z</time>
      </trkpt>
      <trkpt lat="44.38006" lon="6.06565">
        <ele>1051.5999755859</ele>
        <time>2021-03-07T13:37:22.000Z</time>
      </trkpt>
      <trkpt lat="44.38004" lon="6.06562">
        <ele>1052</ele>
        <time>2021-03-07T13:37:24.000Z</time>
      </trkpt>
      <trkpt lat="44.38002" lon="6.06557">
        <ele>1053</ele>
        <time>2021-03-07T13:37:27.000Z</time>
      </trkpt>
      <trkpt lat="44.38" lon="6.06551">
        <ele>1053.8000488281</ele>
        <time>2021-03-07T13:37:30.000Z</time>
      </trkpt>
      <trkpt lat="44.38" lon="6.06549">
        <ele>1054.5999755859</ele>
        <time>2021-03-07T13:37:31.000Z</time>
      </trkpt>
      <trkpt lat="44.37998" lon="6.06541">
        <ele>1055.4000244141</ele>
        <time>2021-03-07T13:37:35.000Z</time>
      </trkpt>
      <trkpt lat="44.37998" lon="6.06539">
        <ele>1055.5999755859</ele>
        <time>2021-03-07T13:37:36.000Z</time>
      </trkpt>
      <trkpt lat="44.37998" lon="6.06537">
        <ele>1055.8000488281</ele>
        <time>2021-03-07T13:37:37.000Z</time>
      </trkpt>
      <trkpt lat="44.38003" lon="6.06532">
        <ele>1056.4000244141</ele>
        <time>2021-03-07T13:37:42.000Z</time>
      </trkpt>
      <trkpt lat="44.38004" lon="6.06532">
        <ele>1056.8000488281</ele>
        <time>2021-03-07T13:37:43.000Z</time>
      </trkpt>
      <trkpt lat="44.3801" lon="6.06532">
        <ele>1057.5999755859</ele>
        <time>2021-03-07T13:37:47.000Z</time>
      </trkpt>
      <trkpt lat="44.38011" lon="6.06533">
        <ele>1058</ele>
        <time>2021-03-07T13:37:48.000Z</time>
      </trkpt>
      <trkpt lat="44.38014" lon="6.06535">
        <ele>1058.8000488281</ele>
        <time>2021-03-07T13:37:50.000Z</time>
      </trkpt>
      <trkpt lat="44.3802" lon="6.06537">
        <ele>1059.5999755859</ele>
        <time>2021-03-07T13:37:55.000Z</time>
      </trkpt>
      <trkpt lat="44.38021" lon="6.06538">
        <ele>1059.8000488281</ele>
        <time>2021-03-07T13:37:56.000Z</time>
      </trkpt>
      <trkpt lat="44.38024" lon="6.06542">
        <ele>1061.1999511719</ele>
        <time>2021-03-07T13:37:59.000Z</time>
      </trkpt>
      <trkpt lat="44.38029" lon="6.06547">
        <ele>1062.4000244141</ele>
        <time>2021-03-07T13:38:03.000Z</time>
      </trkpt>
      <trkpt lat="44.3803" lon="6.06548">
        <ele>1062.8000488281</ele>
        <time>2021-03-07T13:38:04.000Z</time>
      </trkpt>
      <trkpt lat="44.38032" lon="6.0655">
        <ele>1063.5999755859</ele>
        <time>2021-03-07T13:38:06.000Z</time>
      </trkpt>
      <trkpt lat="44.38036" lon="6.06551">
        <ele>1064.5999755859</ele>
        <time>2021-03-07T13:38:09.000Z</time>
      </trkpt>
      <trkpt lat="44.38037" lon="6.06552">
        <ele>1065</ele>
        <time>2021-03-07T13:38:10.000Z</time>
      </trkpt>
      <trkpt lat="44.3804" lon="6.06553">
        <ele>1065.8000488281</ele>
        <time>2021-03-07T13:38:12.000Z</time>
      </trkpt>
      <trkpt lat="44.38044" lon="6.06552">
        <ele>1067</ele>
        <time>2021-03-07T13:38:15.000Z</time>
      </trkpt>
      <trkpt lat="44.38045" lon="6.06551">
        <ele>1067.4000244141</ele>
        <time>2021-03-07T13:38:16.000Z</time>
      </trkpt>
      <trkpt lat="44.38046" lon="6.06551">
        <ele>1067.5999755859</ele>
        <time>2021-03-07T13:38:17.000Z</time>
      </trkpt>
      <trkpt lat="44.38047" lon="6.0655">
        <ele>1068</ele>
        <time>2021-03-07T13:38:18.000Z</time>
      </trkpt>
      <trkpt lat="44.38051" lon="6.06545">
        <ele>1069.1999511719</ele>
        <time>2021-03-07T13:38:22.000Z</time>
      </trkpt>
      <trkpt lat="44.38055" lon="6.06542">
        <ele>1070.1999511719</ele>
        <time>2021-03-07T13:38:25.000Z</time>
      </trkpt>
      <trkpt lat="44.38056" lon="6.06541">
        <ele>1070.4000244141</ele>
        <time>2021-03-07T13:38:26.000Z</time>
      </trkpt>
      <trkpt lat="44.38061" lon="6.0654">
        <ele>1071.5999755859</ele>
        <time>2021-03-07T13:38:30.000Z</time>
      </trkpt>
      <trkpt lat="44.38065" lon="6.0654">
        <ele>1072.1999511719</ele>
        <time>2021-03-07T13:38:33.000Z</time>
      </trkpt>
      <trkpt lat="44.38069" lon="6.06539">
        <ele>1072.8000488281</ele>
        <time>2021-03-07T13:38:36.000Z</time>
      </trkpt>
      <trkpt lat="44.38074" lon="6.06537">
        <ele>1073.5999755859</ele>
        <time>2021-03-07T13:38:40.000Z</time>
      </trkpt>
      <trkpt lat="44.38075" lon="6.06537">
        <ele>1073.8000488281</ele>
        <time>2021-03-07T13:38:41.000Z</time>
      </trkpt>
      <trkpt lat="44.38077" lon="6.06536">
        <ele>1074</ele>
        <time>2021-03-07T13:38:42.000Z</time>
      </trkpt>
      <trkpt lat="44.38083" lon="6.06536">
        <ele>1075</ele>
        <time>2021-03-07T13:38:46.000Z</time>
      </trkpt>
      <trkpt lat="44.38086" lon="6.06537">
        <ele>1075.5999755859</ele>
        <time>2021-03-07T13:38:48.000Z</time>
      </trkpt>
      <trkpt lat="44.3809" lon="6.06536">
        <ele>1075.8000488281</ele>
        <time>2021-03-07T13:38:51.000Z</time>
      </trkpt>
      <trkpt lat="44.38098" lon="6.06536">
        <ele>1077</ele>
        <time>2021-03-07T13:38:56.000Z</time>
      </trkpt>
      <trkpt lat="44.38105" lon="6.06536">
        <ele>1078</ele>
        <time>2021-03-07T13:39:00.000Z</time>
      </trkpt>
      <trkpt lat="44.38111" lon="6.06537">
        <ele>1079</ele>
        <time>2021-03-07T13:39:04.000Z</time>
      </trkpt>
      <trkpt lat="44.38113" lon="6.06537">
        <ele>1079.1999511719</ele>
        <time>2021-03-07T13:39:05.000Z</time>
      </trkpt>
      <trkpt lat="44.38122" lon="6.0654">
        <ele>1080.1999511719</ele>
        <time>2021-03-07T13:39:11.000Z</time>
      </trkpt>
      <trkpt lat="44.38126" lon="6.06542">
        <ele>1080.5999755859</ele>
        <time>2021-03-07T13:39:14.000Z</time>
      </trkpt>
      <trkpt lat="44.3813" lon="6.06544">
        <ele>1081.1999511719</ele>
        <time>2021-03-07T13:39:17.000Z</time>
      </trkpt>
      <trkpt lat="44.38134" lon="6.06548">
        <ele>1082.4000244141</ele>
        <time>2021-03-07T13:39:21.000Z</time>
      </trkpt>
      <trkpt lat="44.3814" lon="6.06551">
        <ele>1083.4000244141</ele>
        <time>2021-03-07T13:39:25.000Z</time>
      </trkpt>
      <trkpt lat="44.38147" lon="6.06553">
        <ele>1084.5999755859</ele>
        <time>2021-03-07T13:39:29.000Z</time>
      </trkpt>
      <trkpt lat="44.38155" lon="6.06555">
        <ele>1085.8000488281</ele>
        <time>2021-03-07T13:39:34.000Z</time>
      </trkpt>
      <trkpt lat="44.3816" lon="6.06557">
        <ele>1086.1999511719</ele>
        <time>2021-03-07T13:39:37.000Z</time>
      </trkpt>
      <trkpt lat="44.38161" lon="6.06558">
        <ele>1086.4000244141</ele>
        <time>2021-03-07T13:39:41.000Z</time>
      </trkpt>
      <trkpt lat="44.38161" lon="6.06558">
        <ele>1086.8000488281</ele>
        <time>2021-03-07T13:39:43.000Z</time>
      </trkpt>
      <trkpt lat="44.38161" lon="6.06558">
        <ele>1087.5999755859</ele>
        <time>2021-03-07T13:39:55.000Z</time>
      </trkpt>
      <trkpt lat="44.38161" lon="6.06558">
        <ele>1087.8000488281</ele>
        <time>2021-03-07T13:40:03.000Z</time>
      </trkpt>
      <trkpt lat="44.38161" lon="6.06558">
        <ele>1087.5999755859</ele>
        <time>2021-03-07T13:40:23.000Z</time>
      </trkpt>
      <trkpt lat="44.38162" lon="6.06558">
        <ele>1087.8000488281</ele>
        <time>2021-03-07T13:40:46.000Z</time>
      </trkpt>
      <trkpt lat="44.3817" lon="6.06562">
        <ele>1088</ele>
        <time>2021-03-07T13:40:52.000Z</time>
      </trkpt>
      <trkpt lat="44.38176" lon="6.06567">
        <ele>1088.1999511719</ele>
        <time>2021-03-07T13:40:56.000Z</time>
      </trkpt>
      <trkpt lat="44.38181" lon="6.06572">
        <ele>1088.5999755859</ele>
        <time>2021-03-07T13:41:00.000Z</time>
      </trkpt>
      <trkpt lat="44.38182" lon="6.06573">
        <ele>1088.5999755859</ele>
        <time>2021-03-07T13:41:01.000Z</time>
      </trkpt>
      <trkpt lat="44.38192" lon="6.06578">
        <ele>1089.5999755859</ele>
        <time>2021-03-07T13:41:08.000Z</time>
      </trkpt>
      <trkpt lat="44.38194" lon="6.0658">
        <ele>1090</ele>
        <time>2021-03-07T13:41:10.000Z</time>
      </trkpt>
      <trkpt lat="44.38198" lon="6.06584">
        <ele>1090.8000488281</ele>
        <time>2021-03-07T13:41:14.000Z</time>
      </trkpt>
      <trkpt lat="44.382" lon="6.06585">
        <ele>1091.1999511719</ele>
        <time>2021-03-07T13:41:16.000Z</time>
      </trkpt>
      <trkpt lat="44.38205" lon="6.06585">
        <ele>1091.8000488281</ele>
        <time>2021-03-07T13:41:19.000Z</time>
      </trkpt>
      <trkpt lat="44.3821" lon="6.06586">
        <ele>1093</ele>
        <time>2021-03-07T13:41:22.000Z</time>
      </trkpt>
      <trkpt lat="44.38215" lon="6.06587">
        <ele>1093.8000488281</ele>
        <time>2021-03-07T13:41:25.000Z</time>
      </trkpt>
      <trkpt lat="44.38216" lon="6.06587">
        <ele>1094</ele>
        <time>2021-03-07T13:41:26.000Z</time>
      </trkpt>
      <trkpt lat="44.38226" lon="6.06591">
        <ele>1095.1999511719</ele>
        <time>2021-03-07T13:41:32.000Z</time>
      </trkpt>
      <trkpt lat="44.38229" lon="6.06592">
        <ele>1095.5999755859</ele>
        <time>2021-03-07T13:41:34.000Z</time>
      </trkpt>
      <trkpt lat="44.38233" lon="6.06597">
        <ele>1096.4000244141</ele>
        <time>2021-03-07T13:41:37.000Z</time>
      </trkpt>
      <trkpt lat="44.38238" lon="6.06601">
        <ele>1096.8000488281</ele>
        <time>2021-03-07T13:41:41.000Z</time>
      </trkpt>
      <trkpt lat="44.38241" lon="6.06602">
        <ele>1097.1999511719</ele>
        <time>2021-03-07T13:41:43.000Z</time>
      </trkpt>
      <trkpt lat="44.38248" lon="6.06603">
        <ele>1098.4000244141</ele>
        <time>2021-03-07T13:41:48.000Z</time>
      </trkpt>
      <trkpt lat="44.38252" lon="6.06603">
        <ele>1099</ele>
        <time>2021-03-07T13:41:51.000Z</time>
      </trkpt>
      <trkpt lat="44.38254" lon="6.06601">
        <ele>1099.4000244141</ele>
        <time>2021-03-07T13:41:53.000Z</time>
      </trkpt>
      <trkpt lat="44.38258" lon="6.066">
        <ele>1100.4000244141</ele>
        <time>2021-03-07T13:41:57.000Z</time>
      </trkpt>
      <trkpt lat="44.38258" lon="6.066">
        <ele>1100.5999755859</ele>
        <time>2021-03-07T13:41:58.000Z</time>
      </trkpt>
      <trkpt lat="44.3826" lon="6.06599">
        <ele>1101.8000488281</ele>
        <time>2021-03-07T13:42:01.000Z</time>
      </trkpt>
      <trkpt lat="44.38261" lon="6.06599">
        <ele>1102.4000244141</ele>
        <time>2021-03-07T13:42:03.000Z</time>
      </trkpt>
      <trkpt lat="44.38261" lon="6.06599">
        <ele>1103</ele>
        <time>2021-03-07T13:42:04.000Z</time>
      </trkpt>
      <trkpt lat="44.38262" lon="6.06599">
        <ele>1104</ele>
        <time>2021-03-07T13:42:07.000Z</time>
      </trkpt>
      <trkpt lat="44.38263" lon="6.066">
        <ele>1104.5999755859</ele>
        <time>2021-03-07T13:42:10.000Z</time>
      </trkpt>
      <trkpt lat="44.38263" lon="6.066">
        <ele>1105</ele>
        <time>2021-03-07T13:42:13.000Z</time>
      </trkpt>
      <trkpt lat="44.38265" lon="6.066">
        <ele>1106</ele>
        <time>2021-03-07T13:42:18.000Z</time>
      </trkpt>
      <trkpt lat="44.38269" lon="6.066">
        <ele>1106.1999511719</ele>
        <time>2021-03-07T13:42:24.000Z</time>
      </trkpt>
      <trkpt lat="44.38271" lon="6.066">
        <ele>1107</ele>
        <time>2021-03-07T13:42:28.000Z</time>
      </trkpt>
      <trkpt lat="44.38273" lon="6.06601">
        <ele>1107.8000488281</ele>
        <time>2021-03-07T13:42:31.000Z</time>
      </trkpt>
      <trkpt lat="44.38273" lon="6.06602">
        <ele>1108.1999511719</ele>
        <time>2021-03-07T13:42:32.000Z</time>
      </trkpt>
      <trkpt lat="44.38275" lon="6.06606">
        <ele>1109.4000244141</ele>
        <time>2021-03-07T13:42:38.000Z</time>
      </trkpt>
      <trkpt lat="44.38276" lon="6.06606">
        <ele>1109.8000488281</ele>
        <time>2021-03-07T13:42:40.000Z</time>
      </trkpt>
      <trkpt lat="44.38278" lon="6.06606">
        <ele>1110.4000244141</ele>
        <time>2021-03-07T13:42:43.000Z</time>
      </trkpt>
      <trkpt lat="44.38278" lon="6.06605">
        <ele>1111</ele>
        <time>2021-03-07T13:42:46.000Z</time>
      </trkpt>
      <trkpt lat="44.38278" lon="6.06605">
        <ele>1111.5999755859</ele>
        <time>2021-03-07T13:42:49.000Z</time>
      </trkpt>
      <trkpt lat="44.38281" lon="6.06606">
        <ele>1112.1999511719</ele>
        <time>2021-03-07T13:42:54.000Z</time>
      </trkpt>
      <trkpt lat="44.38289" lon="6.06605">
        <ele>1112.5999755859</ele>
        <time>2021-03-07T13:43:00.000Z</time>
      </trkpt>
      <trkpt lat="44.3829" lon="6.06605">
        <ele>1112.8000488281</ele>
        <time>2021-03-07T13:43:01.000Z</time>
      </trkpt>
      <trkpt lat="44.3829" lon="6.06604">
        <ele>1113.8000488281</ele>
        <time>2021-03-07T13:43:05.000Z</time>
      </trkpt>
      <trkpt lat="44.3829" lon="6.06604">
        <ele>1114.4000244141</ele>
        <time>2021-03-07T13:43:06.000Z</time>
      </trkpt>
      <trkpt lat="44.3829" lon="6.06605">
        <ele>1114.8000488281</ele>
        <time>2021-03-07T13:43:07.000Z</time>
      </trkpt>
      <trkpt lat="44.38291" lon="6.06606">
        <ele>1116</ele>
        <time>2021-03-07T13:43:12.000Z</time>
      </trkpt>
      <trkpt lat="44.38292" lon="6.06605">
        <ele>1116.1999511719</ele>
        <time>2021-03-07T13:43:14.000Z</time>
      </trkpt>
      <trkpt lat="44.38293" lon="6.06606">
        <ele>1117</ele>
        <time>2021-03-07T13:43:21.000Z</time>
      </trkpt>
      <trkpt lat="44.38293" lon="6.06606">
        <ele>1117.4000244141</ele>
        <time>2021-03-07T13:43:29.000Z</time>
      </trkpt>
      <trkpt lat="44.38294" lon="6.06607">
        <ele>1117.1999511719</ele>
        <time>2021-03-07T13:43:36.000Z</time>
      </trkpt>
      <trkpt lat="44.38294" lon="6.06607">
        <ele>1117.8000488281</ele>
        <time>2021-03-07T13:43:44.000Z</time>
      </trkpt>
      <trkpt lat="44.38296" lon="6.06607">
        <ele>1117.8000488281</ele>
        <time>2021-03-07T13:43:48.000Z</time>
      </trkpt>
      <trkpt lat="44.38296" lon="6.06607">
        <ele>1118</ele>
        <time>2021-03-07T13:43:52.000Z</time>
      </trkpt>
      <trkpt lat="44.38296" lon="6.06607">
        <ele>1119</ele>
        <time>2021-03-07T13:43:58.000Z</time>
      </trkpt>
      <trkpt lat="44.38297" lon="6.06607">
        <ele>1119.1999511719</ele>
        <time>2021-03-07T13:44:03.000Z</time>
      </trkpt>
      <trkpt lat="44.38301" lon="6.06609">
        <ele>1119.1999511719</ele>
        <time>2021-03-07T13:44:08.000Z</time>
      </trkpt>
      <trkpt lat="44.38301" lon="6.0661">
        <ele>1119.1999511719</ele>
        <time>2021-03-07T13:44:09.000Z</time>
      </trkpt>
      <trkpt lat="44.38302" lon="6.0661">
        <ele>1119.5999755859</ele>
        <time>2021-03-07T13:44:13.000Z</time>
      </trkpt>
      <trkpt lat="44.38303" lon="6.0661">
        <ele>1119.8000488281</ele>
        <time>2021-03-07T13:44:14.000Z</time>
      </trkpt>
      <trkpt lat="44.38304" lon="6.06611">
        <ele>1120.1999511719</ele>
        <time>2021-03-07T13:44:15.000Z</time>
      </trkpt>
      <trkpt lat="44.38304" lon="6.0661">
        <ele>1121</ele>
        <time>2021-03-07T13:44:20.000Z</time>
      </trkpt>
      <trkpt lat="44.38304" lon="6.0661">
        <ele>1121</ele>
        <time>2021-03-07T13:44:21.000Z</time>
      </trkpt>
      <trkpt lat="44.38306" lon="6.06612">
        <ele>1122</ele>
        <time>2021-03-07T13:44:27.000Z</time>
      </trkpt>
      <trkpt lat="44.38306" lon="6.06612">
        <ele>1122.1999511719</ele>
        <time>2021-03-07T13:44:34.000Z</time>
      </trkpt>
      <trkpt lat="44.38306" lon="6.06612">
        <ele>1122.1999511719</ele>
        <time>2021-03-07T13:44:35.000Z</time>
      </trkpt>
      <trkpt lat="44.3831" lon="6.06613">
        <ele>1122.4000244141</ele>
        <time>2021-03-07T13:44:40.000Z</time>
      </trkpt>
      <trkpt lat="44.3832" lon="6.06614">
        <ele>1122.8000488281</ele>
        <time>2021-03-07T13:44:47.000Z</time>
      </trkpt>
      <trkpt lat="44.3832" lon="6.06613">
        <ele>1123.4000244141</ele>
        <time>2021-03-07T13:44:48.000Z</time>
      </trkpt>
      <trkpt lat="44.38322" lon="6.06612">
        <ele>1124.4000244141</ele>
        <time>2021-03-07T13:44:50.000Z</time>
      </trkpt>
      <trkpt lat="44.38322" lon="6.06612">
        <ele>1125.8000488281</ele>
        <time>2021-03-07T13:44:53.000Z</time>
      </trkpt>
      <trkpt lat="44.38323" lon="6.0661">
        <ele>1127.1999511719</ele>
        <time>2021-03-07T13:44:56.000Z</time>
      </trkpt>
      <trkpt lat="44.38324" lon="6.0661">
        <ele>1127.5999755859</ele>
        <time>2021-03-07T13:44:57.000Z</time>
      </trkpt>
      <trkpt lat="44.38324" lon="6.0661">
        <ele>1127.8000488281</ele>
        <time>2021-03-07T13:44:58.000Z</time>
      </trkpt>
      <trkpt lat="44.38327" lon="6.06612">
        <ele>1128.1999511719</ele>
        <time>2021-03-07T13:45:03.000Z</time>
      </trkpt>
      <trkpt lat="44.38327" lon="6.06612">
        <ele>1128.1999511719</ele>
        <time>2021-03-07T13:45:04.000Z</time>
      </trkpt>
      <trkpt lat="44.38327" lon="6.06612">
        <ele>1129.4000244141</ele>
        <time>2021-03-07T13:45:09.000Z</time>
      </trkpt>
      <trkpt lat="44.38327" lon="6.06612">
        <ele>1129.5999755859</ele>
        <time>2021-03-07T13:45:10.000Z</time>
      </trkpt>
      <trkpt lat="44.38328" lon="6.06613">
        <ele>1130.4000244141</ele>
        <time>2021-03-07T13:45:16.000Z</time>
      </trkpt>
      <trkpt lat="44.38329" lon="6.06613">
        <ele>1130.5999755859</ele>
        <time>2021-03-07T13:45:18.000Z</time>
      </trkpt>
      <trkpt lat="44.38331" lon="6.06613">
        <ele>1130.5999755859</ele>
        <time>2021-03-07T13:45:24.000Z</time>
      </trkpt>
      <trkpt lat="44.38333" lon="6.06614">
        <ele>1131.4000244141</ele>
        <time>2021-03-07T13:45:30.000Z</time>
      </trkpt>
      <trkpt lat="44.38333" lon="6.06614">
        <ele>1132.5999755859</ele>
        <time>2021-03-07T13:45:40.000Z</time>
      </trkpt>
      <trkpt lat="44.38333" lon="6.06614">
        <ele>1132.5999755859</ele>
        <time>2021-03-07T13:45:42.000Z</time>
      </trkpt>
      <trkpt lat="44.38335" lon="6.06613">
        <ele>1132.5999755859</ele>
        <time>2021-03-07T13:45:47.000Z</time>
      </trkpt>
      <trkpt lat="44.38342" lon="6.06612">
        <ele>1132.8000488281</ele>
        <time>2021-03-07T13:45:53.000Z</time>
      </trkpt>
      <trkpt lat="44.38343" lon="6.06612">
        <ele>1133.8000488281</ele>
        <time>2021-03-07T13:45:58.000Z</time>
      </trkpt>
      <trkpt lat="44.38344" lon="6.06612">
        <ele>1134.1999511719</ele>
        <time>2021-03-07T13:45:59.000Z</time>
      </trkpt>
      <trkpt lat="44.38347" lon="6.06614">
        <ele>1135</ele>
        <time>2021-03-07T13:46:01.000Z</time>
      </trkpt>
      <trkpt lat="44.38349" lon="6.06614">
        <ele>1135.1999511719</ele>
        <time>2021-03-07T13:46:04.000Z</time>
      </trkpt>
      <trkpt lat="44.3835" lon="6.06614">
        <ele>1136.4000244141</ele>
        <time>2021-03-07T13:46:10.000Z</time>
      </trkpt>
      <trkpt lat="44.38351" lon="6.06615">
        <ele>1137.1999511719</ele>
        <time>2021-03-07T13:46:12.000Z</time>
      </trkpt>
      <trkpt lat="44.38353" lon="6.06616">
        <ele>1137.4000244141</ele>
        <time>2021-03-07T13:46:16.000Z</time>
      </trkpt>
      <trkpt lat="44.38355" lon="6.06616">
        <ele>1138.4000244141</ele>
        <time>2021-03-07T13:46:21.000Z</time>
      </trkpt>
      <trkpt lat="44.38355" lon="6.06616">
        <ele>1138.5999755859</ele>
        <time>2021-03-07T13:46:22.000Z</time>
      </trkpt>
      <trkpt lat="44.38356" lon="6.06616">
        <ele>1139.8000488281</ele>
        <time>2021-03-07T13:46:27.000Z</time>
      </trkpt>
      <trkpt lat="44.38357" lon="6.06615">
        <ele>1140</ele>
        <time>2021-03-07T13:46:28.000Z</time>
      </trkpt>
      <trkpt lat="44.38358" lon="6.06614">
        <ele>1140.1999511719</ele>
        <time>2021-03-07T13:46:29.000Z</time>
      </trkpt>
      <trkpt lat="44.38366" lon="6.06608">
        <ele>1140.5999755859</ele>
        <time>2021-03-07T13:46:36.000Z</time>
      </trkpt>
      <trkpt lat="44.38366" lon="6.06608">
        <ele>1140.8000488281</ele>
        <time>2021-03-07T13:46:38.000Z</time>
      </trkpt>
      <trkpt lat="44.38366" lon="6.06608">
        <ele>1142</ele>
        <time>2021-03-07T13:46:40.000Z</time>
      </trkpt>
      <trkpt lat="44.38366" lon="6.06608">
        <ele>1142.8000488281</ele>
        <time>2021-03-07T13:46:44.000Z</time>
      </trkpt>
      <trkpt lat="44.38366" lon="6.06608">
        <ele>1143</ele>
        <time>2021-03-07T13:46:54.000Z</time>
      </trkpt>
      <trkpt lat="44.38366" lon="6.06608">
        <ele>1143</ele>
        <time>2021-03-07T13:47:08.000Z</time>
      </trkpt>
      <trkpt lat="44.38366" lon="6.06608">
        <ele>1142.8000488281</ele>
        <time>2021-03-07T13:47:22.000Z</time>
      </trkpt>
      <trkpt lat="44.38366" lon="6.06608">
        <ele>1142.8000488281</ele>
        <time>2021-03-07T13:47:34.000Z</time>
      </trkpt>
      <trkpt lat="44.38365" lon="6.06608">
        <ele>1142.8000488281</ele>
        <time>2021-03-07T13:47:46.000Z</time>
      </trkpt>
      <trkpt lat="44.38366" lon="6.06608">
        <ele>1142.8000488281</ele>
        <time>2021-03-07T13:48:00.000Z</time>
      </trkpt>
      <trkpt lat="44.38366" lon="6.06608">
        <ele>1143</ele>
        <time>2021-03-07T13:48:10.000Z</time>
      </trkpt>
      <trkpt lat="44.38365" lon="6.06608">
        <ele>1143.1999511719</ele>
        <time>2021-03-07T13:48:25.000Z</time>
      </trkpt>
      <trkpt lat="44.38365" lon="6.06608">
        <ele>1143</ele>
        <time>2021-03-07T13:48:43.000Z</time>
      </trkpt>
      <trkpt lat="44.38369" lon="6.06605">
        <ele>1143</ele>
        <time>2021-03-07T13:48:50.000Z</time>
      </trkpt>
      <trkpt lat="44.3838" lon="6.06596">
        <ele>1143.1999511719</ele>
        <time>2021-03-07T13:48:57.000Z</time>
      </trkpt>
      <trkpt lat="44.38395" lon="6.06585">
        <ele>1144</ele>
        <time>2021-03-07T13:49:06.000Z</time>
      </trkpt>
      <trkpt lat="44.384" lon="6.06583">
        <ele>1144</ele>
        <time>2021-03-07T13:49:09.000Z</time>
      </trkpt>
      <trkpt lat="44.38407" lon="6.06578">
        <ele>1144.8000488281</ele>
        <time>2021-03-07T13:49:14.000Z</time>
      </trkpt>
      <trkpt lat="44.3841" lon="6.06576">
        <ele>1145.1999511719</ele>
        <time>2021-03-07T13:49:16.000Z</time>
      </trkpt>
      <trkpt lat="44.38417" lon="6.06572">
        <ele>1146.4000244141</ele>
        <time>2021-03-07T13:49:21.000Z</time>
      </trkpt>
      <trkpt lat="44.38423" lon="6.06568">
        <ele>1147.5999755859</ele>
        <time>2021-03-07T13:49:25.000Z</time>
      </trkpt>
      <trkpt lat="44.38427" lon="6.06565">
        <ele>1148.4000244141</ele>
        <time>2021-03-07T13:49:28.000Z</time>
      </trkpt>
      <trkpt lat="44.38429" lon="6.06565">
        <ele>1148.5999755859</ele>
        <time>2021-03-07T13:49:29.000Z</time>
      </trkpt>
      <trkpt lat="44.38434" lon="6.06562">
        <ele>1149.8000488281</ele>
        <time>2021-03-07T13:49:33.000Z</time>
      </trkpt>
      <trkpt lat="44.38436" lon="6.06562">
        <ele>1150</ele>
        <time>2021-03-07T13:49:34.000Z</time>
      </trkpt>
      <trkpt lat="44.3844" lon="6.0656">
        <ele>1151</ele>
        <time>2021-03-07T13:49:37.000Z</time>
      </trkpt>
      <trkpt lat="44.38444" lon="6.0656">
        <ele>1152</ele>
        <time>2021-03-07T13:49:40.000Z</time>
      </trkpt>
      <trkpt lat="44.38445" lon="6.06561">
        <ele>1152.4000244141</ele>
        <time>2021-03-07T13:49:41.000Z</time>
      </trkpt>
      <trkpt lat="44.38449" lon="6.06561">
        <ele>1153.1999511719</ele>
        <time>2021-03-07T13:49:44.000Z</time>
      </trkpt>
      <trkpt lat="44.38454" lon="6.06561">
        <ele>1154.4000244141</ele>
        <time>2021-03-07T13:49:47.000Z</time>
      </trkpt>
      <trkpt lat="44.38455" lon="6.06561">
        <ele>1154.8000488281</ele>
        <time>2021-03-07T13:49:48.000Z</time>
      </trkpt>
      <trkpt lat="44.38458" lon="6.06562">
        <ele>1155.5999755859</ele>
        <time>2021-03-07T13:49:50.000Z</time>
      </trkpt>
      <trkpt lat="44.3846" lon="6.06563">
        <ele>1157</ele>
        <time>2021-03-07T13:49:52.000Z</time>
      </trkpt>
      <trkpt lat="44.38464" lon="6.06565">
        <ele>1158</ele>
        <time>2021-03-07T13:49:55.000Z</time>
      </trkpt>
      <trkpt lat="44.38472" lon="6.06571">
        <ele>1159.1999511719</ele>
        <time>2021-03-07T13:50:02.000Z</time>
      </trkpt>
      <trkpt lat="44.38473" lon="6.06574">
        <ele>1159.5999755859</ele>
        <time>2021-03-07T13:50:04.000Z</time>
      </trkpt>
      <trkpt lat="44.38475" lon="6.06577">
        <ele>1160.1999511719</ele>
        <time>2021-03-07T13:50:07.000Z</time>
      </trkpt>
      <trkpt lat="44.38476" lon="6.06577">
        <ele>1160.4000244141</ele>
        <time>2021-03-07T13:50:08.000Z</time>
      </trkpt>
      <trkpt lat="44.38477" lon="6.06578">
        <ele>1160.8000488281</ele>
        <time>2021-03-07T13:50:09.000Z</time>
      </trkpt>
      <trkpt lat="44.3848" lon="6.06579">
        <ele>1161.5999755859</ele>
        <time>2021-03-07T13:50:11.000Z</time>
      </trkpt>
      <trkpt lat="44.38481" lon="6.0658">
        <ele>1162.8000488281</ele>
        <time>2021-03-07T13:50:14.000Z</time>
      </trkpt>
      <trkpt lat="44.38482" lon="6.0658">
        <ele>1163.4000244141</ele>
        <time>2021-03-07T13:50:15.000Z</time>
      </trkpt>
      <trkpt lat="44.38483" lon="6.06581">
        <ele>1164.1999511719</ele>
        <time>2021-03-07T13:50:17.000Z</time>
      </trkpt>
      <trkpt lat="44.38484" lon="6.06581">
        <ele>1165.4000244141</ele>
        <time>2021-03-07T13:50:19.000Z</time>
      </trkpt>
      <trkpt lat="44.38491" lon="6.06581">
        <ele>1166</ele>
        <time>2021-03-07T13:50:23.000Z</time>
      </trkpt>
      <trkpt lat="44.38496" lon="6.06582">
        <ele>1166.4000244141</ele>
        <time>2021-03-07T13:50:26.000Z</time>
      </trkpt>
      <trkpt lat="44.38498" lon="6.06582">
        <ele>1166.5999755859</ele>
        <time>2021-03-07T13:50:28.000Z</time>
      </trkpt>
      <trkpt lat="44.38505" lon="6.06582">
        <ele>1167.4000244141</ele>
        <time>2021-03-07T13:50:32.000Z</time>
      </trkpt>
      <trkpt lat="44.38509" lon="6.06583">
        <ele>1168.5999755859</ele>
        <time>2021-03-07T13:50:35.000Z</time>
      </trkpt>
      <trkpt lat="44.3851" lon="6.06584">
        <ele>1168.8000488281</ele>
        <time>2021-03-07T13:50:36.000Z</time>
      </trkpt>
      <trkpt lat="44.3851" lon="6.06587">
        <ele>1170</ele>
        <time>2021-03-07T13:50:39.000Z</time>
      </trkpt>
      <trkpt lat="44.38511" lon="6.06588">
        <ele>1170.8000488281</ele>
        <time>2021-03-07T13:50:41.000Z</time>
      </trkpt>
      <trkpt lat="44.3851" lon="6.06589">
        <ele>1171.1999511719</ele>
        <time>2021-03-07T13:50:42.000Z</time>
      </trkpt>
      <trkpt lat="44.3851" lon="6.06592">
        <ele>1172.5999755859</ele>
        <time>2021-03-07T13:50:45.000Z</time>
      </trkpt>
      <trkpt lat="44.38507" lon="6.06594">
        <ele>1174</ele>
        <time>2021-03-07T13:50:48.000Z</time>
      </trkpt>
      <trkpt lat="44.38506" lon="6.06595">
        <ele>1175</ele>
        <time>2021-03-07T13:50:50.000Z</time>
      </trkpt>
      <trkpt lat="44.38505" lon="6.06596">
        <ele>1175.4000244141</ele>
        <time>2021-03-07T13:50:51.000Z</time>
      </trkpt>
      <trkpt lat="44.38502" lon="6.06599">
        <ele>1176.5999755859</ele>
        <time>2021-03-07T13:50:54.000Z</time>
      </trkpt>
      <trkpt lat="44.38501" lon="6.06599">
        <ele>1177.1999511719</ele>
        <time>2021-03-07T13:50:58.000Z</time>
      </trkpt>
      <trkpt lat="44.38501" lon="6.06599">
        <ele>1177.5999755859</ele>
        <time>2021-03-07T13:51:00.000Z</time>
      </trkpt>
      <trkpt lat="44.38501" lon="6.066">
        <ele>1178.5999755859</ele>
        <time>2021-03-07T13:51:05.000Z</time>
      </trkpt>
      <trkpt lat="44.385" lon="6.06601">
        <ele>1179.4000244141</ele>
        <time>2021-03-07T13:51:09.000Z</time>
      </trkpt>
      <trkpt lat="44.38499" lon="6.06602">
        <ele>1179.8000488281</ele>
        <time>2021-03-07T13:51:11.000Z</time>
      </trkpt>
      <trkpt lat="44.38496" lon="6.06603">
        <ele>1180.1999511719</ele>
        <time>2021-03-07T13:51:21.000Z</time>
      </trkpt>
      <trkpt lat="44.38494" lon="6.06603">
        <ele>1179.8000488281</ele>
        <time>2021-03-07T13:51:30.000Z</time>
      </trkpt>
      <trkpt lat="44.38488" lon="6.06607">
        <ele>1179.8000488281</ele>
        <time>2021-03-07T13:51:37.000Z</time>
      </trkpt>
      <trkpt lat="44.38482" lon="6.06614">
        <ele>1180.4000244141</ele>
        <time>2021-03-07T13:51:43.000Z</time>
      </trkpt>
      <trkpt lat="44.38481" lon="6.06617">
        <ele>1180.5999755859</ele>
        <time>2021-03-07T13:51:45.000Z</time>
      </trkpt>
      <trkpt lat="44.3848" lon="6.06619">
        <ele>1180.8000488281</ele>
        <time>2021-03-07T13:51:47.000Z</time>
      </trkpt>
      <trkpt lat="44.3848" lon="6.06621">
        <ele>1181.5999755859</ele>
        <time>2021-03-07T13:51:49.000Z</time>
      </trkpt>
      <trkpt lat="44.3848" lon="6.06621">
        <ele>1182</ele>
        <time>2021-03-07T13:51:50.000Z</time>
      </trkpt>
      <trkpt lat="44.3848" lon="6.06622">
        <ele>1183</ele>
        <time>2021-03-07T13:51:52.000Z</time>
      </trkpt>
      <trkpt lat="44.3848" lon="6.06623">
        <ele>1184.4000244141</ele>
        <time>2021-03-07T13:51:55.000Z</time>
      </trkpt>
      <trkpt lat="44.38475" lon="6.06626">
        <ele>1184.8000488281</ele>
        <time>2021-03-07T13:51:59.000Z</time>
      </trkpt>
      <trkpt lat="44.38473" lon="6.0663">
        <ele>1185</ele>
        <time>2021-03-07T13:52:02.000Z</time>
      </trkpt>
      <trkpt lat="44.38472" lon="6.06637">
        <ele>1185.5999755859</ele>
        <time>2021-03-07T13:52:07.000Z</time>
      </trkpt>
      <trkpt lat="44.38474" lon="6.0664">
        <ele>1186.5999755859</ele>
        <time>2021-03-07T13:52:10.000Z</time>
      </trkpt>
      <trkpt lat="44.38475" lon="6.06642">
        <ele>1187</ele>
        <time>2021-03-07T13:52:11.000Z</time>
      </trkpt>
      <trkpt lat="44.38476" lon="6.06644">
        <ele>1188</ele>
        <time>2021-03-07T13:52:13.000Z</time>
      </trkpt>
      <trkpt lat="44.38478" lon="6.06646">
        <ele>1189</ele>
        <time>2021-03-07T13:52:15.000Z</time>
      </trkpt>
      <trkpt lat="44.38478" lon="6.06647">
        <ele>1189.4000244141</ele>
        <time>2021-03-07T13:52:16.000Z</time>
      </trkpt>
      <trkpt lat="44.3848" lon="6.06651">
        <ele>1190.4000244141</ele>
        <time>2021-03-07T13:52:19.000Z</time>
      </trkpt>
      <trkpt lat="44.38483" lon="6.06654">
        <ele>1191.5999755859</ele>
        <time>2021-03-07T13:52:22.000Z</time>
      </trkpt>
      <trkpt lat="44.38486" lon="6.06657">
        <ele>1193</ele>
        <time>2021-03-07T13:52:25.000Z</time>
      </trkpt>
      <trkpt lat="44.38488" lon="6.06661">
        <ele>1194.1999511719</ele>
        <time>2021-03-07T13:52:28.000Z</time>
      </trkpt>
      <trkpt lat="44.3849" lon="6.06662">
        <ele>1195</ele>
        <time>2021-03-07T13:52:30.000Z</time>
      </trkpt>
      <trkpt lat="44.38491" lon="6.06663">
        <ele>1195.4000244141</ele>
        <time>2021-03-07T13:52:31.000Z</time>
      </trkpt>
      <trkpt lat="44.38492" lon="6.06663">
        <ele>1196.8000488281</ele>
        <time>2021-03-07T13:52:34.000Z</time>
      </trkpt>
      <trkpt lat="44.38492" lon="6.06664">
        <ele>1197.8000488281</ele>
        <time>2021-03-07T13:52:36.000Z</time>
      </trkpt>
      <trkpt lat="44.38492" lon="6.06664">
        <ele>1198</ele>
        <time>2021-03-07T13:52:37.000Z</time>
      </trkpt>
      <trkpt lat="44.38492" lon="6.06665">
        <ele>1199.1999511719</ele>
        <time>2021-03-07T13:52:40.000Z</time>
      </trkpt>
      <trkpt lat="44.38492" lon="6.06665">
        <ele>1199.8000488281</ele>
        <time>2021-03-07T13:52:52.000Z</time>
      </trkpt>
      <trkpt lat="44.38492" lon="6.06665">
        <ele>1200</ele>
        <time>2021-03-07T13:53:06.000Z</time>
      </trkpt>
      <trkpt lat="44.38492" lon="6.06665">
        <ele>1200.1999511719</ele>
        <time>2021-03-07T13:53:13.000Z</time>
      </trkpt>
      <trkpt lat="44.38492" lon="6.06665">
        <ele>1200.1999511719</ele>
        <time>2021-03-07T13:53:30.000Z</time>
      </trkpt>
      <trkpt lat="44.38492" lon="6.06665">
        <ele>1200.1999511719</ele>
        <time>2021-03-07T13:54:05.000Z</time>
      </trkpt>
      <trkpt lat="44.38494" lon="6.06666">
        <ele>1200.1999511719</ele>
        <time>2021-03-07T13:54:14.000Z</time>
      </trkpt>
      <trkpt lat="44.38502" lon="6.06666">
        <ele>1200.5999755859</ele>
        <time>2021-03-07T13:54:22.000Z</time>
      </trkpt>
      <trkpt lat="44.38504" lon="6.06666">
        <ele>1201</ele>
        <time>2021-03-07T13:54:24.000Z</time>
      </trkpt>
      <trkpt lat="44.38507" lon="6.06668">
        <ele>1202.1999511719</ele>
        <time>2021-03-07T13:54:27.000Z</time>
      </trkpt>
      <trkpt lat="44.38508" lon="6.06669">
        <ele>1203.4000244141</ele>
        <time>2021-03-07T13:54:30.000Z</time>
      </trkpt>
      <trkpt lat="44.38509" lon="6.06669">
        <ele>1203.8000488281</ele>
        <time>2021-03-07T13:54:31.000Z</time>
      </trkpt>
      <trkpt lat="44.3851" lon="6.0667">
        <ele>1204.4000244141</ele>
        <time>2021-03-07T13:54:33.000Z</time>
      </trkpt>
      <trkpt lat="44.38512" lon="6.0667">
        <ele>1206</ele>
        <time>2021-03-07T13:54:36.000Z</time>
      </trkpt>
      <trkpt lat="44.38512" lon="6.0667">
        <ele>1206.4000244141</ele>
        <time>2021-03-07T13:54:38.000Z</time>
      </trkpt>
      <trkpt lat="44.38512" lon="6.0667">
        <ele>1207.1999511719</ele>
        <time>2021-03-07T13:54:43.000Z</time>
      </trkpt>
      <trkpt lat="44.38513" lon="6.0667">
        <ele>1207.4000244141</ele>
        <time>2021-03-07T13:54:55.000Z</time>
      </trkpt>
      <trkpt lat="44.38513" lon="6.0667">
        <ele>1207.5999755859</ele>
        <time>2021-03-07T13:55:21.000Z</time>
      </trkpt>
      <trkpt lat="44.38513" lon="6.0667">
        <ele>1207.5999755859</ele>
        <time>2021-03-07T13:55:48.000Z</time>
      </trkpt>
      <trkpt lat="44.38513" lon="6.0667">
        <ele>1207.5999755859</ele>
        <time>2021-03-07T13:55:55.000Z</time>
      </trkpt>
      <trkpt lat="44.38513" lon="6.06669">
        <ele>1207.5999755859</ele>
        <time>2021-03-07T13:56:25.000Z</time>
      </trkpt>
      <trkpt lat="44.38513" lon="6.06669">
        <ele>1207.8000488281</ele>
        <time>2021-03-07T13:57:01.000Z</time>
      </trkpt>
      <trkpt lat="44.38513" lon="6.06669">
        <ele>1208</ele>
        <time>2021-03-07T13:57:25.000Z</time>
      </trkpt>
      <trkpt lat="44.38513" lon="6.06669">
        <ele>1208</ele>
        <time>2021-03-07T13:57:43.000Z</time>
      </trkpt>
      <trkpt lat="44.38514" lon="6.06669">
        <ele>1207.8000488281</ele>
        <time>2021-03-07T13:58:14.000Z</time>
      </trkpt>
      <trkpt lat="44.38514" lon="6.0667">
        <ele>1207.5999755859</ele>
        <time>2021-03-07T13:58:42.000Z</time>
      </trkpt>
      <trkpt lat="44.38514" lon="6.0667">
        <ele>1207.8000488281</ele>
        <time>2021-03-07T13:59:14.000Z</time>
      </trkpt>
      <trkpt lat="44.38514" lon="6.0667">
        <ele>1207.8000488281</ele>
        <time>2021-03-07T13:59:39.000Z</time>
      </trkpt>
      <trkpt lat="44.38516" lon="6.0667">
        <ele>1207.8000488281</ele>
        <time>2021-03-07T13:59:58.000Z</time>
      </trkpt>
      <trkpt lat="44.38526" lon="6.0667">
        <ele>1208.4000244141</ele>
        <time>2021-03-07T14:00:07.000Z</time>
      </trkpt>
      <trkpt lat="44.38528" lon="6.0667">
        <ele>1208.5999755859</ele>
        <time>2021-03-07T14:00:08.000Z</time>
      </trkpt>
      <trkpt lat="44.38533" lon="6.0667">
        <ele>1209.5999755859</ele>
        <time>2021-03-07T14:00:12.000Z</time>
      </trkpt>
      <trkpt lat="44.38535" lon="6.06669">
        <ele>1209.8000488281</ele>
        <time>2021-03-07T14:00:13.000Z</time>
      </trkpt>
      <trkpt lat="44.38542" lon="6.06669">
        <ele>1211</ele>
        <time>2021-03-07T14:00:18.000Z</time>
      </trkpt>
      <trkpt lat="44.38545" lon="6.06669">
        <ele>1211.8000488281</ele>
        <time>2021-03-07T14:00:21.000Z</time>
      </trkpt>
      <trkpt lat="44.38547" lon="6.06669">
        <ele>1212.4000244141</ele>
        <time>2021-03-07T14:00:22.000Z</time>
      </trkpt>
      <trkpt lat="44.38551" lon="6.06669">
        <ele>1213.8000488281</ele>
        <time>2021-03-07T14:00:25.000Z</time>
      </trkpt>
      <trkpt lat="44.38556" lon="6.06669">
        <ele>1214.8000488281</ele>
        <time>2021-03-07T14:00:28.000Z</time>
      </trkpt>
      <trkpt lat="44.38557" lon="6.06669">
        <ele>1215.1999511719</ele>
        <time>2021-03-07T14:00:29.000Z</time>
      </trkpt>
      <trkpt lat="44.38559" lon="6.06669">
        <ele>1215.8000488281</ele>
        <time>2021-03-07T14:00:31.000Z</time>
      </trkpt>
      <trkpt lat="44.38561" lon="6.06669">
        <ele>1217</ele>
        <time>2021-03-07T14:00:34.000Z</time>
      </trkpt>
      <trkpt lat="44.38562" lon="6.06669">
        <ele>1218.5999755859</ele>
        <time>2021-03-07T14:00:37.000Z</time>
      </trkpt>
      <trkpt lat="44.38564" lon="6.06669">
        <ele>1219.5999755859</ele>
        <time>2021-03-07T14:00:40.000Z</time>
      </trkpt>
      <trkpt lat="44.38567" lon="6.06668">
        <ele>1220.8000488281</ele>
        <time>2021-03-07T14:00:45.000Z</time>
      </trkpt>
      <trkpt lat="44.38568" lon="6.06668">
        <ele>1221</ele>
        <time>2021-03-07T14:00:46.000Z</time>
      </trkpt>
      <trkpt lat="44.38569" lon="6.06666">
        <ele>1221.8000488281</ele>
        <time>2021-03-07T14:00:50.000Z</time>
      </trkpt>
      <trkpt lat="44.38571" lon="6.06666">
        <ele>1222.1999511719</ele>
        <time>2021-03-07T14:00:55.000Z</time>
      </trkpt>
      <trkpt lat="44.38574" lon="6.06667">
        <ele>1223</ele>
        <time>2021-03-07T14:01:03.000Z</time>
      </trkpt>
      <trkpt lat="44.38575" lon="6.06667">
        <ele>1223.1999511719</ele>
        <time>2021-03-07T14:01:05.000Z</time>
      </trkpt>
      <trkpt lat="44.38577" lon="6.06668">
        <ele>1224</ele>
        <time>2021-03-07T14:01:10.000Z</time>
      </trkpt>
      <trkpt lat="44.38578" lon="6.06668">
        <ele>1225</ele>
        <time>2021-03-07T14:01:15.000Z</time>
      </trkpt>
      <trkpt lat="44.38579" lon="6.06668">
        <ele>1225.5999755859</ele>
        <time>2021-03-07T14:01:17.000Z</time>
      </trkpt>
      <trkpt lat="44.3858" lon="6.06668">
        <ele>1226</ele>
        <time>2021-03-07T14:01:20.000Z</time>
      </trkpt>
      <trkpt lat="44.38581" lon="6.06665">
        <ele>1226.5999755859</ele>
        <time>2021-03-07T14:01:25.000Z</time>
      </trkpt>
      <trkpt lat="44.38582" lon="6.06664">
        <ele>1226.5999755859</ele>
        <time>2021-03-07T14:01:37.000Z</time>
      </trkpt>
      <trkpt lat="44.38583" lon="6.0666">
        <ele>1226.4000244141</ele>
        <time>2021-03-07T14:01:48.000Z</time>
      </trkpt>
      <trkpt lat="44.38587" lon="6.06656">
        <ele>1226.1999511719</ele>
        <time>2021-03-07T14:02:01.000Z</time>
      </trkpt>
      <trkpt lat="44.38593" lon="6.06657">
        <ele>1227.1999511719</ele>
        <time>2021-03-07T14:02:07.000Z</time>
      </trkpt>
      <trkpt lat="44.38594" lon="6.06657">
        <ele>1227.5999755859</ele>
        <time>2021-03-07T14:02:08.000Z</time>
      </trkpt>
      <trkpt lat="44.38597" lon="6.06656">
        <ele>1228.1999511719</ele>
        <time>2021-03-07T14:02:10.000Z</time>
      </trkpt>
      <trkpt lat="44.386" lon="6.06655">
        <ele>1229.1999511719</ele>
        <time>2021-03-07T14:02:13.000Z</time>
      </trkpt>
      <trkpt lat="44.38605" lon="6.06653">
        <ele>1230.5999755859</ele>
        <time>2021-03-07T14:02:17.000Z</time>
      </trkpt>
      <trkpt lat="44.38608" lon="6.06651">
        <ele>1231.8000488281</ele>
        <time>2021-03-07T14:02:20.000Z</time>
      </trkpt>
      <trkpt lat="44.38613" lon="6.0665">
        <ele>1233</ele>
        <time>2021-03-07T14:02:24.000Z</time>
      </trkpt>
      <trkpt lat="44.38618" lon="6.06647">
        <ele>1234.1999511719</ele>
        <time>2021-03-07T14:02:28.000Z</time>
      </trkpt>
      <trkpt lat="44.38622" lon="6.06644">
        <ele>1235.4000244141</ele>
        <time>2021-03-07T14:02:31.000Z</time>
      </trkpt>
      <trkpt lat="44.38623" lon="6.06643">
        <ele>1236</ele>
        <time>2021-03-07T14:02:32.000Z</time>
      </trkpt>
      <trkpt lat="44.38626" lon="6.06641">
        <ele>1236.5999755859</ele>
        <time>2021-03-07T14:02:34.000Z</time>
      </trkpt>
      <trkpt lat="44.38629" lon="6.06639">
        <ele>1237.8000488281</ele>
        <time>2021-03-07T14:02:36.000Z</time>
      </trkpt>
      <trkpt lat="44.38632" lon="6.06636">
        <ele>1238.5999755859</ele>
        <time>2021-03-07T14:02:38.000Z</time>
      </trkpt>
      <trkpt lat="44.38635" lon="6.06635">
        <ele>1239</ele>
        <time>2021-03-07T14:02:40.000Z</time>
      </trkpt>
      <trkpt lat="44.38639" lon="6.06632">
        <ele>1240.4000244141</ele>
        <time>2021-03-07T14:02:45.000Z</time>
      </trkpt>
      <trkpt lat="44.3864" lon="6.0663">
        <ele>1241.4000244141</ele>
        <time>2021-03-07T14:02:49.000Z</time>
      </trkpt>
      <trkpt lat="44.3864" lon="6.0663">
        <ele>1242.5999755859</ele>
        <time>2021-03-07T14:02:55.000Z</time>
      </trkpt>
      <trkpt lat="44.3864" lon="6.0663">
        <ele>1242.5999755859</ele>
        <time>2021-03-07T14:02:57.000Z</time>
      </trkpt>
      <trkpt lat="44.3864" lon="6.06628">
        <ele>1243</ele>
        <time>2021-03-07T14:03:11.000Z</time>
      </trkpt>
      <trkpt lat="44.3864" lon="6.06626">
        <ele>1242.8000488281</ele>
        <time>2021-03-07T14:03:33.000Z</time>
      </trkpt>
      <trkpt lat="44.3864" lon="6.06626">
        <ele>1243</ele>
        <time>2021-03-07T14:03:46.000Z</time>
      </trkpt>
      <trkpt lat="44.38641" lon="6.06625">
        <ele>1243</ele>
        <time>2021-03-07T14:04:07.000Z</time>
      </trkpt>
      <trkpt lat="44.38641" lon="6.06625">
        <ele>1242.8000488281</ele>
        <time>2021-03-07T14:04:26.000Z</time>
      </trkpt>
      <trkpt lat="44.38641" lon="6.06626">
        <ele>1243</ele>
        <time>2021-03-07T14:05:07.000Z</time>
      </trkpt>
      <trkpt lat="44.38641" lon="6.06626">
        <ele>1243</ele>
        <time>2021-03-07T14:05:19.000Z</time>
      </trkpt>
      <trkpt lat="44.38641" lon="6.06626">
        <ele>1243</ele>
        <time>2021-03-07T14:05:42.000Z</time>
      </trkpt>
      <trkpt lat="44.38646" lon="6.06621">
        <ele>1243.1999511719</ele>
        <time>2021-03-07T14:06:14.000Z</time>
      </trkpt>
      <trkpt lat="44.38657" lon="6.06613">
        <ele>1243.5999755859</ele>
        <time>2021-03-07T14:06:21.000Z</time>
      </trkpt>
      <trkpt lat="44.3866" lon="6.06611">
        <ele>1244</ele>
        <time>2021-03-07T14:06:23.000Z</time>
      </trkpt>
      <trkpt lat="44.38665" lon="6.06609">
        <ele>1245.1999511719</ele>
        <time>2021-03-07T14:06:27.000Z</time>
      </trkpt>
      <trkpt lat="44.38668" lon="6.06608">
        <ele>1246</ele>
        <time>2021-03-07T14:06:29.000Z</time>
      </trkpt>
      <trkpt lat="44.3867" lon="6.06607">
        <ele>1246.1999511719</ele>
        <time>2021-03-07T14:06:30.000Z</time>
      </trkpt>
      <trkpt lat="44.38678" lon="6.06603">
        <ele>1247.1999511719</ele>
        <time>2021-03-07T14:06:35.000Z</time>
      </trkpt>
      <trkpt lat="44.38686" lon="6.06598">
        <ele>1248.4000244141</ele>
        <time>2021-03-07T14:06:40.000Z</time>
      </trkpt>
      <trkpt lat="44.38688" lon="6.06598">
        <ele>1248.5999755859</ele>
        <time>2021-03-07T14:06:41.000Z</time>
      </trkpt>
      <trkpt lat="44.38694" lon="6.06595">
        <ele>1249.4000244141</ele>
        <time>2021-03-07T14:06:45.000Z</time>
      </trkpt>
      <trkpt lat="44.38696" lon="6.06594">
        <ele>1249.5999755859</ele>
        <time>2021-03-07T14:06:46.000Z</time>
      </trkpt>
      <trkpt lat="44.38702" lon="6.06591">
        <ele>1250.5999755859</ele>
        <time>2021-03-07T14:06:50.000Z</time>
      </trkpt>
      <trkpt lat="44.38707" lon="6.06589">
        <ele>1251.4000244141</ele>
        <time>2021-03-07T14:06:53.000Z</time>
      </trkpt>
      <trkpt lat="44.38709" lon="6.06588">
        <ele>1251.5999755859</ele>
        <time>2021-03-07T14:06:54.000Z</time>
      </trkpt>
      <trkpt lat="44.38716" lon="6.06585">
        <ele>1252.5999755859</ele>
        <time>2021-03-07T14:06:58.000Z</time>
      </trkpt>
      <trkpt lat="44.38722" lon="6.06582">
        <ele>1253.5999755859</ele>
        <time>2021-03-07T14:07:01.000Z</time>
      </trkpt>
      <trkpt lat="44.38724" lon="6.06581">
        <ele>1253.8000488281</ele>
        <time>2021-03-07T14:07:02.000Z</time>
      </trkpt>
      <trkpt lat="44.38731" lon="6.06581">
        <ele>1255</ele>
        <time>2021-03-07T14:07:06.000Z</time>
      </trkpt>
      <trkpt lat="44.38734" lon="6.06582">
        <ele>1255.5999755859</ele>
        <time>2021-03-07T14:07:08.000Z</time>
      </trkpt>
      <trkpt lat="44.38735" lon="6.06582">
        <ele>1256</ele>
        <time>2021-03-07T14:07:09.000Z</time>
      </trkpt>
      <trkpt lat="44.38739" lon="6.06584">
        <ele>1257.1999511719</ele>
        <time>2021-03-07T14:07:11.000Z</time>
      </trkpt>
      <trkpt lat="44.38744" lon="6.06585">
        <ele>1258.4000244141</ele>
        <time>2021-03-07T14:07:14.000Z</time>
      </trkpt>
      <trkpt lat="44.38746" lon="6.06586">
        <ele>1258.8000488281</ele>
        <time>2021-03-07T14:07:15.000Z</time>
      </trkpt>
      <trkpt lat="44.3875" lon="6.06587">
        <ele>1259.5999755859</ele>
        <time>2021-03-07T14:07:17.000Z</time>
      </trkpt>
      <trkpt lat="44.38756" lon="6.06588">
        <ele>1261</ele>
        <time>2021-03-07T14:07:20.000Z</time>
      </trkpt>
      <trkpt lat="44.38759" lon="6.0659">
        <ele>1262</ele>
        <time>2021-03-07T14:07:22.000Z</time>
      </trkpt>
      <trkpt lat="44.38761" lon="6.06591">
        <ele>1262.1999511719</ele>
        <time>2021-03-07T14:07:23.000Z</time>
      </trkpt>
      <trkpt lat="44.38767" lon="6.06591">
        <ele>1263.1999511719</ele>
        <time>2021-03-07T14:07:26.000Z</time>
      </trkpt>
      <trkpt lat="44.38769" lon="6.06592">
        <ele>1263.5999755859</ele>
        <time>2021-03-07T14:07:27.000Z</time>
      </trkpt>
      <trkpt lat="44.38772" lon="6.06592">
        <ele>1264.4000244141</ele>
        <time>2021-03-07T14:07:29.000Z</time>
      </trkpt>
      <trkpt lat="44.38777" lon="6.06592">
        <ele>1265.8000488281</ele>
        <time>2021-03-07T14:07:32.000Z</time>
      </trkpt>
      <trkpt lat="44.38778" lon="6.06591">
        <ele>1266.1999511719</ele>
        <time>2021-03-07T14:07:33.000Z</time>
      </trkpt>
      <trkpt lat="44.38784" lon="6.06587">
        <ele>1267</ele>
        <time>2021-03-07T14:07:36.000Z</time>
      </trkpt>
      <trkpt lat="44.38787" lon="6.06586">
        <ele>1268</ele>
        <time>2021-03-07T14:07:38.000Z</time>
      </trkpt>
      <trkpt lat="44.3879" lon="6.06585">
        <ele>1268.4000244141</ele>
        <time>2021-03-07T14:07:40.000Z</time>
      </trkpt>
      <trkpt lat="44.38799" lon="6.0658">
        <ele>1269</ele>
        <time>2021-03-07T14:07:45.000Z</time>
      </trkpt>
      <trkpt lat="44.38809" lon="6.06577">
        <ele>1270.1999511719</ele>
        <time>2021-03-07T14:07:51.000Z</time>
      </trkpt>
      <trkpt lat="44.38811" lon="6.06577">
        <ele>1270.1999511719</ele>
        <time>2021-03-07T14:07:52.000Z</time>
      </trkpt>
      <trkpt lat="44.38819" lon="6.06577">
        <ele>1270.5999755859</ele>
        <time>2021-03-07T14:07:56.000Z</time>
      </trkpt>
      <trkpt lat="44.38827" lon="6.06576">
        <ele>1271.1999511719</ele>
        <time>2021-03-07T14:08:01.000Z</time>
      </trkpt>
      <trkpt lat="44.3883" lon="6.06575">
        <ele>1271.8000488281</ele>
        <time>2021-03-07T14:08:03.000Z</time>
      </trkpt>
      <trkpt lat="44.38833" lon="6.06574">
        <ele>1272.8000488281</ele>
        <time>2021-03-07T14:08:05.000Z</time>
      </trkpt>
      <trkpt lat="44.38841" lon="6.06574">
        <ele>1274</ele>
        <time>2021-03-07T14:08:10.000Z</time>
      </trkpt>
      <trkpt lat="44.38842" lon="6.06574">
        <ele>1274.1999511719</ele>
        <time>2021-03-07T14:08:11.000Z</time>
      </trkpt>
      <trkpt lat="44.38847" lon="6.06574">
        <ele>1274.8000488281</ele>
        <time>2021-03-07T14:08:14.000Z</time>
      </trkpt>
      <trkpt lat="44.38849" lon="6.06573">
        <ele>1275</ele>
        <time>2021-03-07T14:08:15.000Z</time>
      </trkpt>
      <trkpt lat="44.38853" lon="6.06572">
        <ele>1276.1999511719</ele>
        <time>2021-03-07T14:08:18.000Z</time>
      </trkpt>
      <trkpt lat="44.38859" lon="6.06572">
        <ele>1277.4000244141</ele>
        <time>2021-03-07T14:08:21.000Z</time>
      </trkpt>
      <trkpt lat="44.38864" lon="6.0657">
        <ele>1278.8000488281</ele>
        <time>2021-03-07T14:08:24.000Z</time>
      </trkpt>
      <trkpt lat="44.38867" lon="6.06569">
        <ele>1279.8000488281</ele>
        <time>2021-03-07T14:08:26.000Z</time>
      </trkpt>
      <trkpt lat="44.38871" lon="6.06568">
        <ele>1281.1999511719</ele>
        <time>2021-03-07T14:08:29.000Z</time>
      </trkpt>
      <trkpt lat="44.38873" lon="6.06568">
        <ele>1281.5999755859</ele>
        <time>2021-03-07T14:08:30.000Z</time>
      </trkpt>
      <trkpt lat="44.38876" lon="6.06567">
        <ele>1282.5999755859</ele>
        <time>2021-03-07T14:08:32.000Z</time>
      </trkpt>
      <trkpt lat="44.38887" lon="6.06564">
        <ele>1283.5999755859</ele>
        <time>2021-03-07T14:08:38.000Z</time>
      </trkpt>
      <trkpt lat="44.38889" lon="6.06564">
        <ele>1283.8000488281</ele>
        <time>2021-03-07T14:08:39.000Z</time>
      </trkpt>
      <trkpt lat="44.38895" lon="6.06565">
        <ele>1284.8000488281</ele>
        <time>2021-03-07T14:08:42.000Z</time>
      </trkpt>
      <trkpt lat="44.38903" lon="6.06566">
        <ele>1286</ele>
        <time>2021-03-07T14:08:46.000Z</time>
      </trkpt>
      <trkpt lat="44.38909" lon="6.06565">
        <ele>1287</ele>
        <time>2021-03-07T14:08:49.000Z</time>
      </trkpt>
      <trkpt lat="44.38914" lon="6.06565">
        <ele>1288.5999755859</ele>
        <time>2021-03-07T14:08:52.000Z</time>
      </trkpt>
      <trkpt lat="44.38918" lon="6.06564">
        <ele>1289.5999755859</ele>
        <time>2021-03-07T14:08:55.000Z</time>
      </trkpt>
      <trkpt lat="44.38924" lon="6.06562">
        <ele>1290.4000244141</ele>
        <time>2021-03-07T14:08:58.000Z</time>
      </trkpt>
      <trkpt lat="44.38925" lon="6.06561">
        <ele>1290.8000488281</ele>
        <time>2021-03-07T14:08:59.000Z</time>
      </trkpt>
      <trkpt lat="44.38929" lon="6.06558">
        <ele>1292</ele>
        <time>2021-03-07T14:09:02.000Z</time>
      </trkpt>
      <trkpt lat="44.38932" lon="6.06558">
        <ele>1292.5999755859</ele>
        <time>2021-03-07T14:09:04.000Z</time>
      </trkpt>
      <trkpt lat="44.38934" lon="6.06558">
        <ele>1293.1999511719</ele>
        <time>2021-03-07T14:09:05.000Z</time>
      </trkpt>
      <trkpt lat="44.38936" lon="6.06557">
        <ele>1293.4000244141</ele>
        <time>2021-03-07T14:09:06.000Z</time>
      </trkpt>
      <trkpt lat="44.38939" lon="6.06555">
        <ele>1294.4000244141</ele>
        <time>2021-03-07T14:09:08.000Z</time>
      </trkpt>
      <trkpt lat="44.38942" lon="6.06555">
        <ele>1295</ele>
        <time>2021-03-07T14:09:10.000Z</time>
      </trkpt>
      <trkpt lat="44.38944" lon="6.06555">
        <ele>1295.1999511719</ele>
        <time>2021-03-07T14:09:11.000Z</time>
      </trkpt>
      <trkpt lat="44.38952" lon="6.06553">
        <ele>1296.5999755859</ele>
        <time>2021-03-07T14:09:15.000Z</time>
      </trkpt>
      <trkpt lat="44.38955" lon="6.06552">
        <ele>1297</ele>
        <time>2021-03-07T14:09:17.000Z</time>
      </trkpt>
      <trkpt lat="44.3896" lon="6.06552">
        <ele>1297.8000488281</ele>
        <time>2021-03-07T14:09:20.000Z</time>
      </trkpt>
      <trkpt lat="44.38967" lon="6.0655">
        <ele>1298.8000488281</ele>
        <time>2021-03-07T14:09:23.000Z</time>
      </trkpt>
      <trkpt lat="44.38974" lon="6.0655">
        <ele>1299.8000488281</ele>
        <time>2021-03-07T14:09:26.000Z</time>
      </trkpt>
      <trkpt lat="44.38979" lon="6.0655">
        <ele>1301.1999511719</ele>
        <time>2021-03-07T14:09:29.000Z</time>
      </trkpt>
      <trkpt lat="44.38982" lon="6.06552">
        <ele>1301.8000488281</ele>
        <time>2021-03-07T14:09:31.000Z</time>
      </trkpt>
      <trkpt lat="44.38985" lon="6.06554">
        <ele>1302.4000244141</ele>
        <time>2021-03-07T14:09:33.000Z</time>
      </trkpt>
      <trkpt lat="44.38986" lon="6.06556">
        <ele>1303.5999755859</ele>
        <time>2021-03-07T14:09:36.000Z</time>
      </trkpt>
      <trkpt lat="44.38987" lon="6.06556">
        <ele>1304.5999755859</ele>
        <time>2021-03-07T14:09:38.000Z</time>
      </trkpt>
      <trkpt lat="44.38987" lon="6.06556">
        <ele>1305.1999511719</ele>
        <time>2021-03-07T14:09:39.000Z</time>
      </trkpt>
      <trkpt lat="44.38988" lon="6.06556">
        <ele>1306.1999511719</ele>
        <time>2021-03-07T14:09:41.000Z</time>
      </trkpt>
      <trkpt lat="44.38989" lon="6.06556">
        <ele>1307.4000244141</ele>
        <time>2021-03-07T14:09:43.000Z</time>
      </trkpt>
      <trkpt lat="44.38991" lon="6.06556">
        <ele>1308.5999755859</ele>
        <time>2021-03-07T14:09:47.000Z</time>
      </trkpt>
      <trkpt lat="44.38992" lon="6.06557">
        <ele>1308.8000488281</ele>
        <time>2021-03-07T14:09:48.000Z</time>
      </trkpt>
      <trkpt lat="44.38997" lon="6.06559">
        <ele>1309.5999755859</ele>
        <time>2021-03-07T14:09:57.000Z</time>
      </trkpt>
      <trkpt lat="44.39001" lon="6.0656">
        <ele>1310</ele>
        <time>2021-03-07T14:09:59.000Z</time>
      </trkpt>
      <trkpt lat="44.39004" lon="6.06563">
        <ele>1310.8000488281</ele>
        <time>2021-03-07T14:10:03.000Z</time>
      </trkpt>
      <trkpt lat="44.39005" lon="6.06564">
        <ele>1311</ele>
        <time>2021-03-07T14:10:04.000Z</time>
      </trkpt>
      <trkpt lat="44.39018" lon="6.0657">
        <ele>1311.5999755859</ele>
        <time>2021-03-07T14:10:11.000Z</time>
      </trkpt>
      <trkpt lat="44.3902" lon="6.06571">
        <ele>1311.5999755859</ele>
        <time>2021-03-07T14:10:13.000Z</time>
      </trkpt>
      <trkpt lat="44.39027" lon="6.06575">
        <ele>1312</ele>
        <time>2021-03-07T14:10:18.000Z</time>
      </trkpt>
      <trkpt lat="44.39037" lon="6.06581">
        <ele>1312.8000488281</ele>
        <time>2021-03-07T14:10:25.000Z</time>
      </trkpt>
      <trkpt lat="44.39042" lon="6.06585">
        <ele>1313.1999511719</ele>
        <time>2021-03-07T14:10:28.000Z</time>
      </trkpt>
      <trkpt lat="44.39046" lon="6.06589">
        <ele>1314</ele>
        <time>2021-03-07T14:10:31.000Z</time>
      </trkpt>
      <trkpt lat="44.3905" lon="6.06592">
        <ele>1315.1999511719</ele>
        <time>2021-03-07T14:10:34.000Z</time>
      </trkpt>
      <trkpt lat="44.39051" lon="6.06593">
        <ele>1315.4000244141</ele>
        <time>2021-03-07T14:10:35.000Z</time>
      </trkpt>
      <trkpt lat="44.39053" lon="6.06595">
        <ele>1316.1999511719</ele>
        <time>2021-03-07T14:10:37.000Z</time>
      </trkpt>
      <trkpt lat="44.39056" lon="6.06599">
        <ele>1317.1999511719</ele>
        <time>2021-03-07T14:10:40.000Z</time>
      </trkpt>
      <trkpt lat="44.39058" lon="6.06601">
        <ele>1317.4000244141</ele>
        <time>2021-03-07T14:10:41.000Z</time>
      </trkpt>
      <trkpt lat="44.39062" lon="6.06605">
        <ele>1318.1999511719</ele>
        <time>2021-03-07T14:10:44.000Z</time>
      </trkpt>
      <trkpt lat="44.39066" lon="6.06609">
        <ele>1319.4000244141</ele>
        <time>2021-03-07T14:10:47.000Z</time>
      </trkpt>
      <trkpt lat="44.39069" lon="6.06611">
        <ele>1320.8000488281</ele>
        <time>2021-03-07T14:10:49.000Z</time>
      </trkpt>
      <trkpt lat="44.39072" lon="6.06617">
        <ele>1321.8000488281</ele>
        <time>2021-03-07T14:10:52.000Z</time>
      </trkpt>
      <trkpt lat="44.39075" lon="6.0662">
        <ele>1322.4000244141</ele>
        <time>2021-03-07T14:10:54.000Z</time>
      </trkpt>
      <trkpt lat="44.39078" lon="6.06622">
        <ele>1322.8000488281</ele>
        <time>2021-03-07T14:10:56.000Z</time>
      </trkpt>
      <trkpt lat="44.39083" lon="6.06628">
        <ele>1324.1999511719</ele>
        <time>2021-03-07T14:11:01.000Z</time>
      </trkpt>
      <trkpt lat="44.39087" lon="6.06632">
        <ele>1325.4000244141</ele>
        <time>2021-03-07T14:11:05.000Z</time>
      </trkpt>
      <trkpt lat="44.39091" lon="6.06637">
        <ele>1326.4000244141</ele>
        <time>2021-03-07T14:11:09.000Z</time>
      </trkpt>
      <trkpt lat="44.39095" lon="6.06641">
        <ele>1327.5999755859</ele>
        <time>2021-03-07T14:11:13.000Z</time>
      </trkpt>
      <trkpt lat="44.39097" lon="6.06643">
        <ele>1328.5999755859</ele>
        <time>2021-03-07T14:11:16.000Z</time>
      </trkpt>
      <trkpt lat="44.39097" lon="6.06644">
        <ele>1329.1999511719</ele>
        <time>2021-03-07T14:11:17.000Z</time>
      </trkpt>
      <trkpt lat="44.39099" lon="6.06645">
        <ele>1330</ele>
        <time>2021-03-07T14:11:19.000Z</time>
      </trkpt>
      <trkpt lat="44.391" lon="6.06646">
        <ele>1331.1999511719</ele>
        <time>2021-03-07T14:11:22.000Z</time>
      </trkpt>
      <trkpt lat="44.39104" lon="6.06651">
        <ele>1332</ele>
        <time>2021-03-07T14:11:29.000Z</time>
      </trkpt>
      <trkpt lat="44.39109" lon="6.06658">
        <ele>1332.5999755859</ele>
        <time>2021-03-07T14:11:37.000Z</time>
      </trkpt>
      <trkpt lat="44.39112" lon="6.06663">
        <ele>1333</ele>
        <time>2021-03-07T14:11:42.000Z</time>
      </trkpt>
      <trkpt lat="44.39112" lon="6.06662">
        <ele>1334</ele>
        <time>2021-03-07T14:11:46.000Z</time>
      </trkpt>
      <trkpt lat="44.39112" lon="6.06661">
        <ele>1335</ele>
        <time>2021-03-07T14:12:05.000Z</time>
      </trkpt>
      <trkpt lat="44.39112" lon="6.0666">
        <ele>1335</ele>
        <time>2021-03-07T14:12:07.000Z</time>
      </trkpt>
      <trkpt lat="44.39112" lon="6.0666">
        <ele>1334.8000488281</ele>
        <time>2021-03-07T14:12:26.000Z</time>
      </trkpt>
      <trkpt lat="44.39112" lon="6.0666">
        <ele>1335</ele>
        <time>2021-03-07T14:12:47.000Z</time>
      </trkpt>
      <trkpt lat="44.39114" lon="6.06663">
        <ele>1334.8000488281</ele>
        <time>2021-03-07T14:12:56.000Z</time>
      </trkpt>
      <trkpt lat="44.39114" lon="6.06664">
        <ele>1335.4000244141</ele>
        <time>2021-03-07T14:13:03.000Z</time>
      </trkpt>
      <trkpt lat="44.39113" lon="6.06664">
        <ele>1335.4000244141</ele>
        <time>2021-03-07T14:13:10.000Z</time>
      </trkpt>
      <trkpt lat="44.39113" lon="6.06665">
        <ele>1335.5999755859</ele>
        <time>2021-03-07T14:13:31.000Z</time>
      </trkpt>
      <trkpt lat="44.39113" lon="6.06665">
        <ele>1335.5999755859</ele>
        <time>2021-03-07T14:13:47.000Z</time>
      </trkpt>
      <trkpt lat="44.39113" lon="6.06665">
        <ele>1335.5999755859</ele>
        <time>2021-03-07T14:14:03.000Z</time>
      </trkpt>
      <trkpt lat="44.39113" lon="6.06665">
        <ele>1335.5999755859</ele>
        <time>2021-03-07T14:14:14.000Z</time>
      </trkpt>
      <trkpt lat="44.39112" lon="6.06665">
        <ele>1335.5999755859</ele>
        <time>2021-03-07T14:14:22.000Z</time>
      </trkpt>
      <trkpt lat="44.39113" lon="6.06669">
        <ele>1336</ele>
        <time>2021-03-07T14:14:37.000Z</time>
      </trkpt>
      <trkpt lat="44.39117" lon="6.06676">
        <ele>1336.4000244141</ele>
        <time>2021-03-07T14:14:43.000Z</time>
      </trkpt>
      <trkpt lat="44.39119" lon="6.06678">
        <ele>1336.5999755859</ele>
        <time>2021-03-07T14:14:45.000Z</time>
      </trkpt>
      <trkpt lat="44.3912" lon="6.0668">
        <ele>1337</ele>
        <time>2021-03-07T14:14:46.000Z</time>
      </trkpt>
      <trkpt lat="44.39123" lon="6.06684">
        <ele>1337.8000488281</ele>
        <time>2021-03-07T14:14:49.000Z</time>
      </trkpt>
      <trkpt lat="44.39129" lon="6.06689">
        <ele>1339</ele>
        <time>2021-03-07T14:14:53.000Z</time>
      </trkpt>
      <trkpt lat="44.39131" lon="6.06691">
        <ele>1340</ele>
        <time>2021-03-07T14:14:55.000Z</time>
      </trkpt>
      <trkpt lat="44.39133" lon="6.06693">
        <ele>1340.1999511719</ele>
        <time>2021-03-07T14:14:56.000Z</time>
      </trkpt>
      <trkpt lat="44.39138" lon="6.06699">
        <ele>1340.8000488281</ele>
        <time>2021-03-07T14:15:00.000Z</time>
      </trkpt>
      <trkpt lat="44.39143" lon="6.06704">
        <ele>1342</ele>
        <time>2021-03-07T14:15:04.000Z</time>
      </trkpt>
      <trkpt lat="44.39145" lon="6.06706">
        <ele>1342.4000244141</ele>
        <time>2021-03-07T14:15:06.000Z</time>
      </trkpt>
      <trkpt lat="44.39148" lon="6.06708">
        <ele>1343</ele>
        <time>2021-03-07T14:15:08.000Z</time>
      </trkpt>
      <trkpt lat="44.39153" lon="6.0671">
        <ele>1344.1999511719</ele>
        <time>2021-03-07T14:15:11.000Z</time>
      </trkpt>
      <trkpt lat="44.3916" lon="6.06712">
        <ele>1345</ele>
        <time>2021-03-07T14:15:15.000Z</time>
      </trkpt>
      <trkpt lat="44.39163" lon="6.06714">
        <ele>1345.4000244141</ele>
        <time>2021-03-07T14:15:17.000Z</time>
      </trkpt>
      <trkpt lat="44.39169" lon="6.06719">
        <ele>1346.5999755859</ele>
        <time>2021-03-07T14:15:21.000Z</time>
      </trkpt>
      <trkpt lat="44.39171" lon="6.06721">
        <ele>1347</ele>
        <time>2021-03-07T14:15:22.000Z</time>
      </trkpt>
      <trkpt lat="44.39175" lon="6.06726">
        <ele>1347.4000244141</ele>
        <time>2021-03-07T14:15:25.000Z</time>
      </trkpt>
      <trkpt lat="44.39181" lon="6.06733">
        <ele>1348.4000244141</ele>
        <time>2021-03-07T14:15:30.000Z</time>
      </trkpt>
      <trkpt lat="44.39182" lon="6.06734">
        <ele>1348.5999755859</ele>
        <time>2021-03-07T14:15:31.000Z</time>
      </trkpt>
      <trkpt lat="44.39187" lon="6.06738">
        <ele>1349.8000488281</ele>
        <time>2021-03-07T14:15:35.000Z</time>
      </trkpt>
      <trkpt lat="44.3919" lon="6.06742">
        <ele>1350.1999511719</ele>
        <time>2021-03-07T14:15:38.000Z</time>
      </trkpt>
      <trkpt lat="44.39192" lon="6.06747">
        <ele>1350.4000244141</ele>
        <time>2021-03-07T14:15:41.000Z</time>
      </trkpt>
      <trkpt lat="44.39197" lon="6.06756">
        <ele>1350.8000488281</ele>
        <time>2021-03-07T14:15:45.000Z</time>
      </trkpt>
      <trkpt lat="44.392" lon="6.06762">
        <ele>1351</ele>
        <time>2021-03-07T14:15:47.000Z</time>
      </trkpt>
      <trkpt lat="44.39208" lon="6.06772">
        <ele>1352</ele>
        <time>2021-03-07T14:15:52.000Z</time>
      </trkpt>
      <trkpt lat="44.39215" lon="6.0678">
        <ele>1352.4000244141</ele>
        <time>2021-03-07T14:15:56.000Z</time>
      </trkpt>
      <trkpt lat="44.39219" lon="6.06784">
        <ele>1353</ele>
        <time>2021-03-07T14:15:58.000Z</time>
      </trkpt>
      <trkpt lat="44.39228" lon="6.06796">
        <ele>1353</ele>
        <time>2021-03-07T14:16:02.000Z</time>
      </trkpt>
      <trkpt lat="44.39236" lon="6.06809">
        <ele>1353</ele>
        <time>2021-03-07T14:16:07.000Z</time>
      </trkpt>
      <trkpt lat="44.39247" lon="6.0683">
        <ele>1352.5999755859</ele>
        <time>2021-03-07T14:16:13.000Z</time>
      </trkpt>
      <trkpt lat="44.39255" lon="6.0685">
        <ele>1351.4000244141</ele>
        <time>2021-03-07T14:16:18.000Z</time>
      </trkpt>
      <trkpt lat="44.39257" lon="6.06853">
        <ele>1351.1999511719</ele>
        <time>2021-03-07T14:16:19.000Z</time>
      </trkpt>
      <trkpt lat="44.39261" lon="6.06869">
        <ele>1350.5999755859</ele>
        <time>2021-03-07T14:16:23.000Z</time>
      </trkpt>
      <trkpt lat="44.39263" lon="6.06873">
        <ele>1350.4000244141</ele>
        <time>2021-03-07T14:16:24.000Z</time>
      </trkpt>
      <trkpt lat="44.39271" lon="6.06888">
        <ele>1350.4000244141</ele>
        <time>2021-03-07T14:16:27.000Z</time>
      </trkpt>
      <trkpt lat="44.39289" lon="6.06913">
        <ele>1350.4000244141</ele>
        <time>2021-03-07T14:16:33.000Z</time>
      </trkpt>
      <trkpt lat="44.39293" lon="6.06918">
        <ele>1350.1999511719</ele>
        <time>2021-03-07T14:16:34.000Z</time>
      </trkpt>
      <trkpt lat="44.39306" lon="6.0693">
        <ele>1350</ele>
        <time>2021-03-07T14:16:37.000Z</time>
      </trkpt>
      <trkpt lat="44.39309" lon="6.06932">
        <ele>1350</ele>
        <time>2021-03-07T14:16:38.000Z</time>
      </trkpt>
      <trkpt lat="44.39325" lon="6.06945">
        <ele>1349.1999511719</ele>
        <time>2021-03-07T14:16:42.000Z</time>
      </trkpt>
      <trkpt lat="44.39328" lon="6.06949">
        <ele>1349</ele>
        <time>2021-03-07T14:16:43.000Z</time>
      </trkpt>
      <trkpt lat="44.39335" lon="6.06957">
        <ele>1348.4000244141</ele>
        <time>2021-03-07T14:16:45.000Z</time>
      </trkpt>
      <trkpt lat="44.39349" lon="6.06969">
        <ele>1347.8000488281</ele>
        <time>2021-03-07T14:16:48.000Z</time>
      </trkpt>
      <trkpt lat="44.39359" lon="6.06978">
        <ele>1347.5999755859</ele>
        <time>2021-03-07T14:16:50.000Z</time>
      </trkpt>
      <trkpt lat="44.39363" lon="6.06983">
        <ele>1347.4000244141</ele>
        <time>2021-03-07T14:16:51.000Z</time>
      </trkpt>
      <trkpt lat="44.3937" lon="6.06994">
        <ele>1347</ele>
        <time>2021-03-07T14:16:53.000Z</time>
      </trkpt>
      <trkpt lat="44.39381" lon="6.07009">
        <ele>1346.1999511719</ele>
        <time>2021-03-07T14:16:56.000Z</time>
      </trkpt>
      <trkpt lat="44.39385" lon="6.07012">
        <ele>1346</ele>
        <time>2021-03-07T14:16:57.000Z</time>
      </trkpt>
      <trkpt lat="44.39394" lon="6.0702">
        <ele>1344.8000488281</ele>
        <time>2021-03-07T14:16:59.000Z</time>
      </trkpt>
      <trkpt lat="44.394" lon="6.07028">
        <ele>1343.4000244141</ele>
        <time>2021-03-07T14:17:01.000Z</time>
      </trkpt>
      <trkpt lat="44.39407" lon="6.07036">
        <ele>1342.4000244141</ele>
        <time>2021-03-07T14:17:03.000Z</time>
      </trkpt>
      <trkpt lat="44.39414" lon="6.0704">
        <ele>1341</ele>
        <time>2021-03-07T14:17:05.000Z</time>
      </trkpt>
      <trkpt lat="44.39423" lon="6.07043">
        <ele>1340.5999755859</ele>
        <time>2021-03-07T14:17:08.000Z</time>
      </trkpt>
      <trkpt lat="44.39426" lon="6.07041">
        <ele>1340.5999755859</ele>
        <time>2021-03-07T14:17:10.000Z</time>
      </trkpt>
      <trkpt lat="44.39421" lon="6.07042">
        <ele>1340.5999755859</ele>
        <time>2021-03-07T14:17:13.000Z</time>
      </trkpt>
      <trkpt lat="44.39421" lon="6.07046">
        <ele>1341</ele>
        <time>2021-03-07T14:17:16.000Z</time>
      </trkpt>
      <trkpt lat="44.39422" lon="6.07046">
        <ele>1341</ele>
        <time>2021-03-07T14:17:25.000Z</time>
      </trkpt>
      <trkpt lat="44.39422" lon="6.07047">
        <ele>1341</ele>
        <time>2021-03-07T14:17:43.000Z</time>
      </trkpt>
      <trkpt lat="44.39421" lon="6.07048">
        <ele>1340.8000488281</ele>
        <time>2021-03-07T14:18:02.000Z</time>
      </trkpt>
      <trkpt lat="44.39421" lon="6.07053">
        <ele>1341</ele>
        <time>2021-03-07T14:18:05.000Z</time>
      </trkpt>
      <trkpt lat="44.39423" lon="6.07054">
        <ele>1341</ele>
        <time>2021-03-07T14:18:07.000Z</time>
      </trkpt>
      <trkpt lat="44.39423" lon="6.07055">
        <ele>1340.8000488281</ele>
        <time>2021-03-07T14:18:21.000Z</time>
      </trkpt>
      <trkpt lat="44.39424" lon="6.07058">
        <ele>1340.8000488281</ele>
        <time>2021-03-07T14:18:46.000Z</time>
      </trkpt>
      <trkpt lat="44.39425" lon="6.07061">
        <ele>1340.8000488281</ele>
        <time>2021-03-07T14:18:51.000Z</time>
      </trkpt>
      <trkpt lat="44.39426" lon="6.07061">
        <ele>1341.4000244141</ele>
        <time>2021-03-07T14:19:13.000Z</time>
      </trkpt>
      <trkpt lat="44.39426" lon="6.07064">
        <ele>1341.1999511719</ele>
        <time>2021-03-07T14:19:23.000Z</time>
      </trkpt>
      <trkpt lat="44.3943" lon="6.07079">
        <ele>1341.1999511719</ele>
        <time>2021-03-07T14:19:29.000Z</time>
      </trkpt>
      <trkpt lat="44.39443" lon="6.07099">
        <ele>1341.4000244141</ele>
        <time>2021-03-07T14:19:36.000Z</time>
      </trkpt>
      <trkpt lat="44.39458" lon="6.07112">
        <ele>1341.1999511719</ele>
        <time>2021-03-07T14:19:41.000Z</time>
      </trkpt>
      <trkpt lat="44.3947" lon="6.07124">
        <ele>1341.4000244141</ele>
        <time>2021-03-07T14:19:47.000Z</time>
      </trkpt>
      <trkpt lat="44.39479" lon="6.07141">
        <ele>1342.1999511719</ele>
        <time>2021-03-07T14:19:53.000Z</time>
      </trkpt>
      <trkpt lat="44.39483" lon="6.07152">
        <ele>1343</ele>
        <time>2021-03-07T14:19:56.000Z</time>
      </trkpt>
      <trkpt lat="44.39488" lon="6.07159">
        <ele>1343.1999511719</ele>
        <time>2021-03-07T14:19:58.000Z</time>
      </trkpt>
      <trkpt lat="44.39493" lon="6.07176">
        <ele>1343.8000488281</ele>
        <time>2021-03-07T14:20:03.000Z</time>
      </trkpt>
      <trkpt lat="44.39497" lon="6.07189">
        <ele>1344.1999511719</ele>
        <time>2021-03-07T14:20:06.000Z</time>
      </trkpt>
      <trkpt lat="44.39502" lon="6.07197">
        <ele>1345</ele>
        <time>2021-03-07T14:20:08.000Z</time>
      </trkpt>
      <trkpt lat="44.3951" lon="6.07206">
        <ele>1345.4000244141</ele>
        <time>2021-03-07T14:20:11.000Z</time>
      </trkpt>
      <trkpt lat="44.39516" lon="6.07208">
        <ele>1345.4000244141</ele>
        <time>2021-03-07T14:20:13.000Z</time>
      </trkpt>
      <trkpt lat="44.39527" lon="6.07216">
        <ele>1346.4000244141</ele>
        <time>2021-03-07T14:20:18.000Z</time>
      </trkpt>
      <trkpt lat="44.39528" lon="6.07219">
        <ele>1346.8000488281</ele>
        <time>2021-03-07T14:20:19.000Z</time>
      </trkpt>
      <trkpt lat="44.39532" lon="6.07229">
        <ele>1347.8000488281</ele>
        <time>2021-03-07T14:20:22.000Z</time>
      </trkpt>
      <trkpt lat="44.39535" lon="6.07232">
        <ele>1348.8000488281</ele>
        <time>2021-03-07T14:20:23.000Z</time>
      </trkpt>
      <trkpt lat="44.39537" lon="6.07234">
        <ele>1349</ele>
        <time>2021-03-07T14:20:24.000Z</time>
      </trkpt>
      <trkpt lat="44.39543" lon="6.07247">
        <ele>1349.1999511719</ele>
        <time>2021-03-07T14:20:27.000Z</time>
      </trkpt>
      <trkpt lat="44.39546" lon="6.07261">
        <ele>1349.1999511719</ele>
        <time>2021-03-07T14:20:30.000Z</time>
      </trkpt>
      <trkpt lat="44.39546" lon="6.07265">
        <ele>1349.1999511719</ele>
        <time>2021-03-07T14:20:31.000Z</time>
      </trkpt>
      <trkpt lat="44.39545" lon="6.07283">
        <ele>1348.8000488281</ele>
        <time>2021-03-07T14:20:34.000Z</time>
      </trkpt>
      <trkpt lat="44.39548" lon="6.07293">
        <ele>1348.1999511719</ele>
        <time>2021-03-07T14:20:36.000Z</time>
      </trkpt>
      <trkpt lat="44.39552" lon="6.07299">
        <ele>1347.8000488281</ele>
        <time>2021-03-07T14:20:37.000Z</time>
      </trkpt>
      <trkpt lat="44.39563" lon="6.07309">
        <ele>1346.5999755859</ele>
        <time>2021-03-07T14:20:40.000Z</time>
      </trkpt>
      <trkpt lat="44.39566" lon="6.07311">
        <ele>1345.5999755859</ele>
        <time>2021-03-07T14:20:41.000Z</time>
      </trkpt>
      <trkpt lat="44.39571" lon="6.07311">
        <ele>1344.8000488281</ele>
        <time>2021-03-07T14:20:42.000Z</time>
      </trkpt>
      <trkpt lat="44.39581" lon="6.07309">
        <ele>1343.4000244141</ele>
        <time>2021-03-07T14:20:44.000Z</time>
      </trkpt>
      <trkpt lat="44.39585" lon="6.07308">
        <ele>1342.8000488281</ele>
        <time>2021-03-07T14:20:45.000Z</time>
      </trkpt>
      <trkpt lat="44.39589" lon="6.07306">
        <ele>1342</ele>
        <time>2021-03-07T14:20:46.000Z</time>
      </trkpt>
      <trkpt lat="44.39597" lon="6.07304">
        <ele>1340.4000244141</ele>
        <time>2021-03-07T14:20:48.000Z</time>
      </trkpt>
      <trkpt lat="44.396" lon="6.07301">
        <ele>1339.8000488281</ele>
        <time>2021-03-07T14:20:49.000Z</time>
      </trkpt>
      <trkpt lat="44.39605" lon="6.07299">
        <ele>1337.5999755859</ele>
        <time>2021-03-07T14:20:50.000Z</time>
      </trkpt>
      <trkpt lat="44.39609" lon="6.07296">
        <ele>1336.4000244141</ele>
        <time>2021-03-07T14:20:51.000Z</time>
      </trkpt>
      <trkpt lat="44.39618" lon="6.07289">
        <ele>1334.4000244141</ele>
        <time>2021-03-07T14:20:53.000Z</time>
      </trkpt>
      <trkpt lat="44.39623" lon="6.07285">
        <ele>1333.4000244141</ele>
        <time>2021-03-07T14:20:54.000Z</time>
      </trkpt>
      <trkpt lat="44.39627" lon="6.0728">
        <ele>1332.1999511719</ele>
        <time>2021-03-07T14:20:55.000Z</time>
      </trkpt>
      <trkpt lat="44.3963" lon="6.07277">
        <ele>1331</ele>
        <time>2021-03-07T14:20:56.000Z</time>
      </trkpt>
      <trkpt lat="44.39631" lon="6.07274">
        <ele>1329.8000488281</ele>
        <time>2021-03-07T14:20:57.000Z</time>
      </trkpt>
      <trkpt lat="44.39633" lon="6.07273">
        <ele>1328.5999755859</ele>
        <time>2021-03-07T14:20:58.000Z</time>
      </trkpt>
      <trkpt lat="44.39635" lon="6.07276">
        <ele>1326.5999755859</ele>
        <time>2021-03-07T14:21:00.000Z</time>
      </trkpt>
      <trkpt lat="44.39635" lon="6.07279">
        <ele>1325.8000488281</ele>
        <time>2021-03-07T14:21:01.000Z</time>
      </trkpt>
      <trkpt lat="44.39635" lon="6.07284">
        <ele>1324.4000244141</ele>
        <time>2021-03-07T14:21:02.000Z</time>
      </trkpt>
      <trkpt lat="44.39634" lon="6.07291">
        <ele>1323.1999511719</ele>
        <time>2021-03-07T14:21:03.000Z</time>
      </trkpt>
      <trkpt lat="44.39634" lon="6.07301">
        <ele>1322.4000244141</ele>
        <time>2021-03-07T14:21:05.000Z</time>
      </trkpt>
      <trkpt lat="44.39634" lon="6.07303">
        <ele>1322</ele>
        <time>2021-03-07T14:21:06.000Z</time>
      </trkpt>
      <trkpt lat="44.39637" lon="6.07305">
        <ele>1321.1999511719</ele>
        <time>2021-03-07T14:21:08.000Z</time>
      </trkpt>
      <trkpt lat="44.39644" lon="6.07304">
        <ele>1319.4000244141</ele>
        <time>2021-03-07T14:21:10.000Z</time>
      </trkpt>
      <trkpt lat="44.39649" lon="6.07303">
        <ele>1318.5999755859</ele>
        <time>2021-03-07T14:21:11.000Z</time>
      </trkpt>
      <trkpt lat="44.39653" lon="6.07302">
        <ele>1317.5999755859</ele>
        <time>2021-03-07T14:21:12.000Z</time>
      </trkpt>
      <trkpt lat="44.39659" lon="6.07301">
        <ele>1316</ele>
        <time>2021-03-07T14:21:14.000Z</time>
      </trkpt>
      <trkpt lat="44.39662" lon="6.07303">
        <ele>1315.4000244141</ele>
        <time>2021-03-07T14:21:15.000Z</time>
      </trkpt>
      <trkpt lat="44.39665" lon="6.07307">
        <ele>1314.8000488281</ele>
        <time>2021-03-07T14:21:16.000Z</time>
      </trkpt>
      <trkpt lat="44.39669" lon="6.07312">
        <ele>1313.1999511719</ele>
        <time>2021-03-07T14:21:17.000Z</time>
      </trkpt>
      <trkpt lat="44.39672" lon="6.07318">
        <ele>1311.8000488281</ele>
        <time>2021-03-07T14:21:18.000Z</time>
      </trkpt>
      <trkpt lat="44.39674" lon="6.07325">
        <ele>1310.4000244141</ele>
        <time>2021-03-07T14:21:19.000Z</time>
      </trkpt>
      <trkpt lat="44.39677" lon="6.07331">
        <ele>1309</ele>
        <time>2021-03-07T14:21:20.000Z</time>
      </trkpt>
      <trkpt lat="44.3968" lon="6.07335">
        <ele>1307.8000488281</ele>
        <time>2021-03-07T14:21:21.000Z</time>
      </trkpt>
      <trkpt lat="44.39685" lon="6.07338">
        <ele>1306.8000488281</ele>
        <time>2021-03-07T14:21:22.000Z</time>
      </trkpt>
      <trkpt lat="44.39688" lon="6.07343">
        <ele>1305.8000488281</ele>
        <time>2021-03-07T14:21:23.000Z</time>
      </trkpt>
      <trkpt lat="44.3969" lon="6.0735">
        <ele>1304.4000244141</ele>
        <time>2021-03-07T14:21:24.000Z</time>
      </trkpt>
      <trkpt lat="44.39693" lon="6.07358">
        <ele>1302.8000488281</ele>
        <time>2021-03-07T14:21:25.000Z</time>
      </trkpt>
      <trkpt lat="44.39697" lon="6.07366">
        <ele>1300.8000488281</ele>
        <time>2021-03-07T14:21:26.000Z</time>
      </trkpt>
      <trkpt lat="44.39701" lon="6.07372">
        <ele>1299.4000244141</ele>
        <time>2021-03-07T14:21:27.000Z</time>
      </trkpt>
      <trkpt lat="44.39705" lon="6.07378">
        <ele>1298.1999511719</ele>
        <time>2021-03-07T14:21:28.000Z</time>
      </trkpt>
      <trkpt lat="44.39708" lon="6.07384">
        <ele>1296.8000488281</ele>
        <time>2021-03-07T14:21:29.000Z</time>
      </trkpt>
      <trkpt lat="44.3971" lon="6.0739">
        <ele>1295.4000244141</ele>
        <time>2021-03-07T14:21:30.000Z</time>
      </trkpt>
      <trkpt lat="44.39712" lon="6.07396">
        <ele>1294.1999511719</ele>
        <time>2021-03-07T14:21:31.000Z</time>
      </trkpt>
      <trkpt lat="44.39715" lon="6.07402">
        <ele>1293</ele>
        <time>2021-03-07T14:21:32.000Z</time>
      </trkpt>
      <trkpt lat="44.39719" lon="6.07408">
        <ele>1291.5999755859</ele>
        <time>2021-03-07T14:21:33.000Z</time>
      </trkpt>
      <trkpt lat="44.39723" lon="6.07413">
        <ele>1290.4000244141</ele>
        <time>2021-03-07T14:21:34.000Z</time>
      </trkpt>
      <trkpt lat="44.39727" lon="6.07418">
        <ele>1289.1999511719</ele>
        <time>2021-03-07T14:21:35.000Z</time>
      </trkpt>
      <trkpt lat="44.39733" lon="6.07423">
        <ele>1288</ele>
        <time>2021-03-07T14:21:36.000Z</time>
      </trkpt>
      <trkpt lat="44.39737" lon="6.07427">
        <ele>1286.8000488281</ele>
        <time>2021-03-07T14:21:37.000Z</time>
      </trkpt>
      <trkpt lat="44.39742" lon="6.07431">
        <ele>1286</ele>
        <time>2021-03-07T14:21:38.000Z</time>
      </trkpt>
      <trkpt lat="44.39748" lon="6.07433">
        <ele>1285.4000244141</ele>
        <time>2021-03-07T14:21:39.000Z</time>
      </trkpt>
      <trkpt lat="44.39753" lon="6.07434">
        <ele>1285</ele>
        <time>2021-03-07T14:21:40.000Z</time>
      </trkpt>
      <trkpt lat="44.39765" lon="6.07434">
        <ele>1284.1999511719</ele>
        <time>2021-03-07T14:21:42.000Z</time>
      </trkpt>
      <trkpt lat="44.39774" lon="6.07432">
        <ele>1282.4000244141</ele>
        <time>2021-03-07T14:21:44.000Z</time>
      </trkpt>
      <trkpt lat="44.39778" lon="6.07433">
        <ele>1281.8000488281</ele>
        <time>2021-03-07T14:21:45.000Z</time>
      </trkpt>
      <trkpt lat="44.39784" lon="6.07437">
        <ele>1281.1999511719</ele>
        <time>2021-03-07T14:21:47.000Z</time>
      </trkpt>
      <trkpt lat="44.39786" lon="6.0744">
        <ele>1280.5999755859</ele>
        <time>2021-03-07T14:21:49.000Z</time>
      </trkpt>
      <trkpt lat="44.39787" lon="6.0744">
        <ele>1280.4000244141</ele>
        <time>2021-03-07T14:21:51.000Z</time>
      </trkpt>
      <trkpt lat="44.39788" lon="6.07441">
        <ele>1280.1999511719</ele>
        <time>2021-03-07T14:22:05.000Z</time>
      </trkpt>
      <trkpt lat="44.39788" lon="6.07441">
        <ele>1280.1999511719</ele>
        <time>2021-03-07T14:22:25.000Z</time>
      </trkpt>
      <trkpt lat="44.39788" lon="6.07441">
        <ele>1280.1999511719</ele>
        <time>2021-03-07T14:22:50.000Z</time>
      </trkpt>
      <trkpt lat="44.39789" lon="6.07441">
        <ele>1280</ele>
        <time>2021-03-07T14:23:33.000Z</time>
      </trkpt>
      <trkpt lat="44.39789" lon="6.07441">
        <ele>1280.5999755859</ele>
        <time>2021-03-07T14:24:07.000Z</time>
      </trkpt>
      <trkpt lat="44.39789" lon="6.07441">
        <ele>1280.4000244141</ele>
        <time>2021-03-07T14:24:42.000Z</time>
      </trkpt>
      <trkpt lat="44.39789" lon="6.07441">
        <ele>1280.4000244141</ele>
        <time>2021-03-07T14:25:08.000Z</time>
      </trkpt>
      <trkpt lat="44.39789" lon="6.07441">
        <ele>1280.1999511719</ele>
        <time>2021-03-07T14:26:01.000Z</time>
      </trkpt>
      <trkpt lat="44.39789" lon="6.07441">
        <ele>1280.4000244141</ele>
        <time>2021-03-07T14:26:27.000Z</time>
      </trkpt>
      <trkpt lat="44.39793" lon="6.07446">
        <ele>1280.4000244141</ele>
        <time>2021-03-07T14:26:36.000Z</time>
      </trkpt>
      <trkpt lat="44.39805" lon="6.07455">
        <ele>1280.4000244141</ele>
        <time>2021-03-07T14:26:41.000Z</time>
      </trkpt>
      <trkpt lat="44.39811" lon="6.07462">
        <ele>1280.1999511719</ele>
        <time>2021-03-07T14:26:43.000Z</time>
      </trkpt>
      <trkpt lat="44.39813" lon="6.07468">
        <ele>1280</ele>
        <time>2021-03-07T14:26:44.000Z</time>
      </trkpt>
      <trkpt lat="44.39816" lon="6.07474">
        <ele>1279.8000488281</ele>
        <time>2021-03-07T14:26:45.000Z</time>
      </trkpt>
      <trkpt lat="44.39818" lon="6.0748">
        <ele>1279.8000488281</ele>
        <time>2021-03-07T14:26:46.000Z</time>
      </trkpt>
      <trkpt lat="44.39827" lon="6.07495">
        <ele>1279.5999755859</ele>
        <time>2021-03-07T14:26:49.000Z</time>
      </trkpt>
      <trkpt lat="44.39834" lon="6.07509">
        <ele>1279.5999755859</ele>
        <time>2021-03-07T14:26:52.000Z</time>
      </trkpt>
      <trkpt lat="44.39848" lon="6.07538">
        <ele>1279.5999755859</ele>
        <time>2021-03-07T14:26:57.000Z</time>
      </trkpt>
      <trkpt lat="44.3985" lon="6.07544">
        <ele>1279.8000488281</ele>
        <time>2021-03-07T14:26:58.000Z</time>
      </trkpt>
      <trkpt lat="44.39861" lon="6.07558">
        <ele>1280.1999511719</ele>
        <time>2021-03-07T14:27:01.000Z</time>
      </trkpt>
      <trkpt lat="44.39869" lon="6.07565">
        <ele>1280.4000244141</ele>
        <time>2021-03-07T14:27:03.000Z</time>
      </trkpt>
      <trkpt lat="44.39874" lon="6.0757">
        <ele>1280.5999755859</ele>
        <time>2021-03-07T14:27:05.000Z</time>
      </trkpt>
      <trkpt lat="44.39877" lon="6.07571">
        <ele>1281</ele>
        <time>2021-03-07T14:27:09.000Z</time>
      </trkpt>
      <trkpt lat="44.39877" lon="6.07572">
        <ele>1281.1999511719</ele>
        <time>2021-03-07T14:27:10.000Z</time>
      </trkpt>
      <trkpt lat="44.39879" lon="6.07571">
        <ele>1281.8000488281</ele>
        <time>2021-03-07T14:27:18.000Z</time>
      </trkpt>
      <trkpt lat="44.39886" lon="6.07577">
        <ele>1282</ele>
        <time>2021-03-07T14:27:22.000Z</time>
      </trkpt>
      <trkpt lat="44.399" lon="6.07594">
        <ele>1281.4000244141</ele>
        <time>2021-03-07T14:27:27.000Z</time>
      </trkpt>
      <trkpt lat="44.39909" lon="6.07621">
        <ele>1281.4000244141</ele>
        <time>2021-03-07T14:27:33.000Z</time>
      </trkpt>
      <trkpt lat="44.39911" lon="6.07624">
        <ele>1281.1999511719</ele>
        <time>2021-03-07T14:27:34.000Z</time>
      </trkpt>
      <trkpt lat="44.39919" lon="6.07634">
        <ele>1281.4000244141</ele>
        <time>2021-03-07T14:27:37.000Z</time>
      </trkpt>
      <trkpt lat="44.39921" lon="6.0764">
        <ele>1281.4000244141</ele>
        <time>2021-03-07T14:27:39.000Z</time>
      </trkpt>
      <trkpt lat="44.39922" lon="6.07643">
        <ele>1281.4000244141</ele>
        <time>2021-03-07T14:27:40.000Z</time>
      </trkpt>
      <trkpt lat="44.39922" lon="6.07645">
        <ele>1281.4000244141</ele>
        <time>2021-03-07T14:27:41.000Z</time>
      </trkpt>
      <trkpt lat="44.39929" lon="6.07663">
        <ele>1281.4000244141</ele>
        <time>2021-03-07T14:27:46.000Z</time>
      </trkpt>
      <trkpt lat="44.3993" lon="6.07668">
        <ele>1281.4000244141</ele>
        <time>2021-03-07T14:27:47.000Z</time>
      </trkpt>
      <trkpt lat="44.39937" lon="6.07695">
        <ele>1281</ele>
        <time>2021-03-07T14:27:52.000Z</time>
      </trkpt>
      <trkpt lat="44.3994" lon="6.07713">
        <ele>1280.1999511719</ele>
        <time>2021-03-07T14:27:55.000Z</time>
      </trkpt>
      <trkpt lat="44.39944" lon="6.07723">
        <ele>1279.8000488281</ele>
        <time>2021-03-07T14:27:57.000Z</time>
      </trkpt>
      <trkpt lat="44.39952" lon="6.07745">
        <ele>1279</ele>
        <time>2021-03-07T14:28:01.000Z</time>
      </trkpt>
      <trkpt lat="44.39954" lon="6.07748">
        <ele>1278.8000488281</ele>
        <time>2021-03-07T14:28:02.000Z</time>
      </trkpt>
      <trkpt lat="44.39955" lon="6.07751">
        <ele>1278.5999755859</ele>
        <time>2021-03-07T14:28:03.000Z</time>
      </trkpt>
      <trkpt lat="44.39956" lon="6.07756">
        <ele>1278.1999511719</ele>
        <time>2021-03-07T14:28:06.000Z</time>
      </trkpt>
      <trkpt lat="44.39961" lon="6.07775">
        <ele>1278.1999511719</ele>
        <time>2021-03-07T14:28:11.000Z</time>
      </trkpt>
      <trkpt lat="44.39963" lon="6.07791">
        <ele>1278.1999511719</ele>
        <time>2021-03-07T14:28:16.000Z</time>
      </trkpt>
      <trkpt lat="44.39964" lon="6.07798">
        <ele>1278.1999511719</ele>
        <time>2021-03-07T14:28:18.000Z</time>
      </trkpt>
      <trkpt lat="44.39967" lon="6.07813">
        <ele>1278.4000244141</ele>
        <time>2021-03-07T14:28:21.000Z</time>
      </trkpt>
      <trkpt lat="44.39968" lon="6.07817">
        <ele>1278.4000244141</ele>
        <time>2021-03-07T14:28:22.000Z</time>
      </trkpt>
      <trkpt lat="44.39974" lon="6.07834">
        <ele>1278.5999755859</ele>
        <time>2021-03-07T14:28:26.000Z</time>
      </trkpt>
      <trkpt lat="44.39977" lon="6.07858">
        <ele>1279.5999755859</ele>
        <time>2021-03-07T14:28:31.000Z</time>
      </trkpt>
      <trkpt lat="44.39978" lon="6.07863">
        <ele>1280.1999511719</ele>
        <time>2021-03-07T14:28:32.000Z</time>
      </trkpt>
      <trkpt lat="44.39977" lon="6.07878">
        <ele>1282</ele>
        <time>2021-03-07T14:28:35.000Z</time>
      </trkpt>
      <trkpt lat="44.39975" lon="6.07882">
        <ele>1282.4000244141</ele>
        <time>2021-03-07T14:28:36.000Z</time>
      </trkpt>
      <trkpt lat="44.39973" lon="6.07891">
        <ele>1283.1999511719</ele>
        <time>2021-03-07T14:28:38.000Z</time>
      </trkpt>
      <trkpt lat="44.39974" lon="6.07902">
        <ele>1284</ele>
        <time>2021-03-07T14:28:40.000Z</time>
      </trkpt>
      <trkpt lat="44.39977" lon="6.0791">
        <ele>1284.4000244141</ele>
        <time>2021-03-07T14:28:42.000Z</time>
      </trkpt>
      <trkpt lat="44.39983" lon="6.07917">
        <ele>1284.5999755859</ele>
        <time>2021-03-07T14:28:44.000Z</time>
      </trkpt>
      <trkpt lat="44.39987" lon="6.07925">
        <ele>1284.5999755859</ele>
        <time>2021-03-07T14:28:46.000Z</time>
      </trkpt>
      <trkpt lat="44.39987" lon="6.0793">
        <ele>1284.5999755859</ele>
        <time>2021-03-07T14:28:47.000Z</time>
      </trkpt>
      <trkpt lat="44.39992" lon="6.0794">
        <ele>1284.5999755859</ele>
        <time>2021-03-07T14:28:50.000Z</time>
      </trkpt>
      <trkpt lat="44.39995" lon="6.0795">
        <ele>1284.5999755859</ele>
        <time>2021-03-07T14:28:53.000Z</time>
      </trkpt>
      <trkpt lat="44.40004" lon="6.07953">
        <ele>1284.1999511719</ele>
        <time>2021-03-07T14:28:56.000Z</time>
      </trkpt>
      <trkpt lat="44.4001" lon="6.07956">
        <ele>1283.5999755859</ele>
        <time>2021-03-07T14:28:58.000Z</time>
      </trkpt>
      <trkpt lat="44.40012" lon="6.0796">
        <ele>1283.1999511719</ele>
        <time>2021-03-07T14:28:59.000Z</time>
      </trkpt>
      <trkpt lat="44.4002" lon="6.07965">
        <ele>1282.1999511719</ele>
        <time>2021-03-07T14:29:01.000Z</time>
      </trkpt>
      <trkpt lat="44.40025" lon="6.07967">
        <ele>1281</ele>
        <time>2021-03-07T14:29:02.000Z</time>
      </trkpt>
      <trkpt lat="44.40032" lon="6.07974">
        <ele>1279.5999755859</ele>
        <time>2021-03-07T14:29:04.000Z</time>
      </trkpt>
      <trkpt lat="44.40034" lon="6.07979">
        <ele>1279</ele>
        <time>2021-03-07T14:29:05.000Z</time>
      </trkpt>
      <trkpt lat="44.40038" lon="6.07982">
        <ele>1278.4000244141</ele>
        <time>2021-03-07T14:29:06.000Z</time>
      </trkpt>
      <trkpt lat="44.40042" lon="6.07984">
        <ele>1277.1999511719</ele>
        <time>2021-03-07T14:29:07.000Z</time>
      </trkpt>
      <trkpt lat="44.40048" lon="6.07987">
        <ele>1276</ele>
        <time>2021-03-07T14:29:08.000Z</time>
      </trkpt>
      <trkpt lat="44.40053" lon="6.07989">
        <ele>1275</ele>
        <time>2021-03-07T14:29:09.000Z</time>
      </trkpt>
      <trkpt lat="44.40056" lon="6.07992">
        <ele>1274</ele>
        <time>2021-03-07T14:29:10.000Z</time>
      </trkpt>
      <trkpt lat="44.40062" lon="6.08001">
        <ele>1272.1999511719</ele>
        <time>2021-03-07T14:29:12.000Z</time>
      </trkpt>
      <trkpt lat="44.40065" lon="6.08007">
        <ele>1271.4000244141</ele>
        <time>2021-03-07T14:29:13.000Z</time>
      </trkpt>
      <trkpt lat="44.40069" lon="6.08014">
        <ele>1270.4000244141</ele>
        <time>2021-03-07T14:29:14.000Z</time>
      </trkpt>
      <trkpt lat="44.40072" lon="6.08021">
        <ele>1269.5999755859</ele>
        <time>2021-03-07T14:29:15.000Z</time>
      </trkpt>
      <trkpt lat="44.40074" lon="6.08029">
        <ele>1268.5999755859</ele>
        <time>2021-03-07T14:29:16.000Z</time>
      </trkpt>
      <trkpt lat="44.40079" lon="6.0804">
        <ele>1267</ele>
        <time>2021-03-07T14:29:18.000Z</time>
      </trkpt>
      <trkpt lat="44.40087" lon="6.08058">
        <ele>1266</ele>
        <time>2021-03-07T14:29:22.000Z</time>
      </trkpt>
      <trkpt lat="44.40092" lon="6.08068">
        <ele>1266</ele>
        <time>2021-03-07T14:29:24.000Z</time>
      </trkpt>
      <trkpt lat="44.40094" lon="6.08073">
        <ele>1266</ele>
        <time>2021-03-07T14:29:25.000Z</time>
      </trkpt>
      <trkpt lat="44.40102" lon="6.0809">
        <ele>1266</ele>
        <time>2021-03-07T14:29:28.000Z</time>
      </trkpt>
      <trkpt lat="44.40113" lon="6.08103">
        <ele>1266</ele>
        <time>2021-03-07T14:29:31.000Z</time>
      </trkpt>
      <trkpt lat="44.40121" lon="6.08115">
        <ele>1266</ele>
        <time>2021-03-07T14:29:35.000Z</time>
      </trkpt>
      <trkpt lat="44.40136" lon="6.0812">
        <ele>1265.8000488281</ele>
        <time>2021-03-07T14:29:39.000Z</time>
      </trkpt>
      <trkpt lat="44.40145" lon="6.08121">
        <ele>1265</ele>
        <time>2021-03-07T14:29:41.000Z</time>
      </trkpt>
      <trkpt lat="44.40152" lon="6.08123">
        <ele>1263.8000488281</ele>
        <time>2021-03-07T14:29:43.000Z</time>
      </trkpt>
      <trkpt lat="44.40161" lon="6.08129">
        <ele>1262</ele>
        <time>2021-03-07T14:29:45.000Z</time>
      </trkpt>
      <trkpt lat="44.40166" lon="6.08131">
        <ele>1260.5999755859</ele>
        <time>2021-03-07T14:29:46.000Z</time>
      </trkpt>
      <trkpt lat="44.40171" lon="6.08134">
        <ele>1259.4000244141</ele>
        <time>2021-03-07T14:29:47.000Z</time>
      </trkpt>
      <trkpt lat="44.40176" lon="6.08138">
        <ele>1257.8000488281</ele>
        <time>2021-03-07T14:29:48.000Z</time>
      </trkpt>
      <trkpt lat="44.40183" lon="6.08143">
        <ele>1256.5999755859</ele>
        <time>2021-03-07T14:29:49.000Z</time>
      </trkpt>
      <trkpt lat="44.4019" lon="6.08148">
        <ele>1255.4000244141</ele>
        <time>2021-03-07T14:29:50.000Z</time>
      </trkpt>
      <trkpt lat="44.40196" lon="6.08153">
        <ele>1254.4000244141</ele>
        <time>2021-03-07T14:29:51.000Z</time>
      </trkpt>
      <trkpt lat="44.402" lon="6.08158">
        <ele>1252.8000488281</ele>
        <time>2021-03-07T14:29:52.000Z</time>
      </trkpt>
      <trkpt lat="44.40204" lon="6.08161">
        <ele>1251</ele>
        <time>2021-03-07T14:29:53.000Z</time>
      </trkpt>
      <trkpt lat="44.40209" lon="6.08162">
        <ele>1249.5999755859</ele>
        <time>2021-03-07T14:29:54.000Z</time>
      </trkpt>
      <trkpt lat="44.40214" lon="6.08161">
        <ele>1248</ele>
        <time>2021-03-07T14:29:55.000Z</time>
      </trkpt>
      <trkpt lat="44.4022" lon="6.0816">
        <ele>1246.5999755859</ele>
        <time>2021-03-07T14:29:56.000Z</time>
      </trkpt>
      <trkpt lat="44.40225" lon="6.08158">
        <ele>1244.5999755859</ele>
        <time>2021-03-07T14:29:57.000Z</time>
      </trkpt>
      <trkpt lat="44.4023" lon="6.08157">
        <ele>1244.1999511719</ele>
        <time>2021-03-07T14:29:58.000Z</time>
      </trkpt>
      <trkpt lat="44.40248" lon="6.08161">
        <ele>1243.8000488281</ele>
        <time>2021-03-07T14:30:02.000Z</time>
      </trkpt>
      <trkpt lat="44.40251" lon="6.08162">
        <ele>1243.8000488281</ele>
        <time>2021-03-07T14:30:05.000Z</time>
      </trkpt>
      <trkpt lat="44.40252" lon="6.08163">
        <ele>1245.5999755859</ele>
        <time>2021-03-07T14:30:11.000Z</time>
      </trkpt>
      <trkpt lat="44.40252" lon="6.08163">
        <ele>1246.4000244141</ele>
        <time>2021-03-07T14:30:17.000Z</time>
      </trkpt>
      <trkpt lat="44.40252" lon="6.08163">
        <ele>1246.5999755859</ele>
        <time>2021-03-07T14:30:35.000Z</time>
      </trkpt>
      <trkpt lat="44.40252" lon="6.08163">
        <ele>1246.4000244141</ele>
        <time>2021-03-07T14:30:51.000Z</time>
      </trkpt>
      <trkpt lat="44.40252" lon="6.08164">
        <ele>1246.4000244141</ele>
        <time>2021-03-07T14:31:09.000Z</time>
      </trkpt>
      <trkpt lat="44.40252" lon="6.08164">
        <ele>1246.8000488281</ele>
        <time>2021-03-07T14:31:36.000Z</time>
      </trkpt>
      <trkpt lat="44.40257" lon="6.08163">
        <ele>1246.8000488281</ele>
        <time>2021-03-07T14:31:45.000Z</time>
      </trkpt>
      <trkpt lat="44.40271" lon="6.08166">
        <ele>1246.8000488281</ele>
        <time>2021-03-07T14:31:50.000Z</time>
      </trkpt>
      <trkpt lat="44.40285" lon="6.08166">
        <ele>1246.8000488281</ele>
        <time>2021-03-07T14:31:55.000Z</time>
      </trkpt>
      <trkpt lat="44.4029" lon="6.08163">
        <ele>1247</ele>
        <time>2021-03-07T14:31:57.000Z</time>
      </trkpt>
      <trkpt lat="44.40297" lon="6.08163">
        <ele>1247.5999755859</ele>
        <time>2021-03-07T14:32:00.000Z</time>
      </trkpt>
      <trkpt lat="44.403" lon="6.08167">
        <ele>1248.1999511719</ele>
        <time>2021-03-07T14:32:02.000Z</time>
      </trkpt>
      <trkpt lat="44.40306" lon="6.08166">
        <ele>1248.5999755859</ele>
        <time>2021-03-07T14:32:05.000Z</time>
      </trkpt>
      <trkpt lat="44.4031" lon="6.08167">
        <ele>1249</ele>
        <time>2021-03-07T14:32:07.000Z</time>
      </trkpt>
      <trkpt lat="44.40312" lon="6.08168">
        <ele>1249.1999511719</ele>
        <time>2021-03-07T14:32:08.000Z</time>
      </trkpt>
      <trkpt lat="44.40318" lon="6.08169">
        <ele>1250.4000244141</ele>
        <time>2021-03-07T14:32:11.000Z</time>
      </trkpt>
      <trkpt lat="44.40324" lon="6.0817">
        <ele>1251.5999755859</ele>
        <time>2021-03-07T14:32:15.000Z</time>
      </trkpt>
      <trkpt lat="44.40329" lon="6.08171">
        <ele>1252.8000488281</ele>
        <time>2021-03-07T14:32:18.000Z</time>
      </trkpt>
      <trkpt lat="44.40331" lon="6.08171">
        <ele>1253.1999511719</ele>
        <time>2021-03-07T14:32:19.000Z</time>
      </trkpt>
      <trkpt lat="44.40334" lon="6.0817">
        <ele>1253.8000488281</ele>
        <time>2021-03-07T14:32:21.000Z</time>
      </trkpt>
      <trkpt lat="44.40338" lon="6.08169">
        <ele>1255.1999511719</ele>
        <time>2021-03-07T14:32:24.000Z</time>
      </trkpt>
      <trkpt lat="44.40341" lon="6.08168">
        <ele>1256</ele>
        <time>2021-03-07T14:32:26.000Z</time>
      </trkpt>
      <trkpt lat="44.40343" lon="6.08167">
        <ele>1256.4000244141</ele>
        <time>2021-03-07T14:32:27.000Z</time>
      </trkpt>
      <trkpt lat="44.40347" lon="6.08166">
        <ele>1257.4000244141</ele>
        <time>2021-03-07T14:32:30.000Z</time>
      </trkpt>
      <trkpt lat="44.4035" lon="6.08165">
        <ele>1258</ele>
        <time>2021-03-07T14:32:32.000Z</time>
      </trkpt>
      <trkpt lat="44.40352" lon="6.08165">
        <ele>1258.4000244141</ele>
        <time>2021-03-07T14:32:33.000Z</time>
      </trkpt>
      <trkpt lat="44.40359" lon="6.08163">
        <ele>1259.5999755859</ele>
        <time>2021-03-07T14:32:37.000Z</time>
      </trkpt>
      <trkpt lat="44.40363" lon="6.08162">
        <ele>1260.8000488281</ele>
        <time>2021-03-07T14:32:40.000Z</time>
      </trkpt>
      <trkpt lat="44.40368" lon="6.08161">
        <ele>1262.4000244141</ele>
        <time>2021-03-07T14:32:43.000Z</time>
      </trkpt>
      <trkpt lat="44.40373" lon="6.08162">
        <ele>1263.4000244141</ele>
        <time>2021-03-07T14:32:46.000Z</time>
      </trkpt>
      <trkpt lat="44.40377" lon="6.08161">
        <ele>1264.4000244141</ele>
        <time>2021-03-07T14:32:48.000Z</time>
      </trkpt>
      <trkpt lat="44.40379" lon="6.08161">
        <ele>1264.8000488281</ele>
        <time>2021-03-07T14:32:49.000Z</time>
      </trkpt>
      <trkpt lat="44.40383" lon="6.0816">
        <ele>1266</ele>
        <time>2021-03-07T14:32:51.000Z</time>
      </trkpt>
      <trkpt lat="44.40386" lon="6.0816">
        <ele>1267</ele>
        <time>2021-03-07T14:32:53.000Z</time>
      </trkpt>
      <trkpt lat="44.40391" lon="6.0816">
        <ele>1268.4000244141</ele>
        <time>2021-03-07T14:32:56.000Z</time>
      </trkpt>
      <trkpt lat="44.40392" lon="6.0816">
        <ele>1268.5999755859</ele>
        <time>2021-03-07T14:32:57.000Z</time>
      </trkpt>
      <trkpt lat="44.40397" lon="6.08158">
        <ele>1269.5999755859</ele>
        <time>2021-03-07T14:33:00.000Z</time>
      </trkpt>
      <trkpt lat="44.40402" lon="6.08157">
        <ele>1270.8000488281</ele>
        <time>2021-03-07T14:33:03.000Z</time>
      </trkpt>
      <trkpt lat="44.40404" lon="6.08156">
        <ele>1271.4000244141</ele>
        <time>2021-03-07T14:33:04.000Z</time>
      </trkpt>
      <trkpt lat="44.40407" lon="6.08156">
        <ele>1272.4000244141</ele>
        <time>2021-03-07T14:33:06.000Z</time>
      </trkpt>
      <trkpt lat="44.40411" lon="6.08154">
        <ele>1273.4000244141</ele>
        <time>2021-03-07T14:33:09.000Z</time>
      </trkpt>
      <trkpt lat="44.40413" lon="6.08154">
        <ele>1274</ele>
        <time>2021-03-07T14:33:10.000Z</time>
      </trkpt>
      <trkpt lat="44.40414" lon="6.08154">
        <ele>1274.5999755859</ele>
        <time>2021-03-07T14:33:11.000Z</time>
      </trkpt>
      <trkpt lat="44.40417" lon="6.08153">
        <ele>1275.4000244141</ele>
        <time>2021-03-07T14:33:13.000Z</time>
      </trkpt>
      <trkpt lat="44.40419" lon="6.08153">
        <ele>1276</ele>
        <time>2021-03-07T14:33:14.000Z</time>
      </trkpt>
      <trkpt lat="44.40422" lon="6.08153">
        <ele>1277</ele>
        <time>2021-03-07T14:33:16.000Z</time>
      </trkpt>
      <trkpt lat="44.40424" lon="6.08154">
        <ele>1277.8000488281</ele>
        <time>2021-03-07T14:33:18.000Z</time>
      </trkpt>
      <trkpt lat="44.40426" lon="6.08154">
        <ele>1278.1999511719</ele>
        <time>2021-03-07T14:33:19.000Z</time>
      </trkpt>
      <trkpt lat="44.40429" lon="6.08154">
        <ele>1279.1999511719</ele>
        <time>2021-03-07T14:33:22.000Z</time>
      </trkpt>
      <trkpt lat="44.40433" lon="6.08153">
        <ele>1280.4000244141</ele>
        <time>2021-03-07T14:33:25.000Z</time>
      </trkpt>
      <trkpt lat="44.40436" lon="6.08154">
        <ele>1281.4000244141</ele>
        <time>2021-03-07T14:33:27.000Z</time>
      </trkpt>
      <trkpt lat="44.40437" lon="6.08154">
        <ele>1281.8000488281</ele>
        <time>2021-03-07T14:33:28.000Z</time>
      </trkpt>
      <trkpt lat="44.40441" lon="6.08152">
        <ele>1283</ele>
        <time>2021-03-07T14:33:31.000Z</time>
      </trkpt>
      <trkpt lat="44.40442" lon="6.08151">
        <ele>1283.1999511719</ele>
        <time>2021-03-07T14:33:32.000Z</time>
      </trkpt>
      <trkpt lat="44.40445" lon="6.0815">
        <ele>1284.1999511719</ele>
        <time>2021-03-07T14:33:34.000Z</time>
      </trkpt>
      <trkpt lat="44.4045" lon="6.08148">
        <ele>1285.5999755859</ele>
        <time>2021-03-07T14:33:37.000Z</time>
      </trkpt>
      <trkpt lat="44.40451" lon="6.08148">
        <ele>1286.5999755859</ele>
        <time>2021-03-07T14:33:38.000Z</time>
      </trkpt>
      <trkpt lat="44.40454" lon="6.08148">
        <ele>1287.4000244141</ele>
        <time>2021-03-07T14:33:40.000Z</time>
      </trkpt>
      <trkpt lat="44.40455" lon="6.08148">
        <ele>1287.8000488281</ele>
        <time>2021-03-07T14:33:41.000Z</time>
      </trkpt>
      <trkpt lat="44.40459" lon="6.08146">
        <ele>1289.1999511719</ele>
        <time>2021-03-07T14:33:44.000Z</time>
      </trkpt>
      <trkpt lat="44.40462" lon="6.08145">
        <ele>1290.1999511719</ele>
        <time>2021-03-07T14:33:46.000Z</time>
      </trkpt>
      <trkpt lat="44.40464" lon="6.08144">
        <ele>1290.5999755859</ele>
        <time>2021-03-07T14:33:47.000Z</time>
      </trkpt>
      <trkpt lat="44.40467" lon="6.08143">
        <ele>1291.5999755859</ele>
        <time>2021-03-07T14:33:49.000Z</time>
      </trkpt>
      <trkpt lat="44.40472" lon="6.08142">
        <ele>1292.8000488281</ele>
        <time>2021-03-07T14:33:52.000Z</time>
      </trkpt>
      <trkpt lat="44.40477" lon="6.0814">
        <ele>1294</ele>
        <time>2021-03-07T14:33:55.000Z</time>
      </trkpt>
      <trkpt lat="44.40479" lon="6.08138">
        <ele>1294.4000244141</ele>
        <time>2021-03-07T14:33:56.000Z</time>
      </trkpt>
      <trkpt lat="44.40484" lon="6.08135">
        <ele>1295.1999511719</ele>
        <time>2021-03-07T14:33:58.000Z</time>
      </trkpt>
      <trkpt lat="44.4049" lon="6.08135">
        <ele>1296.4000244141</ele>
        <time>2021-03-07T14:34:01.000Z</time>
      </trkpt>
      <trkpt lat="44.40496" lon="6.08137">
        <ele>1297.8000488281</ele>
        <time>2021-03-07T14:34:04.000Z</time>
      </trkpt>
      <trkpt lat="44.40507" lon="6.08145">
        <ele>1298.8000488281</ele>
        <time>2021-03-07T14:34:11.000Z</time>
      </trkpt>
      <trkpt lat="44.40513" lon="6.08148">
        <ele>1299.1999511719</ele>
        <time>2021-03-07T14:34:16.000Z</time>
      </trkpt>
      <trkpt lat="44.40514" lon="6.08148">
        <ele>1299.8000488281</ele>
        <time>2021-03-07T14:34:20.000Z</time>
      </trkpt>
      <trkpt lat="44.40514" lon="6.08147">
        <ele>1300.4000244141</ele>
        <time>2021-03-07T14:34:26.000Z</time>
      </trkpt>
      <trkpt lat="44.4052" lon="6.08147">
        <ele>1300.4000244141</ele>
        <time>2021-03-07T14:34:44.000Z</time>
      </trkpt>
      <trkpt lat="44.40531" lon="6.08152">
        <ele>1300.4000244141</ele>
        <time>2021-03-07T14:34:51.000Z</time>
      </trkpt>
      <trkpt lat="44.40536" lon="6.08154">
        <ele>1300.1999511719</ele>
        <time>2021-03-07T14:34:55.000Z</time>
      </trkpt>
      <trkpt lat="44.4054" lon="6.08153">
        <ele>1300</ele>
        <time>2021-03-07T14:34:57.000Z</time>
      </trkpt>
      <trkpt lat="44.40549" lon="6.08157">
        <ele>1299.5999755859</ele>
        <time>2021-03-07T14:35:01.000Z</time>
      </trkpt>
      <trkpt lat="44.4056" lon="6.08164">
        <ele>1298.5999755859</ele>
        <time>2021-03-07T14:35:08.000Z</time>
      </trkpt>
      <trkpt lat="44.40565" lon="6.0817">
        <ele>1298.8000488281</ele>
        <time>2021-03-07T14:35:14.000Z</time>
      </trkpt>
      <trkpt lat="44.4057" lon="6.08174">
        <ele>1300.5999755859</ele>
        <time>2021-03-07T14:35:19.000Z</time>
      </trkpt>
      <trkpt lat="44.40575" lon="6.08177">
        <ele>1301.1999511719</ele>
        <time>2021-03-07T14:35:23.000Z</time>
      </trkpt>
      <trkpt lat="44.4058" lon="6.08182">
        <ele>1301.5999755859</ele>
        <time>2021-03-07T14:35:27.000Z</time>
      </trkpt>
      <trkpt lat="44.40583" lon="6.08185">
        <ele>1302</ele>
        <time>2021-03-07T14:35:30.000Z</time>
      </trkpt>
      <trkpt lat="44.40584" lon="6.08186">
        <ele>1302</ele>
        <time>2021-03-07T14:35:31.000Z</time>
      </trkpt>
      <trkpt lat="44.40584" lon="6.08186">
        <ele>1302.8000488281</ele>
        <time>2021-03-07T14:35:36.000Z</time>
      </trkpt>
      <trkpt lat="44.40585" lon="6.08186">
        <ele>1303</ele>
        <time>2021-03-07T14:35:38.000Z</time>
      </trkpt>
      <trkpt lat="44.40587" lon="6.08192">
        <ele>1303.4000244141</ele>
        <time>2021-03-07T14:35:46.000Z</time>
      </trkpt>
      <trkpt lat="44.40588" lon="6.08195">
        <ele>1303.5999755859</ele>
        <time>2021-03-07T14:35:50.000Z</time>
      </trkpt>
      <trkpt lat="44.40588" lon="6.08198">
        <ele>1304.1999511719</ele>
        <time>2021-03-07T14:35:55.000Z</time>
      </trkpt>
      <trkpt lat="44.40588" lon="6.08198">
        <ele>1304.5999755859</ele>
        <time>2021-03-07T14:36:00.000Z</time>
      </trkpt>
      <trkpt lat="44.4059" lon="6.08198">
        <ele>1304.5999755859</ele>
        <time>2021-03-07T14:36:04.000Z</time>
      </trkpt>
      <trkpt lat="44.40594" lon="6.08204">
        <ele>1304.5999755859</ele>
        <time>2021-03-07T14:36:10.000Z</time>
      </trkpt>
      <trkpt lat="44.40596" lon="6.08207">
        <ele>1304.5999755859</ele>
        <time>2021-03-07T14:36:12.000Z</time>
      </trkpt>
      <trkpt lat="44.40603" lon="6.08214">
        <ele>1305.8000488281</ele>
        <time>2021-03-07T14:36:18.000Z</time>
      </trkpt>
      <trkpt lat="44.40605" lon="6.08216">
        <ele>1306.5999755859</ele>
        <time>2021-03-07T14:36:20.000Z</time>
      </trkpt>
      <trkpt lat="44.40607" lon="6.08217">
        <ele>1307</ele>
        <time>2021-03-07T14:36:21.000Z</time>
      </trkpt>
      <trkpt lat="44.4061" lon="6.0822">
        <ele>1308.1999511719</ele>
        <time>2021-03-07T14:36:23.000Z</time>
      </trkpt>
      <trkpt lat="44.40615" lon="6.08224">
        <ele>1309.1999511719</ele>
        <time>2021-03-07T14:36:26.000Z</time>
      </trkpt>
      <trkpt lat="44.40618" lon="6.08227">
        <ele>1310.4000244141</ele>
        <time>2021-03-07T14:36:28.000Z</time>
      </trkpt>
      <trkpt lat="44.40619" lon="6.08228">
        <ele>1310.5999755859</ele>
        <time>2021-03-07T14:36:29.000Z</time>
      </trkpt>
      <trkpt lat="44.40623" lon="6.08232">
        <ele>1311.4000244141</ele>
        <time>2021-03-07T14:36:32.000Z</time>
      </trkpt>
      <trkpt lat="44.40627" lon="6.08237">
        <ele>1312.5999755859</ele>
        <time>2021-03-07T14:36:35.000Z</time>
      </trkpt>
      <trkpt lat="44.40628" lon="6.08239">
        <ele>1313</ele>
        <time>2021-03-07T14:36:36.000Z</time>
      </trkpt>
      <trkpt lat="44.40631" lon="6.08242">
        <ele>1313.8000488281</ele>
        <time>2021-03-07T14:36:38.000Z</time>
      </trkpt>
      <trkpt lat="44.40635" lon="6.08245">
        <ele>1315</ele>
        <time>2021-03-07T14:36:41.000Z</time>
      </trkpt>
      <trkpt lat="44.40637" lon="6.08246">
        <ele>1315.5999755859</ele>
        <time>2021-03-07T14:36:42.000Z</time>
      </trkpt>
      <trkpt lat="44.40638" lon="6.08247">
        <ele>1316</ele>
        <time>2021-03-07T14:36:43.000Z</time>
      </trkpt>
      <trkpt lat="44.40638" lon="6.08247">
        <ele>1317.4000244141</ele>
        <time>2021-03-07T14:36:45.000Z</time>
      </trkpt>
      <trkpt lat="44.40638" lon="6.08247">
        <ele>1318.5999755859</ele>
        <time>2021-03-07T14:36:47.000Z</time>
      </trkpt>
      <trkpt lat="44.40639" lon="6.08248">
        <ele>1320</ele>
        <time>2021-03-07T14:36:49.000Z</time>
      </trkpt>
      <trkpt lat="44.40643" lon="6.08249">
        <ele>1320.5999755859</ele>
        <time>2021-03-07T14:36:55.000Z</time>
      </trkpt>
      <trkpt lat="44.40645" lon="6.0825">
        <ele>1321.1999511719</ele>
        <time>2021-03-07T14:36:59.000Z</time>
      </trkpt>
      <trkpt lat="44.40647" lon="6.08251">
        <ele>1321.4000244141</ele>
        <time>2021-03-07T14:37:04.000Z</time>
      </trkpt>
      <trkpt lat="44.4065" lon="6.08253">
        <ele>1321.5999755859</ele>
        <time>2021-03-07T14:37:10.000Z</time>
      </trkpt>
      <trkpt lat="44.40652" lon="6.08253">
        <ele>1322</ele>
        <time>2021-03-07T14:37:13.000Z</time>
      </trkpt>
      <trkpt lat="44.40654" lon="6.08252">
        <ele>1322.1999511719</ele>
        <time>2021-03-07T14:37:15.000Z</time>
      </trkpt>
      <trkpt lat="44.40658" lon="6.08252">
        <ele>1322.1999511719</ele>
        <time>2021-03-07T14:37:17.000Z</time>
      </trkpt>
      <trkpt lat="44.40667" lon="6.08255">
        <ele>1322.4000244141</ele>
        <time>2021-03-07T14:37:21.000Z</time>
      </trkpt>
      <trkpt lat="44.40679" lon="6.08259">
        <ele>1322.5999755859</ele>
        <time>2021-03-07T14:37:26.000Z</time>
      </trkpt>
      <trkpt lat="44.40692" lon="6.08263">
        <ele>1322.8000488281</ele>
        <time>2021-03-07T14:37:31.000Z</time>
      </trkpt>
      <trkpt lat="44.40697" lon="6.08265">
        <ele>1322.8000488281</ele>
        <time>2021-03-07T14:37:33.000Z</time>
      </trkpt>
      <trkpt lat="44.40712" lon="6.0827">
        <ele>1324.1999511719</ele>
        <time>2021-03-07T14:37:39.000Z</time>
      </trkpt>
      <trkpt lat="44.40719" lon="6.08273">
        <ele>1325.4000244141</ele>
        <time>2021-03-07T14:37:42.000Z</time>
      </trkpt>
      <trkpt lat="44.40725" lon="6.08276">
        <ele>1326.4000244141</ele>
        <time>2021-03-07T14:37:45.000Z</time>
      </trkpt>
      <trkpt lat="44.40727" lon="6.08277">
        <ele>1326.5999755859</ele>
        <time>2021-03-07T14:37:46.000Z</time>
      </trkpt>
      <trkpt lat="44.40733" lon="6.08283">
        <ele>1327.5999755859</ele>
        <time>2021-03-07T14:37:50.000Z</time>
      </trkpt>
      <trkpt lat="44.40735" lon="6.08284">
        <ele>1327.8000488281</ele>
        <time>2021-03-07T14:37:51.000Z</time>
      </trkpt>
      <trkpt lat="44.40737" lon="6.08284">
        <ele>1328.1999511719</ele>
        <time>2021-03-07T14:37:52.000Z</time>
      </trkpt>
      <trkpt lat="44.40743" lon="6.08282">
        <ele>1328.5999755859</ele>
        <time>2021-03-07T14:37:54.000Z</time>
      </trkpt>
      <trkpt lat="44.40751" lon="6.08283">
        <ele>1329.8000488281</ele>
        <time>2021-03-07T14:37:57.000Z</time>
      </trkpt>
      <trkpt lat="44.40753" lon="6.08283">
        <ele>1330</ele>
        <time>2021-03-07T14:37:58.000Z</time>
      </trkpt>
      <trkpt lat="44.40757" lon="6.08284">
        <ele>1330.8000488281</ele>
        <time>2021-03-07T14:38:00.000Z</time>
      </trkpt>
      <trkpt lat="44.40764" lon="6.08292">
        <ele>1331.4000244141</ele>
        <time>2021-03-07T14:38:04.000Z</time>
      </trkpt>
      <trkpt lat="44.40766" lon="6.08296">
        <ele>1332</ele>
        <time>2021-03-07T14:38:06.000Z</time>
      </trkpt>
      <trkpt lat="44.40765" lon="6.08297">
        <ele>1332.5999755859</ele>
        <time>2021-03-07T14:38:08.000Z</time>
      </trkpt>
      <trkpt lat="44.40765" lon="6.08296">
        <ele>1333</ele>
        <time>2021-03-07T14:38:09.000Z</time>
      </trkpt>
      <trkpt lat="44.40766" lon="6.08294">
        <ele>1334.1999511719</ele>
        <time>2021-03-07T14:38:11.000Z</time>
      </trkpt>
      <trkpt lat="44.40766" lon="6.08294">
        <ele>1334.4000244141</ele>
        <time>2021-03-07T14:38:12.000Z</time>
      </trkpt>
      <trkpt lat="44.40766" lon="6.08295">
        <ele>1334.8000488281</ele>
        <time>2021-03-07T14:38:23.000Z</time>
      </trkpt>
      <trkpt lat="44.40766" lon="6.08295">
        <ele>1334.5999755859</ele>
        <time>2021-03-07T14:38:49.000Z</time>
      </trkpt>
      <trkpt lat="44.40766" lon="6.08294">
        <ele>1334.5999755859</ele>
        <time>2021-03-07T14:39:14.000Z</time>
      </trkpt>
      <trkpt lat="44.40767" lon="6.08294">
        <ele>1334.5999755859</ele>
        <time>2021-03-07T14:39:42.000Z</time>
      </trkpt>
      <trkpt lat="44.40766" lon="6.08293">
        <ele>1334.8000488281</ele>
        <time>2021-03-07T14:40:11.000Z</time>
      </trkpt>
      <trkpt lat="44.40765" lon="6.08292">
        <ele>1334.8000488281</ele>
        <time>2021-03-07T14:40:15.000Z</time>
      </trkpt>
      <trkpt lat="44.4076" lon="6.0829">
        <ele>1334.8000488281</ele>
        <time>2021-03-07T14:40:17.000Z</time>
      </trkpt>
      <trkpt lat="44.40747" lon="6.08292">
        <ele>1334.8000488281</ele>
        <time>2021-03-07T14:40:21.000Z</time>
      </trkpt>
      <trkpt lat="44.40744" lon="6.0829">
        <ele>1334.8000488281</ele>
        <time>2021-03-07T14:40:22.000Z</time>
      </trkpt>
      <trkpt lat="44.40738" lon="6.08286">
        <ele>1334.1999511719</ele>
        <time>2021-03-07T14:40:24.000Z</time>
      </trkpt>
      <trkpt lat="44.40729" lon="6.08281">
        <ele>1333.1999511719</ele>
        <time>2021-03-07T14:40:26.000Z</time>
      </trkpt>
      <trkpt lat="44.40724" lon="6.08279">
        <ele>1332.8000488281</ele>
        <time>2021-03-07T14:40:27.000Z</time>
      </trkpt>
      <trkpt lat="44.40719" lon="6.08278">
        <ele>1332.4000244141</ele>
        <time>2021-03-07T14:40:28.000Z</time>
      </trkpt>
      <trkpt lat="44.40709" lon="6.08274">
        <ele>1331.4000244141</ele>
        <time>2021-03-07T14:40:30.000Z</time>
      </trkpt>
      <trkpt lat="44.40697" lon="6.0827">
        <ele>1329.5999755859</ele>
        <time>2021-03-07T14:40:33.000Z</time>
      </trkpt>
      <trkpt lat="44.4069" lon="6.08268">
        <ele>1328.4000244141</ele>
        <time>2021-03-07T14:40:35.000Z</time>
      </trkpt>
      <trkpt lat="44.40683" lon="6.08268">
        <ele>1327.1999511719</ele>
        <time>2021-03-07T14:40:37.000Z</time>
      </trkpt>
      <trkpt lat="44.40679" lon="6.08267">
        <ele>1326</ele>
        <time>2021-03-07T14:40:39.000Z</time>
      </trkpt>
      <trkpt lat="44.40674" lon="6.08264">
        <ele>1325.4000244141</ele>
        <time>2021-03-07T14:40:41.000Z</time>
      </trkpt>
      <trkpt lat="44.40672" lon="6.08263">
        <ele>1324.8000488281</ele>
        <time>2021-03-07T14:40:42.000Z</time>
      </trkpt>
      <trkpt lat="44.40663" lon="6.08261">
        <ele>1323.8000488281</ele>
        <time>2021-03-07T14:40:45.000Z</time>
      </trkpt>
      <trkpt lat="44.40661" lon="6.08261">
        <ele>1323.5999755859</ele>
        <time>2021-03-07T14:40:46.000Z</time>
      </trkpt>
      <trkpt lat="44.40656" lon="6.0826">
        <ele>1323.4000244141</ele>
        <time>2021-03-07T14:40:49.000Z</time>
      </trkpt>
      <trkpt lat="44.40652" lon="6.08259">
        <ele>1322.5999755859</ele>
        <time>2021-03-07T14:40:53.000Z</time>
      </trkpt>
      <trkpt lat="44.4065" lon="6.08259">
        <ele>1322.5999755859</ele>
        <time>2021-03-07T14:40:55.000Z</time>
      </trkpt>
      <trkpt lat="44.40649" lon="6.08258">
        <ele>1322.4000244141</ele>
        <time>2021-03-07T14:40:56.000Z</time>
      </trkpt>
      <trkpt lat="44.40642" lon="6.08252">
        <ele>1322.4000244141</ele>
        <time>2021-03-07T14:40:59.000Z</time>
      </trkpt>
      <trkpt lat="44.40632" lon="6.0824">
        <ele>1322.1999511719</ele>
        <time>2021-03-07T14:41:03.000Z</time>
      </trkpt>
      <trkpt lat="44.40625" lon="6.08233">
        <ele>1321.8000488281</ele>
        <time>2021-03-07T14:41:05.000Z</time>
      </trkpt>
      <trkpt lat="44.40621" lon="6.0823">
        <ele>1321.1999511719</ele>
        <time>2021-03-07T14:41:06.000Z</time>
      </trkpt>
      <trkpt lat="44.40614" lon="6.08224">
        <ele>1320.1999511719</ele>
        <time>2021-03-07T14:41:08.000Z</time>
      </trkpt>
      <trkpt lat="44.40611" lon="6.0822">
        <ele>1319.8000488281</ele>
        <time>2021-03-07T14:41:09.000Z</time>
      </trkpt>
      <trkpt lat="44.40608" lon="6.08216">
        <ele>1318.8000488281</ele>
        <time>2021-03-07T14:41:10.000Z</time>
      </trkpt>
      <trkpt lat="44.40605" lon="6.08212">
        <ele>1317.8000488281</ele>
        <time>2021-03-07T14:41:11.000Z</time>
      </trkpt>
      <trkpt lat="44.40603" lon="6.08208">
        <ele>1316.5999755859</ele>
        <time>2021-03-07T14:41:12.000Z</time>
      </trkpt>
      <trkpt lat="44.40601" lon="6.08204">
        <ele>1315.5999755859</ele>
        <time>2021-03-07T14:41:13.000Z</time>
      </trkpt>
      <trkpt lat="44.40598" lon="6.08201">
        <ele>1313.5999755859</ele>
        <time>2021-03-07T14:41:15.000Z</time>
      </trkpt>
      <trkpt lat="44.40595" lon="6.08199">
        <ele>1311.8000488281</ele>
        <time>2021-03-07T14:41:17.000Z</time>
      </trkpt>
      <trkpt lat="44.40593" lon="6.08197">
        <ele>1309.8000488281</ele>
        <time>2021-03-07T14:41:19.000Z</time>
      </trkpt>
      <trkpt lat="44.40592" lon="6.08196">
        <ele>1308.8000488281</ele>
        <time>2021-03-07T14:41:20.000Z</time>
      </trkpt>
      <trkpt lat="44.4059" lon="6.08194">
        <ele>1307.8000488281</ele>
        <time>2021-03-07T14:41:21.000Z</time>
      </trkpt>
      <trkpt lat="44.40587" lon="6.08191">
        <ele>1306.1999511719</ele>
        <time>2021-03-07T14:41:23.000Z</time>
      </trkpt>
      <trkpt lat="44.40585" lon="6.08189">
        <ele>1305.5999755859</ele>
        <time>2021-03-07T14:41:24.000Z</time>
      </trkpt>
      <trkpt lat="44.40579" lon="6.08185">
        <ele>1305.1999511719</ele>
        <time>2021-03-07T14:41:26.000Z</time>
      </trkpt>
      <trkpt lat="44.40577" lon="6.08183">
        <ele>1305</ele>
        <time>2021-03-07T14:41:27.000Z</time>
      </trkpt>
      <trkpt lat="44.40572" lon="6.08179">
        <ele>1304.1999511719</ele>
        <time>2021-03-07T14:41:29.000Z</time>
      </trkpt>
      <trkpt lat="44.40569" lon="6.08177">
        <ele>1304</ele>
        <time>2021-03-07T14:41:30.000Z</time>
      </trkpt>
      <trkpt lat="44.4056" lon="6.08171">
        <ele>1302.5999755859</ele>
        <time>2021-03-07T14:41:33.000Z</time>
      </trkpt>
      <trkpt lat="44.40557" lon="6.08169">
        <ele>1302.1999511719</ele>
        <time>2021-03-07T14:41:34.000Z</time>
      </trkpt>
      <trkpt lat="44.4055" lon="6.08166">
        <ele>1301.4000244141</ele>
        <time>2021-03-07T14:41:37.000Z</time>
      </trkpt>
      <trkpt lat="44.40549" lon="6.08165">
        <ele>1300.8000488281</ele>
        <time>2021-03-07T14:41:38.000Z</time>
      </trkpt>
      <trkpt lat="44.40549" lon="6.08165">
        <ele>1300</ele>
        <time>2021-03-07T14:41:39.000Z</time>
      </trkpt>
      <trkpt lat="44.40548" lon="6.08164">
        <ele>1298.8000488281</ele>
        <time>2021-03-07T14:41:41.000Z</time>
      </trkpt>
      <trkpt lat="44.40544" lon="6.08162">
        <ele>1298.4000244141</ele>
        <time>2021-03-07T14:41:48.000Z</time>
      </trkpt>
      <trkpt lat="44.4054" lon="6.0816">
        <ele>1299.4000244141</ele>
        <time>2021-03-07T14:41:59.000Z</time>
      </trkpt>
      <trkpt lat="44.40539" lon="6.0816">
        <ele>1300</ele>
        <time>2021-03-07T14:42:05.000Z</time>
      </trkpt>
      <trkpt lat="44.40539" lon="6.0816">
        <ele>1299.8000488281</ele>
        <time>2021-03-07T14:42:20.000Z</time>
      </trkpt>
      <trkpt lat="44.40539" lon="6.0816">
        <ele>1300</ele>
        <time>2021-03-07T14:42:52.000Z</time>
      </trkpt>
      <trkpt lat="44.40539" lon="6.08161">
        <ele>1300.1999511719</ele>
        <time>2021-03-07T14:43:09.000Z</time>
      </trkpt>
      <trkpt lat="44.40539" lon="6.0816">
        <ele>1300.1999511719</ele>
        <time>2021-03-07T14:43:38.000Z</time>
      </trkpt>
      <trkpt lat="44.40539" lon="6.08159">
        <ele>1300</ele>
        <time>2021-03-07T14:43:50.000Z</time>
      </trkpt>
      <trkpt lat="44.40539" lon="6.08159">
        <ele>1300.1999511719</ele>
        <time>2021-03-07T14:44:12.000Z</time>
      </trkpt>
      <trkpt lat="44.40539" lon="6.08159">
        <ele>1300.1999511719</ele>
        <time>2021-03-07T14:44:28.000Z</time>
      </trkpt>
      <trkpt lat="44.40539" lon="6.0816">
        <ele>1300</ele>
        <time>2021-03-07T14:45:00.000Z</time>
      </trkpt>
      <trkpt lat="44.40537" lon="6.08158">
        <ele>1300</ele>
        <time>2021-03-07T14:45:03.000Z</time>
      </trkpt>
      <trkpt lat="44.40534" lon="6.08157">
        <ele>1300</ele>
        <time>2021-03-07T14:45:06.000Z</time>
      </trkpt>
      <trkpt lat="44.40524" lon="6.0815">
        <ele>1300.1999511719</ele>
        <time>2021-03-07T14:45:14.000Z</time>
      </trkpt>
      <trkpt lat="44.40516" lon="6.08145">
        <ele>1300.4000244141</ele>
        <time>2021-03-07T14:45:18.000Z</time>
      </trkpt>
      <trkpt lat="44.40499" lon="6.08135">
        <ele>1300.4000244141</ele>
        <time>2021-03-07T14:45:24.000Z</time>
      </trkpt>
      <trkpt lat="44.40488" lon="6.08138">
        <ele>1299.4000244141</ele>
        <time>2021-03-07T14:45:28.000Z</time>
      </trkpt>
      <trkpt lat="44.40473" lon="6.08141">
        <ele>1298.8000488281</ele>
        <time>2021-03-07T14:45:32.000Z</time>
      </trkpt>
      <trkpt lat="44.40458" lon="6.08145">
        <ele>1298.4000244141</ele>
        <time>2021-03-07T14:45:36.000Z</time>
      </trkpt>
      <trkpt lat="44.40455" lon="6.08145">
        <ele>1298.1999511719</ele>
        <time>2021-03-07T14:45:37.000Z</time>
      </trkpt>
      <trkpt lat="44.40448" lon="6.08147">
        <ele>1297</ele>
        <time>2021-03-07T14:45:39.000Z</time>
      </trkpt>
      <trkpt lat="44.40444" lon="6.08147">
        <ele>1296.1999511719</ele>
        <time>2021-03-07T14:45:40.000Z</time>
      </trkpt>
      <trkpt lat="44.40441" lon="6.08147">
        <ele>1295.1999511719</ele>
        <time>2021-03-07T14:45:41.000Z</time>
      </trkpt>
      <trkpt lat="44.40435" lon="6.08148">
        <ele>1293.8000488281</ele>
        <time>2021-03-07T14:45:43.000Z</time>
      </trkpt>
      <trkpt lat="44.40432" lon="6.08148">
        <ele>1293</ele>
        <time>2021-03-07T14:45:44.000Z</time>
      </trkpt>
      <trkpt lat="44.40429" lon="6.08147">
        <ele>1292.1999511719</ele>
        <time>2021-03-07T14:45:45.000Z</time>
      </trkpt>
      <trkpt lat="44.40422" lon="6.08147">
        <ele>1290.4000244141</ele>
        <time>2021-03-07T14:45:47.000Z</time>
      </trkpt>
      <trkpt lat="44.40418" lon="6.08147">
        <ele>1289.4000244141</ele>
        <time>2021-03-07T14:45:48.000Z</time>
      </trkpt>
      <trkpt lat="44.40415" lon="6.08148">
        <ele>1288.4000244141</ele>
        <time>2021-03-07T14:45:49.000Z</time>
      </trkpt>
      <trkpt lat="44.40411" lon="6.08148">
        <ele>1287.4000244141</ele>
        <time>2021-03-07T14:45:50.000Z</time>
      </trkpt>
      <trkpt lat="44.40406" lon="6.08148">
        <ele>1286.4000244141</ele>
        <time>2021-03-07T14:45:51.000Z</time>
      </trkpt>
      <trkpt lat="44.40402" lon="6.08149">
        <ele>1285.4000244141</ele>
        <time>2021-03-07T14:45:52.000Z</time>
      </trkpt>
      <trkpt lat="44.40398" lon="6.0815">
        <ele>1284.5999755859</ele>
        <time>2021-03-07T14:45:53.000Z</time>
      </trkpt>
      <trkpt lat="44.40391" lon="6.08149">
        <ele>1282.5999755859</ele>
        <time>2021-03-07T14:45:55.000Z</time>
      </trkpt>
      <trkpt lat="44.40386" lon="6.08149">
        <ele>1281.5999755859</ele>
        <time>2021-03-07T14:45:56.000Z</time>
      </trkpt>
      <trkpt lat="44.40382" lon="6.0815">
        <ele>1280.5999755859</ele>
        <time>2021-03-07T14:45:57.000Z</time>
      </trkpt>
      <trkpt lat="44.40378" lon="6.08151">
        <ele>1279.5999755859</ele>
        <time>2021-03-07T14:45:58.000Z</time>
      </trkpt>
      <trkpt lat="44.40374" lon="6.08151">
        <ele>1277.4000244141</ele>
        <time>2021-03-07T14:45:59.000Z</time>
      </trkpt>
      <trkpt lat="44.4037" lon="6.08151">
        <ele>1276</ele>
        <time>2021-03-07T14:46:00.000Z</time>
      </trkpt>
      <trkpt lat="44.40365" lon="6.08151">
        <ele>1274.8000488281</ele>
        <time>2021-03-07T14:46:01.000Z</time>
      </trkpt>
      <trkpt lat="44.40361" lon="6.08153">
        <ele>1274</ele>
        <time>2021-03-07T14:46:02.000Z</time>
      </trkpt>
      <trkpt lat="44.40356" lon="6.08155">
        <ele>1273</ele>
        <time>2021-03-07T14:46:03.000Z</time>
      </trkpt>
      <trkpt lat="44.40351" lon="6.08157">
        <ele>1271.8000488281</ele>
        <time>2021-03-07T14:46:04.000Z</time>
      </trkpt>
      <trkpt lat="44.40345" lon="6.08159">
        <ele>1270.5999755859</ele>
        <time>2021-03-07T14:46:05.000Z</time>
      </trkpt>
      <trkpt lat="44.40336" lon="6.08164">
        <ele>1269</ele>
        <time>2021-03-07T14:46:07.000Z</time>
      </trkpt>
      <trkpt lat="44.40331" lon="6.08166">
        <ele>1267.8000488281</ele>
        <time>2021-03-07T14:46:08.000Z</time>
      </trkpt>
      <trkpt lat="44.40325" lon="6.08165">
        <ele>1266.5999755859</ele>
        <time>2021-03-07T14:46:09.000Z</time>
      </trkpt>
      <trkpt lat="44.4032" lon="6.08163">
        <ele>1265.1999511719</ele>
        <time>2021-03-07T14:46:10.000Z</time>
      </trkpt>
      <trkpt lat="44.40314" lon="6.08162">
        <ele>1263.8000488281</ele>
        <time>2021-03-07T14:46:11.000Z</time>
      </trkpt>
      <trkpt lat="44.40309" lon="6.08162">
        <ele>1262.5999755859</ele>
        <time>2021-03-07T14:46:12.000Z</time>
      </trkpt>
      <trkpt lat="44.40305" lon="6.08162">
        <ele>1261.5999755859</ele>
        <time>2021-03-07T14:46:13.000Z</time>
      </trkpt>
      <trkpt lat="44.40301" lon="6.08161">
        <ele>1260.4000244141</ele>
        <time>2021-03-07T14:46:14.000Z</time>
      </trkpt>
      <trkpt lat="44.40297" lon="6.08158">
        <ele>1258.5999755859</ele>
        <time>2021-03-07T14:46:16.000Z</time>
      </trkpt>
      <trkpt lat="44.40293" lon="6.08159">
        <ele>1257.5999755859</ele>
        <time>2021-03-07T14:46:17.000Z</time>
      </trkpt>
      <trkpt lat="44.40289" lon="6.08162">
        <ele>1256.8000488281</ele>
        <time>2021-03-07T14:46:18.000Z</time>
      </trkpt>
      <trkpt lat="44.40284" lon="6.08165">
        <ele>1255.8000488281</ele>
        <time>2021-03-07T14:46:19.000Z</time>
      </trkpt>
      <trkpt lat="44.4028" lon="6.08166">
        <ele>1254.5999755859</ele>
        <time>2021-03-07T14:46:20.000Z</time>
      </trkpt>
      <trkpt lat="44.40275" lon="6.08165">
        <ele>1253.5999755859</ele>
        <time>2021-03-07T14:46:21.000Z</time>
      </trkpt>
      <trkpt lat="44.40265" lon="6.08161">
        <ele>1251.8000488281</ele>
        <time>2021-03-07T14:46:23.000Z</time>
      </trkpt>
      <trkpt lat="44.40259" lon="6.08161">
        <ele>1251.4000244141</ele>
        <time>2021-03-07T14:46:24.000Z</time>
      </trkpt>
      <trkpt lat="44.40249" lon="6.0816">
        <ele>1250.1999511719</ele>
        <time>2021-03-07T14:46:26.000Z</time>
      </trkpt>
      <trkpt lat="44.40238" lon="6.08158">
        <ele>1249.4000244141</ele>
        <time>2021-03-07T14:46:28.000Z</time>
      </trkpt>
      <trkpt lat="44.40233" lon="6.08159">
        <ele>1249</ele>
        <time>2021-03-07T14:46:29.000Z</time>
      </trkpt>
      <trkpt lat="44.40223" lon="6.08164">
        <ele>1248.1999511719</ele>
        <time>2021-03-07T14:46:31.000Z</time>
      </trkpt>
      <trkpt lat="44.40218" lon="6.08165">
        <ele>1247.8000488281</ele>
        <time>2021-03-07T14:46:32.000Z</time>
      </trkpt>
      <trkpt lat="44.40211" lon="6.08164">
        <ele>1247</ele>
        <time>2021-03-07T14:46:34.000Z</time>
      </trkpt>
      <trkpt lat="44.40206" lon="6.08156">
        <ele>1246.5999755859</ele>
        <time>2021-03-07T14:46:36.000Z</time>
      </trkpt>
      <trkpt lat="44.402" lon="6.08151">
        <ele>1246.4000244141</ele>
        <time>2021-03-07T14:46:38.000Z</time>
      </trkpt>
      <trkpt lat="44.40181" lon="6.08135">
        <ele>1246.4000244141</ele>
        <time>2021-03-07T14:46:44.000Z</time>
      </trkpt>
      <trkpt lat="44.40172" lon="6.0813">
        <ele>1246.8000488281</ele>
        <time>2021-03-07T14:46:49.000Z</time>
      </trkpt>
      <trkpt lat="44.40169" lon="6.08128">
        <ele>1248</ele>
        <time>2021-03-07T14:46:51.000Z</time>
      </trkpt>
      <trkpt lat="44.40165" lon="6.08125">
        <ele>1250</ele>
        <time>2021-03-07T14:46:53.000Z</time>
      </trkpt>
      <trkpt lat="44.4016" lon="6.08125">
        <ele>1251.4000244141</ele>
        <time>2021-03-07T14:46:55.000Z</time>
      </trkpt>
      <trkpt lat="44.40155" lon="6.08125">
        <ele>1252.8000488281</ele>
        <time>2021-03-07T14:46:57.000Z</time>
      </trkpt>
      <trkpt lat="44.4015" lon="6.08124">
        <ele>1253.8000488281</ele>
        <time>2021-03-07T14:46:59.000Z</time>
      </trkpt>
      <trkpt lat="44.40148" lon="6.08122">
        <ele>1255</ele>
        <time>2021-03-07T14:47:01.000Z</time>
      </trkpt>
      <trkpt lat="44.40143" lon="6.08121">
        <ele>1256.1999511719</ele>
        <time>2021-03-07T14:47:03.000Z</time>
      </trkpt>
      <trkpt lat="44.40136" lon="6.08119">
        <ele>1257.8000488281</ele>
        <time>2021-03-07T14:47:06.000Z</time>
      </trkpt>
      <trkpt lat="44.40133" lon="6.08119">
        <ele>1258.4000244141</ele>
        <time>2021-03-07T14:47:07.000Z</time>
      </trkpt>
      <trkpt lat="44.40131" lon="6.0812">
        <ele>1259</ele>
        <time>2021-03-07T14:47:08.000Z</time>
      </trkpt>
      <trkpt lat="44.40128" lon="6.08116">
        <ele>1260.1999511719</ele>
        <time>2021-03-07T14:47:10.000Z</time>
      </trkpt>
      <trkpt lat="44.40127" lon="6.08114">
        <ele>1260.8000488281</ele>
        <time>2021-03-07T14:47:11.000Z</time>
      </trkpt>
      <trkpt lat="44.40125" lon="6.08111">
        <ele>1261.5999755859</ele>
        <time>2021-03-07T14:47:12.000Z</time>
      </trkpt>
      <trkpt lat="44.40123" lon="6.08105">
        <ele>1262.8000488281</ele>
        <time>2021-03-07T14:47:14.000Z</time>
      </trkpt>
      <trkpt lat="44.40118" lon="6.08101">
        <ele>1263.8000488281</ele>
        <time>2021-03-07T14:47:16.000Z</time>
      </trkpt>
      <trkpt lat="44.40112" lon="6.08094">
        <ele>1265</ele>
        <time>2021-03-07T14:47:19.000Z</time>
      </trkpt>
      <trkpt lat="44.4011" lon="6.08086">
        <ele>1266.4000244141</ele>
        <time>2021-03-07T14:47:21.000Z</time>
      </trkpt>
      <trkpt lat="44.40107" lon="6.08077">
        <ele>1267.4000244141</ele>
        <time>2021-03-07T14:47:23.000Z</time>
      </trkpt>
      <trkpt lat="44.40102" lon="6.08071">
        <ele>1268.1999511719</ele>
        <time>2021-03-07T14:47:25.000Z</time>
      </trkpt>
      <trkpt lat="44.40101" lon="6.08065">
        <ele>1268.4000244141</ele>
        <time>2021-03-07T14:47:26.000Z</time>
      </trkpt>
      <trkpt lat="44.40099" lon="6.0806">
        <ele>1268.5999755859</ele>
        <time>2021-03-07T14:47:27.000Z</time>
      </trkpt>
      <trkpt lat="44.40097" lon="6.08055">
        <ele>1268.5999755859</ele>
        <time>2021-03-07T14:47:28.000Z</time>
      </trkpt>
      <trkpt lat="44.40094" lon="6.08051">
        <ele>1268.5999755859</ele>
        <time>2021-03-07T14:47:29.000Z</time>
      </trkpt>
      <trkpt lat="44.40089" lon="6.08042">
        <ele>1268.5999755859</ele>
        <time>2021-03-07T14:47:31.000Z</time>
      </trkpt>
      <trkpt lat="44.40085" lon="6.0803">
        <ele>1268.5999755859</ele>
        <time>2021-03-07T14:47:33.000Z</time>
      </trkpt>
      <trkpt lat="44.40073" lon="6.0801">
        <ele>1268.5999755859</ele>
        <time>2021-03-07T14:47:37.000Z</time>
      </trkpt>
      <trkpt lat="44.40067" lon="6.08001">
        <ele>1268.1999511719</ele>
        <time>2021-03-07T14:47:39.000Z</time>
      </trkpt>
      <trkpt lat="44.40061" lon="6.07996">
        <ele>1268.1999511719</ele>
        <time>2021-03-07T14:47:41.000Z</time>
      </trkpt>
      <trkpt lat="44.4005" lon="6.07989">
        <ele>1268</ele>
        <time>2021-03-07T14:47:46.000Z</time>
      </trkpt>
      <trkpt lat="44.40048" lon="6.07987">
        <ele>1268</ele>
        <time>2021-03-07T14:47:47.000Z</time>
      </trkpt>
      <trkpt lat="44.40042" lon="6.07978">
        <ele>1270</ele>
        <time>2021-03-07T14:47:51.000Z</time>
      </trkpt>
      <trkpt lat="44.40039" lon="6.07976">
        <ele>1270.5999755859</ele>
        <time>2021-03-07T14:47:53.000Z</time>
      </trkpt>
      <trkpt lat="44.40036" lon="6.07976">
        <ele>1271</ele>
        <time>2021-03-07T14:47:54.000Z</time>
      </trkpt>
      <trkpt lat="44.40032" lon="6.07975">
        <ele>1272.4000244141</ele>
        <time>2021-03-07T14:47:56.000Z</time>
      </trkpt>
      <trkpt lat="44.4003" lon="6.07975">
        <ele>1273</ele>
        <time>2021-03-07T14:47:57.000Z</time>
      </trkpt>
      <trkpt lat="44.40028" lon="6.07973">
        <ele>1273.4000244141</ele>
        <time>2021-03-07T14:47:58.000Z</time>
      </trkpt>
      <trkpt lat="44.40025" lon="6.07968">
        <ele>1274.5999755859</ele>
        <time>2021-03-07T14:48:01.000Z</time>
      </trkpt>
      <trkpt lat="44.40022" lon="6.07965">
        <ele>1275.4000244141</ele>
        <time>2021-03-07T14:48:03.000Z</time>
      </trkpt>
      <trkpt lat="44.4002" lon="6.07964">
        <ele>1275.8000488281</ele>
        <time>2021-03-07T14:48:04.000Z</time>
      </trkpt>
      <trkpt lat="44.40014" lon="6.07964">
        <ele>1277</ele>
        <time>2021-03-07T14:48:07.000Z</time>
      </trkpt>
      <trkpt lat="44.40012" lon="6.07963">
        <ele>1277.4000244141</ele>
        <time>2021-03-07T14:48:08.000Z</time>
      </trkpt>
      <trkpt lat="44.4001" lon="6.07962">
        <ele>1278</ele>
        <time>2021-03-07T14:48:09.000Z</time>
      </trkpt>
      <trkpt lat="44.40009" lon="6.07961">
        <ele>1278.4000244141</ele>
        <time>2021-03-07T14:48:10.000Z</time>
      </trkpt>
      <trkpt lat="44.40008" lon="6.07956">
        <ele>1279.4000244141</ele>
        <time>2021-03-07T14:48:12.000Z</time>
      </trkpt>
      <trkpt lat="44.40005" lon="6.07951">
        <ele>1280</ele>
        <time>2021-03-07T14:48:14.000Z</time>
      </trkpt>
      <trkpt lat="44.40003" lon="6.07949">
        <ele>1280.8000488281</ele>
        <time>2021-03-07T14:48:15.000Z</time>
      </trkpt>
      <trkpt lat="44.39999" lon="6.07942">
        <ele>1281.8000488281</ele>
        <time>2021-03-07T14:48:18.000Z</time>
      </trkpt>
      <trkpt lat="44.39999" lon="6.07939">
        <ele>1282.1999511719</ele>
        <time>2021-03-07T14:48:19.000Z</time>
      </trkpt>
      <trkpt lat="44.39997" lon="6.07932">
        <ele>1283.1999511719</ele>
        <time>2021-03-07T14:48:21.000Z</time>
      </trkpt>
      <trkpt lat="44.39993" lon="6.07927">
        <ele>1284</ele>
        <time>2021-03-07T14:48:23.000Z</time>
      </trkpt>
      <trkpt lat="44.39991" lon="6.07925">
        <ele>1284.1999511719</ele>
        <time>2021-03-07T14:48:24.000Z</time>
      </trkpt>
      <trkpt lat="44.39983" lon="6.07911">
        <ele>1285.4000244141</ele>
        <time>2021-03-07T14:48:28.000Z</time>
      </trkpt>
      <trkpt lat="44.39987" lon="6.07892">
        <ele>1286.1999511719</ele>
        <time>2021-03-07T14:48:32.000Z</time>
      </trkpt>
      <trkpt lat="44.39991" lon="6.07876">
        <ele>1286.1999511719</ele>
        <time>2021-03-07T14:48:35.000Z</time>
      </trkpt>
      <trkpt lat="44.39991" lon="6.0787">
        <ele>1286.1999511719</ele>
        <time>2021-03-07T14:48:36.000Z</time>
      </trkpt>
      <trkpt lat="44.39986" lon="6.07844">
        <ele>1286.1999511719</ele>
        <time>2021-03-07T14:48:40.000Z</time>
      </trkpt>
      <trkpt lat="44.3998" lon="6.07815">
        <ele>1285.5999755859</ele>
        <time>2021-03-07T14:48:44.000Z</time>
      </trkpt>
      <trkpt lat="44.39981" lon="6.07811">
        <ele>1285</ele>
        <time>2021-03-07T14:48:45.000Z</time>
      </trkpt>
      <trkpt lat="44.39983" lon="6.07805">
        <ele>1284</ele>
        <time>2021-03-07T14:48:47.000Z</time>
      </trkpt>
      <trkpt lat="44.39985" lon="6.07796">
        <ele>1282.1999511719</ele>
        <time>2021-03-07T14:48:49.000Z</time>
      </trkpt>
      <trkpt lat="44.39984" lon="6.07786">
        <ele>1280.8000488281</ele>
        <time>2021-03-07T14:48:51.000Z</time>
      </trkpt>
      <trkpt lat="44.39983" lon="6.07776">
        <ele>1280</ele>
        <time>2021-03-07T14:48:54.000Z</time>
      </trkpt>
      <trkpt lat="44.39981" lon="6.07772">
        <ele>1279.8000488281</ele>
        <time>2021-03-07T14:48:55.000Z</time>
      </trkpt>
      <trkpt lat="44.3998" lon="6.07768">
        <ele>1279.5999755859</ele>
        <time>2021-03-07T14:48:56.000Z</time>
      </trkpt>
      <trkpt lat="44.39974" lon="6.07752">
        <ele>1279.4000244141</ele>
        <time>2021-03-07T14:48:59.000Z</time>
      </trkpt>
      <trkpt lat="44.39964" lon="6.07724">
        <ele>1279.4000244141</ele>
        <time>2021-03-07T14:49:04.000Z</time>
      </trkpt>
      <trkpt lat="44.39953" lon="6.07695">
        <ele>1279.5999755859</ele>
        <time>2021-03-07T14:49:09.000Z</time>
      </trkpt>
      <trkpt lat="44.39951" lon="6.0769">
        <ele>1279.8000488281</ele>
        <time>2021-03-07T14:49:10.000Z</time>
      </trkpt>
      <trkpt lat="44.39943" lon="6.07674">
        <ele>1280.5999755859</ele>
        <time>2021-03-07T14:49:14.000Z</time>
      </trkpt>
      <trkpt lat="44.39943" lon="6.0767">
        <ele>1280.8000488281</ele>
        <time>2021-03-07T14:49:15.000Z</time>
      </trkpt>
      <trkpt lat="44.39941" lon="6.0766">
        <ele>1281.5999755859</ele>
        <time>2021-03-07T14:49:18.000Z</time>
      </trkpt>
      <trkpt lat="44.39937" lon="6.07656">
        <ele>1282</ele>
        <time>2021-03-07T14:49:20.000Z</time>
      </trkpt>
      <trkpt lat="44.39933" lon="6.0765">
        <ele>1282.4000244141</ele>
        <time>2021-03-07T14:49:22.000Z</time>
      </trkpt>
      <trkpt lat="44.39931" lon="6.07647">
        <ele>1282.4000244141</ele>
        <time>2021-03-07T14:49:23.000Z</time>
      </trkpt>
      <trkpt lat="44.39926" lon="6.07633">
        <ele>1282.5999755859</ele>
        <time>2021-03-07T14:49:26.000Z</time>
      </trkpt>
      <trkpt lat="44.39914" lon="6.07608">
        <ele>1283</ele>
        <time>2021-03-07T14:49:31.000Z</time>
      </trkpt>
      <trkpt lat="44.39899" lon="6.07591">
        <ele>1282.8000488281</ele>
        <time>2021-03-07T14:49:35.000Z</time>
      </trkpt>
      <trkpt lat="44.39886" lon="6.07582">
        <ele>1282.5999755859</ele>
        <time>2021-03-07T14:49:39.000Z</time>
      </trkpt>
      <trkpt lat="44.39882" lon="6.07579">
        <ele>1282.5999755859</ele>
        <time>2021-03-07T14:49:41.000Z</time>
      </trkpt>
      <trkpt lat="44.39876" lon="6.07572">
        <ele>1282.5999755859</ele>
        <time>2021-03-07T14:49:44.000Z</time>
      </trkpt>
      <trkpt lat="44.39869" lon="6.07562">
        <ele>1282.5999755859</ele>
        <time>2021-03-07T14:49:46.000Z</time>
      </trkpt>
      <trkpt lat="44.39865" lon="6.07556">
        <ele>1282.5999755859</ele>
        <time>2021-03-07T14:49:47.000Z</time>
      </trkpt>
      <trkpt lat="44.39854" lon="6.07533">
        <ele>1282.5999755859</ele>
        <time>2021-03-07T14:49:50.000Z</time>
      </trkpt>
      <trkpt lat="44.39851" lon="6.07526">
        <ele>1282.5999755859</ele>
        <time>2021-03-07T14:49:51.000Z</time>
      </trkpt>
      <trkpt lat="44.39841" lon="6.07506">
        <ele>1282.5999755859</ele>
        <time>2021-03-07T14:49:54.000Z</time>
      </trkpt>
      <trkpt lat="44.39831" lon="6.07488">
        <ele>1282.4000244141</ele>
        <time>2021-03-07T14:49:57.000Z</time>
      </trkpt>
      <trkpt lat="44.3982" lon="6.07467">
        <ele>1281.8000488281</ele>
        <time>2021-03-07T14:50:00.000Z</time>
      </trkpt>
      <trkpt lat="44.39815" lon="6.07463">
        <ele>1281.5999755859</ele>
        <time>2021-03-07T14:50:01.000Z</time>
      </trkpt>
      <trkpt lat="44.39804" lon="6.07454">
        <ele>1281</ele>
        <time>2021-03-07T14:50:04.000Z</time>
      </trkpt>
      <trkpt lat="44.39801" lon="6.07451">
        <ele>1281</ele>
        <time>2021-03-07T14:50:05.000Z</time>
      </trkpt>
      <trkpt lat="44.398" lon="6.07444">
        <ele>1281</ele>
        <time>2021-03-07T14:50:09.000Z</time>
      </trkpt>
      <trkpt lat="44.39797" lon="6.07442">
        <ele>1281.4000244141</ele>
        <time>2021-03-07T14:50:15.000Z</time>
      </trkpt>
      <trkpt lat="44.39797" lon="6.07441">
        <ele>1281.5999755859</ele>
        <time>2021-03-07T14:50:29.000Z</time>
      </trkpt>
      <trkpt lat="44.39798" lon="6.0744">
        <ele>1281.5999755859</ele>
        <time>2021-03-07T14:50:35.000Z</time>
      </trkpt>
      <trkpt lat="44.39799" lon="6.07438">
        <ele>1281.5999755859</ele>
        <time>2021-03-07T14:50:36.000Z</time>
      </trkpt>
      <trkpt lat="44.39802" lon="6.07431">
        <ele>1281.5999755859</ele>
        <time>2021-03-07T14:50:38.000Z</time>
      </trkpt>
      <trkpt lat="44.39802" lon="6.07422">
        <ele>1281.5999755859</ele>
        <time>2021-03-07T14:50:40.000Z</time>
      </trkpt>
      <trkpt lat="44.39795" lon="6.07401">
        <ele>1281.4000244141</ele>
        <time>2021-03-07T14:50:44.000Z</time>
      </trkpt>
      <trkpt lat="44.39792" lon="6.07395">
        <ele>1281.4000244141</ele>
        <time>2021-03-07T14:50:45.000Z</time>
      </trkpt>
      <trkpt lat="44.3979" lon="6.07389">
        <ele>1281.4000244141</ele>
        <time>2021-03-07T14:50:46.000Z</time>
      </trkpt>
      <trkpt lat="44.39786" lon="6.07377">
        <ele>1281</ele>
        <time>2021-03-07T14:50:48.000Z</time>
      </trkpt>
      <trkpt lat="44.39781" lon="6.07365">
        <ele>1280.5999755859</ele>
        <time>2021-03-07T14:50:50.000Z</time>
      </trkpt>
      <trkpt lat="44.39771" lon="6.07348">
        <ele>1280</ele>
        <time>2021-03-07T14:50:55.000Z</time>
      </trkpt>
      <trkpt lat="44.39769" lon="6.07345">
        <ele>1279.1999511719</ele>
        <time>2021-03-07T14:51:04.000Z</time>
      </trkpt>
      <trkpt lat="44.39769" lon="6.07345">
        <ele>1279.1999511719</ele>
        <time>2021-03-07T14:51:05.000Z</time>
      </trkpt>
      <trkpt lat="44.39768" lon="6.07341">
        <ele>1279</ele>
        <time>2021-03-07T14:51:13.000Z</time>
      </trkpt>
      <trkpt lat="44.39768" lon="6.07338">
        <ele>1279</ele>
        <time>2021-03-07T14:51:14.000Z</time>
      </trkpt>
      <trkpt lat="44.39763" lon="6.07311">
        <ele>1278.8000488281</ele>
        <time>2021-03-07T14:51:19.000Z</time>
      </trkpt>
      <trkpt lat="44.39758" lon="6.07295">
        <ele>1278.1999511719</ele>
        <time>2021-03-07T14:51:22.000Z</time>
      </trkpt>
      <trkpt lat="44.39756" lon="6.07289">
        <ele>1277.5999755859</ele>
        <time>2021-03-07T14:51:23.000Z</time>
      </trkpt>
      <trkpt lat="44.39756" lon="6.07279">
        <ele>1277</ele>
        <time>2021-03-07T14:51:25.000Z</time>
      </trkpt>
      <trkpt lat="44.39756" lon="6.07271">
        <ele>1275.8000488281</ele>
        <time>2021-03-07T14:51:27.000Z</time>
      </trkpt>
      <trkpt lat="44.39752" lon="6.07252">
        <ele>1274.8000488281</ele>
        <time>2021-03-07T14:51:30.000Z</time>
      </trkpt>
      <trkpt lat="44.3975" lon="6.07238">
        <ele>1274.4000244141</ele>
        <time>2021-03-07T14:51:32.000Z</time>
      </trkpt>
      <trkpt lat="44.39748" lon="6.07221">
        <ele>1273.5999755859</ele>
        <time>2021-03-07T14:51:34.000Z</time>
      </trkpt>
      <trkpt lat="44.39751" lon="6.07204">
        <ele>1272.4000244141</ele>
        <time>2021-03-07T14:51:36.000Z</time>
      </trkpt>
      <trkpt lat="44.39754" lon="6.07197">
        <ele>1271.8000488281</ele>
        <time>2021-03-07T14:51:37.000Z</time>
      </trkpt>
      <trkpt lat="44.39754" lon="6.07188">
        <ele>1271.1999511719</ele>
        <time>2021-03-07T14:51:38.000Z</time>
      </trkpt>
      <trkpt lat="44.39753" lon="6.07172">
        <ele>1270</ele>
        <time>2021-03-07T14:51:40.000Z</time>
      </trkpt>
      <trkpt lat="44.39758" lon="6.07147">
        <ele>1269.1999511719</ele>
        <time>2021-03-07T14:51:44.000Z</time>
      </trkpt>
      <trkpt lat="44.39758" lon="6.0714">
        <ele>1269.1999511719</ele>
        <time>2021-03-07T14:51:45.000Z</time>
      </trkpt>
      <trkpt lat="44.39769" lon="6.07096">
        <ele>1269</ele>
        <time>2021-03-07T14:51:51.000Z</time>
      </trkpt>
      <trkpt lat="44.39771" lon="6.07089">
        <ele>1268.8000488281</ele>
        <time>2021-03-07T14:51:52.000Z</time>
      </trkpt>
      <trkpt lat="44.39773" lon="6.07084">
        <ele>1268.8000488281</ele>
        <time>2021-03-07T14:51:53.000Z</time>
      </trkpt>
      <trkpt lat="44.39771" lon="6.07074">
        <ele>1268.8000488281</ele>
        <time>2021-03-07T14:51:55.000Z</time>
      </trkpt>
      <trkpt lat="44.3977" lon="6.07067">
        <ele>1268.8000488281</ele>
        <time>2021-03-07T14:51:57.000Z</time>
      </trkpt>
      <trkpt lat="44.39771" lon="6.07063">
        <ele>1268.5999755859</ele>
        <time>2021-03-07T14:51:58.000Z</time>
      </trkpt>
      <trkpt lat="44.39776" lon="6.07058">
        <ele>1268</ele>
        <time>2021-03-07T14:52:00.000Z</time>
      </trkpt>
      <trkpt lat="44.39781" lon="6.07056">
        <ele>1267.1999511719</ele>
        <time>2021-03-07T14:52:02.000Z</time>
      </trkpt>
      <trkpt lat="44.39782" lon="6.07053">
        <ele>1266.8000488281</ele>
        <time>2021-03-07T14:52:03.000Z</time>
      </trkpt>
      <trkpt lat="44.39783" lon="6.07043">
        <ele>1265.4000244141</ele>
        <time>2021-03-07T14:52:05.000Z</time>
      </trkpt>
      <trkpt lat="44.39783" lon="6.07034">
        <ele>1264</ele>
        <time>2021-03-07T14:52:07.000Z</time>
      </trkpt>
      <trkpt lat="44.39785" lon="6.07028">
        <ele>1262.4000244141</ele>
        <time>2021-03-07T14:52:09.000Z</time>
      </trkpt>
      <trkpt lat="44.39784" lon="6.07022">
        <ele>1261.1999511719</ele>
        <time>2021-03-07T14:52:11.000Z</time>
      </trkpt>
      <trkpt lat="44.39784" lon="6.07018">
        <ele>1260.5999755859</ele>
        <time>2021-03-07T14:52:12.000Z</time>
      </trkpt>
      <trkpt lat="44.39784" lon="6.07013">
        <ele>1259.8000488281</ele>
        <time>2021-03-07T14:52:13.000Z</time>
      </trkpt>
      <trkpt lat="44.39787" lon="6.07005">
        <ele>1258</ele>
        <time>2021-03-07T14:52:15.000Z</time>
      </trkpt>
      <trkpt lat="44.39788" lon="6.07002">
        <ele>1256.8000488281</ele>
        <time>2021-03-07T14:52:16.000Z</time>
      </trkpt>
      <trkpt lat="44.39792" lon="6.06995">
        <ele>1255</ele>
        <time>2021-03-07T14:52:18.000Z</time>
      </trkpt>
      <trkpt lat="44.39792" lon="6.06992">
        <ele>1254.1999511719</ele>
        <time>2021-03-07T14:52:19.000Z</time>
      </trkpt>
      <trkpt lat="44.39792" lon="6.06989">
        <ele>1252.4000244141</ele>
        <time>2021-03-07T14:52:20.000Z</time>
      </trkpt>
      <trkpt lat="44.39792" lon="6.0698">
        <ele>1250.4000244141</ele>
        <time>2021-03-07T14:52:22.000Z</time>
      </trkpt>
      <trkpt lat="44.39792" lon="6.06967">
        <ele>1248.8000488281</ele>
        <time>2021-03-07T14:52:24.000Z</time>
      </trkpt>
      <trkpt lat="44.39794" lon="6.0696">
        <ele>1247.8000488281</ele>
        <time>2021-03-07T14:52:25.000Z</time>
      </trkpt>
      <trkpt lat="44.39797" lon="6.06952">
        <ele>1246.8000488281</ele>
        <time>2021-03-07T14:52:26.000Z</time>
      </trkpt>
      <trkpt lat="44.39802" lon="6.06934">
        <ele>1245</ele>
        <time>2021-03-07T14:52:28.000Z</time>
      </trkpt>
      <trkpt lat="44.39805" lon="6.06924">
        <ele>1243.8000488281</ele>
        <time>2021-03-07T14:52:29.000Z</time>
      </trkpt>
      <trkpt lat="44.39808" lon="6.06914">
        <ele>1242.8000488281</ele>
        <time>2021-03-07T14:52:30.000Z</time>
      </trkpt>
      <trkpt lat="44.39811" lon="6.06905">
        <ele>1242</ele>
        <time>2021-03-07T14:52:31.000Z</time>
      </trkpt>
      <trkpt lat="44.39814" lon="6.06898">
        <ele>1240.8000488281</ele>
        <time>2021-03-07T14:52:32.000Z</time>
      </trkpt>
      <trkpt lat="44.39817" lon="6.06892">
        <ele>1239.1999511719</ele>
        <time>2021-03-07T14:52:33.000Z</time>
      </trkpt>
      <trkpt lat="44.3982" lon="6.06887">
        <ele>1237.4000244141</ele>
        <time>2021-03-07T14:52:34.000Z</time>
      </trkpt>
      <trkpt lat="44.39822" lon="6.06883">
        <ele>1235.5999755859</ele>
        <time>2021-03-07T14:52:35.000Z</time>
      </trkpt>
      <trkpt lat="44.39823" lon="6.06878">
        <ele>1233.8000488281</ele>
        <time>2021-03-07T14:52:36.000Z</time>
      </trkpt>
      <trkpt lat="44.39823" lon="6.06873">
        <ele>1231.8000488281</ele>
        <time>2021-03-07T14:52:37.000Z</time>
      </trkpt>
      <trkpt lat="44.39823" lon="6.06868">
        <ele>1230</ele>
        <time>2021-03-07T14:52:38.000Z</time>
      </trkpt>
      <trkpt lat="44.39824" lon="6.06863">
        <ele>1228</ele>
        <time>2021-03-07T14:52:39.000Z</time>
      </trkpt>
      <trkpt lat="44.39826" lon="6.06857">
        <ele>1226.1999511719</ele>
        <time>2021-03-07T14:52:40.000Z</time>
      </trkpt>
      <trkpt lat="44.39828" lon="6.06849">
        <ele>1224.8000488281</ele>
        <time>2021-03-07T14:52:41.000Z</time>
      </trkpt>
      <trkpt lat="44.3983" lon="6.0684">
        <ele>1223.5999755859</ele>
        <time>2021-03-07T14:52:42.000Z</time>
      </trkpt>
      <trkpt lat="44.39834" lon="6.06821">
        <ele>1221.5999755859</ele>
        <time>2021-03-07T14:52:44.000Z</time>
      </trkpt>
      <trkpt lat="44.39838" lon="6.06807">
        <ele>1220.1999511719</ele>
        <time>2021-03-07T14:52:46.000Z</time>
      </trkpt>
      <trkpt lat="44.39839" lon="6.06804">
        <ele>1219.5999755859</ele>
        <time>2021-03-07T14:52:47.000Z</time>
      </trkpt>
      <trkpt lat="44.39842" lon="6.06804">
        <ele>1218.1999511719</ele>
        <time>2021-03-07T14:52:48.000Z</time>
      </trkpt>
      <trkpt lat="44.39845" lon="6.06805">
        <ele>1217.5999755859</ele>
        <time>2021-03-07T14:52:49.000Z</time>
      </trkpt>
      <trkpt lat="44.39847" lon="6.06807">
        <ele>1216.8000488281</ele>
        <time>2021-03-07T14:52:50.000Z</time>
      </trkpt>
      <trkpt lat="44.3985" lon="6.06809">
        <ele>1215.4000244141</ele>
        <time>2021-03-07T14:52:51.000Z</time>
      </trkpt>
      <trkpt lat="44.39851" lon="6.06811">
        <ele>1213.5999755859</ele>
        <time>2021-03-07T14:52:52.000Z</time>
      </trkpt>
      <trkpt lat="44.39851" lon="6.06811">
        <ele>1212.4000244141</ele>
        <time>2021-03-07T14:52:53.000Z</time>
      </trkpt>
      <trkpt lat="44.39851" lon="6.06812">
        <ele>1211</ele>
        <time>2021-03-07T14:52:55.000Z</time>
      </trkpt>
      <trkpt lat="44.39852" lon="6.06812">
        <ele>1209.8000488281</ele>
        <time>2021-03-07T14:52:57.000Z</time>
      </trkpt>
      <trkpt lat="44.39852" lon="6.06811">
        <ele>1208</ele>
        <time>2021-03-07T14:52:59.000Z</time>
      </trkpt>
      <trkpt lat="44.39852" lon="6.06811">
        <ele>1206.8000488281</ele>
        <time>2021-03-07T14:53:01.000Z</time>
      </trkpt>
      <trkpt lat="44.39852" lon="6.06811">
        <ele>1205.8000488281</ele>
        <time>2021-03-07T14:53:21.000Z</time>
      </trkpt>
      <trkpt lat="44.39852" lon="6.06811">
        <ele>1205.8000488281</ele>
        <time>2021-03-07T14:53:33.000Z</time>
      </trkpt>
      <trkpt lat="44.39854" lon="6.0681">
        <ele>1205.8000488281</ele>
        <time>2021-03-07T14:53:40.000Z</time>
      </trkpt>
      <trkpt lat="44.39857" lon="6.0681">
        <ele>1205.8000488281</ele>
        <time>2021-03-07T14:53:41.000Z</time>
      </trkpt>
      <trkpt lat="44.39873" lon="6.06813">
        <ele>1205.4000244141</ele>
        <time>2021-03-07T14:53:46.000Z</time>
      </trkpt>
      <trkpt lat="44.39877" lon="6.06815">
        <ele>1204.4000244141</ele>
        <time>2021-03-07T14:53:47.000Z</time>
      </trkpt>
      <trkpt lat="44.3988" lon="6.06817">
        <ele>1203.1999511719</ele>
        <time>2021-03-07T14:53:48.000Z</time>
      </trkpt>
      <trkpt lat="44.39882" lon="6.06819">
        <ele>1202</ele>
        <time>2021-03-07T14:53:49.000Z</time>
      </trkpt>
      <trkpt lat="44.39885" lon="6.06819">
        <ele>1201</ele>
        <time>2021-03-07T14:53:50.000Z</time>
      </trkpt>
      <trkpt lat="44.39889" lon="6.06819">
        <ele>1199.8000488281</ele>
        <time>2021-03-07T14:53:51.000Z</time>
      </trkpt>
      <trkpt lat="44.39892" lon="6.06819">
        <ele>1198.5999755859</ele>
        <time>2021-03-07T14:53:52.000Z</time>
      </trkpt>
      <trkpt lat="44.39894" lon="6.0682">
        <ele>1197.5999755859</ele>
        <time>2021-03-07T14:53:53.000Z</time>
      </trkpt>
      <trkpt lat="44.39897" lon="6.06821">
        <ele>1196.1999511719</ele>
        <time>2021-03-07T14:53:54.000Z</time>
      </trkpt>
      <trkpt lat="44.39899" lon="6.0682">
        <ele>1195</ele>
        <time>2021-03-07T14:53:55.000Z</time>
      </trkpt>
      <trkpt lat="44.39901" lon="6.06818">
        <ele>1193.5999755859</ele>
        <time>2021-03-07T14:53:56.000Z</time>
      </trkpt>
      <trkpt lat="44.39904" lon="6.06814">
        <ele>1192.1999511719</ele>
        <time>2021-03-07T14:53:57.000Z</time>
      </trkpt>
      <trkpt lat="44.39907" lon="6.06809">
        <ele>1191</ele>
        <time>2021-03-07T14:53:58.000Z</time>
      </trkpt>
      <trkpt lat="44.3991" lon="6.06804">
        <ele>1189.8000488281</ele>
        <time>2021-03-07T14:53:59.000Z</time>
      </trkpt>
      <trkpt lat="44.39912" lon="6.068">
        <ele>1188.5999755859</ele>
        <time>2021-03-07T14:54:00.000Z</time>
      </trkpt>
      <trkpt lat="44.39913" lon="6.06798">
        <ele>1187.1999511719</ele>
        <time>2021-03-07T14:54:01.000Z</time>
      </trkpt>
      <trkpt lat="44.39915" lon="6.06795">
        <ele>1186</ele>
        <time>2021-03-07T14:54:02.000Z</time>
      </trkpt>
      <trkpt lat="44.39915" lon="6.06793">
        <ele>1185</ele>
        <time>2021-03-07T14:54:03.000Z</time>
      </trkpt>
      <trkpt lat="44.39917" lon="6.06787">
        <ele>1183</ele>
        <time>2021-03-07T14:54:05.000Z</time>
      </trkpt>
      <trkpt lat="44.39918" lon="6.06784">
        <ele>1181.8000488281</ele>
        <time>2021-03-07T14:54:06.000Z</time>
      </trkpt>
      <trkpt lat="44.39919" lon="6.06781">
        <ele>1180.5999755859</ele>
        <time>2021-03-07T14:54:07.000Z</time>
      </trkpt>
      <trkpt lat="44.3992" lon="6.06778">
        <ele>1179.8000488281</ele>
        <time>2021-03-07T14:54:08.000Z</time>
      </trkpt>
      <trkpt lat="44.39922" lon="6.06776">
        <ele>1178.8000488281</ele>
        <time>2021-03-07T14:54:09.000Z</time>
      </trkpt>
      <trkpt lat="44.39924" lon="6.06775">
        <ele>1177.8000488281</ele>
        <time>2021-03-07T14:54:10.000Z</time>
      </trkpt>
      <trkpt lat="44.39926" lon="6.06774">
        <ele>1177.5999755859</ele>
        <time>2021-03-07T14:54:11.000Z</time>
      </trkpt>
      <trkpt lat="44.3993" lon="6.06776">
        <ele>1177</ele>
        <time>2021-03-07T14:54:13.000Z</time>
      </trkpt>
      <trkpt lat="44.39933" lon="6.06778">
        <ele>1176.4000244141</ele>
        <time>2021-03-07T14:54:14.000Z</time>
      </trkpt>
      <trkpt lat="44.39936" lon="6.0678">
        <ele>1175.8000488281</ele>
        <time>2021-03-07T14:54:15.000Z</time>
      </trkpt>
      <trkpt lat="44.39939" lon="6.06782">
        <ele>1175.4000244141</ele>
        <time>2021-03-07T14:54:16.000Z</time>
      </trkpt>
      <trkpt lat="44.39944" lon="6.06782">
        <ele>1174</ele>
        <time>2021-03-07T14:54:18.000Z</time>
      </trkpt>
      <trkpt lat="44.39948" lon="6.06779">
        <ele>1172</ele>
        <time>2021-03-07T14:54:20.000Z</time>
      </trkpt>
      <trkpt lat="44.3995" lon="6.06774">
        <ele>1170</ele>
        <time>2021-03-07T14:54:22.000Z</time>
      </trkpt>
      <trkpt lat="44.39951" lon="6.06771">
        <ele>1168.8000488281</ele>
        <time>2021-03-07T14:54:23.000Z</time>
      </trkpt>
      <trkpt lat="44.39953" lon="6.06762">
        <ele>1167</ele>
        <time>2021-03-07T14:54:25.000Z</time>
      </trkpt>
      <trkpt lat="44.39954" lon="6.06751">
        <ele>1165.5999755859</ele>
        <time>2021-03-07T14:54:27.000Z</time>
      </trkpt>
      <trkpt lat="44.39951" lon="6.06741">
        <ele>1164.4000244141</ele>
        <time>2021-03-07T14:54:29.000Z</time>
      </trkpt>
      <trkpt lat="44.39948" lon="6.06733">
        <ele>1163</ele>
        <time>2021-03-07T14:54:31.000Z</time>
      </trkpt>
      <trkpt lat="44.39947" lon="6.0673">
        <ele>1162.4000244141</ele>
        <time>2021-03-07T14:54:32.000Z</time>
      </trkpt>
      <trkpt lat="44.39947" lon="6.06727">
        <ele>1161.5999755859</ele>
        <time>2021-03-07T14:54:33.000Z</time>
      </trkpt>
      <trkpt lat="44.39946" lon="6.06724">
        <ele>1160.1999511719</ele>
        <time>2021-03-07T14:54:34.000Z</time>
      </trkpt>
      <trkpt lat="44.39946" lon="6.06721">
        <ele>1159.1999511719</ele>
        <time>2021-03-07T14:54:35.000Z</time>
      </trkpt>
      <trkpt lat="44.39946" lon="6.06718">
        <ele>1158</ele>
        <time>2021-03-07T14:54:36.000Z</time>
      </trkpt>
      <trkpt lat="44.39946" lon="6.06716">
        <ele>1155.5999755859</ele>
        <time>2021-03-07T14:54:37.000Z</time>
      </trkpt>
      <trkpt lat="44.39945" lon="6.06712">
        <ele>1154.8000488281</ele>
        <time>2021-03-07T14:54:38.000Z</time>
      </trkpt>
      <trkpt lat="44.39945" lon="6.06709">
        <ele>1154.1999511719</ele>
        <time>2021-03-07T14:54:39.000Z</time>
      </trkpt>
      <trkpt lat="44.39945" lon="6.06706">
        <ele>1153.8000488281</ele>
        <time>2021-03-07T14:54:40.000Z</time>
      </trkpt>
      <trkpt lat="44.39947" lon="6.06704">
        <ele>1153</ele>
        <time>2021-03-07T14:54:41.000Z</time>
      </trkpt>
      <trkpt lat="44.39947" lon="6.067">
        <ele>1151</ele>
        <time>2021-03-07T14:54:43.000Z</time>
      </trkpt>
      <trkpt lat="44.39947" lon="6.06697">
        <ele>1150.1999511719</ele>
        <time>2021-03-07T14:54:44.000Z</time>
      </trkpt>
      <trkpt lat="44.39948" lon="6.06695">
        <ele>1149.4000244141</ele>
        <time>2021-03-07T14:54:45.000Z</time>
      </trkpt>
      <trkpt lat="44.39951" lon="6.06691">
        <ele>1147.4000244141</ele>
        <time>2021-03-07T14:54:47.000Z</time>
      </trkpt>
      <trkpt lat="44.39952" lon="6.06683">
        <ele>1145.5999755859</ele>
        <time>2021-03-07T14:54:49.000Z</time>
      </trkpt>
      <trkpt lat="44.39951" lon="6.06674">
        <ele>1143.8000488281</ele>
        <time>2021-03-07T14:54:51.000Z</time>
      </trkpt>
      <trkpt lat="44.3995" lon="6.06669">
        <ele>1143</ele>
        <time>2021-03-07T14:54:52.000Z</time>
      </trkpt>
      <trkpt lat="44.3995" lon="6.06665">
        <ele>1142.1999511719</ele>
        <time>2021-03-07T14:54:53.000Z</time>
      </trkpt>
      <trkpt lat="44.3995" lon="6.06657">
        <ele>1140.4000244141</ele>
        <time>2021-03-07T14:54:55.000Z</time>
      </trkpt>
      <trkpt lat="44.39952" lon="6.06655">
        <ele>1139.5999755859</ele>
        <time>2021-03-07T14:54:56.000Z</time>
      </trkpt>
      <trkpt lat="44.39953" lon="6.06653">
        <ele>1138.4000244141</ele>
        <time>2021-03-07T14:54:57.000Z</time>
      </trkpt>
      <trkpt lat="44.39953" lon="6.06651">
        <ele>1137</ele>
        <time>2021-03-07T14:54:58.000Z</time>
      </trkpt>
      <trkpt lat="44.39952" lon="6.06647">
        <ele>1135.5999755859</ele>
        <time>2021-03-07T14:54:59.000Z</time>
      </trkpt>
      <trkpt lat="44.39951" lon="6.06643">
        <ele>1134.1999511719</ele>
        <time>2021-03-07T14:55:00.000Z</time>
      </trkpt>
      <trkpt lat="44.39952" lon="6.0664">
        <ele>1132.8000488281</ele>
        <time>2021-03-07T14:55:01.000Z</time>
      </trkpt>
      <trkpt lat="44.39954" lon="6.06638">
        <ele>1131.4000244141</ele>
        <time>2021-03-07T14:55:02.000Z</time>
      </trkpt>
      <trkpt lat="44.39955" lon="6.06636">
        <ele>1130</ele>
        <time>2021-03-07T14:55:03.000Z</time>
      </trkpt>
      <trkpt lat="44.39955" lon="6.06634">
        <ele>1128.5999755859</ele>
        <time>2021-03-07T14:55:04.000Z</time>
      </trkpt>
      <trkpt lat="44.39955" lon="6.06632">
        <ele>1126.8000488281</ele>
        <time>2021-03-07T14:55:05.000Z</time>
      </trkpt>
      <trkpt lat="44.39954" lon="6.06629">
        <ele>1126</ele>
        <time>2021-03-07T14:55:06.000Z</time>
      </trkpt>
      <trkpt lat="44.39953" lon="6.06626">
        <ele>1124.8000488281</ele>
        <time>2021-03-07T14:55:07.000Z</time>
      </trkpt>
      <trkpt lat="44.39952" lon="6.06623">
        <ele>1123.5999755859</ele>
        <time>2021-03-07T14:55:08.000Z</time>
      </trkpt>
      <trkpt lat="44.39954" lon="6.06617">
        <ele>1121.8000488281</ele>
        <time>2021-03-07T14:55:10.000Z</time>
      </trkpt>
      <trkpt lat="44.39955" lon="6.06611">
        <ele>1120.1999511719</ele>
        <time>2021-03-07T14:55:12.000Z</time>
      </trkpt>
      <trkpt lat="44.39954" lon="6.06607">
        <ele>1119.5999755859</ele>
        <time>2021-03-07T14:55:13.000Z</time>
      </trkpt>
      <trkpt lat="44.39952" lon="6.06603">
        <ele>1118.5999755859</ele>
        <time>2021-03-07T14:55:14.000Z</time>
      </trkpt>
      <trkpt lat="44.39952" lon="6.06599">
        <ele>1117.4000244141</ele>
        <time>2021-03-07T14:55:15.000Z</time>
      </trkpt>
      <trkpt lat="44.39953" lon="6.06594">
        <ele>1115.5999755859</ele>
        <time>2021-03-07T14:55:17.000Z</time>
      </trkpt>
      <trkpt lat="44.39953" lon="6.06588">
        <ele>1114</ele>
        <time>2021-03-07T14:55:19.000Z</time>
      </trkpt>
      <trkpt lat="44.39956" lon="6.06583">
        <ele>1112.4000244141</ele>
        <time>2021-03-07T14:55:21.000Z</time>
      </trkpt>
      <trkpt lat="44.39961" lon="6.06576">
        <ele>1110.1999511719</ele>
        <time>2021-03-07T14:55:23.000Z</time>
      </trkpt>
      <trkpt lat="44.39965" lon="6.06572">
        <ele>1108.5999755859</ele>
        <time>2021-03-07T14:55:25.000Z</time>
      </trkpt>
      <trkpt lat="44.39966" lon="6.06568">
        <ele>1107.8000488281</ele>
        <time>2021-03-07T14:55:26.000Z</time>
      </trkpt>
      <trkpt lat="44.39966" lon="6.06563">
        <ele>1106.8000488281</ele>
        <time>2021-03-07T14:55:27.000Z</time>
      </trkpt>
      <trkpt lat="44.39965" lon="6.06557">
        <ele>1105.8000488281</ele>
        <time>2021-03-07T14:55:28.000Z</time>
      </trkpt>
      <trkpt lat="44.39965" lon="6.06553">
        <ele>1104.5999755859</ele>
        <time>2021-03-07T14:55:29.000Z</time>
      </trkpt>
      <trkpt lat="44.39966" lon="6.0655">
        <ele>1103.5999755859</ele>
        <time>2021-03-07T14:55:30.000Z</time>
      </trkpt>
      <trkpt lat="44.39965" lon="6.06546">
        <ele>1102.4000244141</ele>
        <time>2021-03-07T14:55:31.000Z</time>
      </trkpt>
      <trkpt lat="44.39964" lon="6.06543">
        <ele>1099.5999755859</ele>
        <time>2021-03-07T14:55:32.000Z</time>
      </trkpt>
      <trkpt lat="44.39962" lon="6.0654">
        <ele>1098.4000244141</ele>
        <time>2021-03-07T14:55:33.000Z</time>
      </trkpt>
      <trkpt lat="44.3996" lon="6.06537">
        <ele>1097.1999511719</ele>
        <time>2021-03-07T14:55:34.000Z</time>
      </trkpt>
      <trkpt lat="44.3996" lon="6.06535">
        <ele>1096</ele>
        <time>2021-03-07T14:55:35.000Z</time>
      </trkpt>
      <trkpt lat="44.3996" lon="6.06533">
        <ele>1094.5999755859</ele>
        <time>2021-03-07T14:55:36.000Z</time>
      </trkpt>
      <trkpt lat="44.3996" lon="6.06531">
        <ele>1093.1999511719</ele>
        <time>2021-03-07T14:55:37.000Z</time>
      </trkpt>
      <trkpt lat="44.39961" lon="6.06529">
        <ele>1092.1999511719</ele>
        <time>2021-03-07T14:55:38.000Z</time>
      </trkpt>
      <trkpt lat="44.39961" lon="6.06527">
        <ele>1091.4000244141</ele>
        <time>2021-03-07T14:55:39.000Z</time>
      </trkpt>
      <trkpt lat="44.3996" lon="6.06525">
        <ele>1090.4000244141</ele>
        <time>2021-03-07T14:55:40.000Z</time>
      </trkpt>
      <trkpt lat="44.39959" lon="6.06524">
        <ele>1089.4000244141</ele>
        <time>2021-03-07T14:55:41.000Z</time>
      </trkpt>
      <trkpt lat="44.39957" lon="6.06522">
        <ele>1088</ele>
        <time>2021-03-07T14:55:42.000Z</time>
      </trkpt>
      <trkpt lat="44.39957" lon="6.06521">
        <ele>1086.8000488281</ele>
        <time>2021-03-07T14:55:43.000Z</time>
      </trkpt>
      <trkpt lat="44.39957" lon="6.06518">
        <ele>1085.8000488281</ele>
        <time>2021-03-07T14:55:44.000Z</time>
      </trkpt>
      <trkpt lat="44.39956" lon="6.06514">
        <ele>1084</ele>
        <time>2021-03-07T14:55:46.000Z</time>
      </trkpt>
      <trkpt lat="44.39955" lon="6.06513">
        <ele>1083.1999511719</ele>
        <time>2021-03-07T14:55:47.000Z</time>
      </trkpt>
      <trkpt lat="44.39955" lon="6.06512">
        <ele>1082.5999755859</ele>
        <time>2021-03-07T14:55:48.000Z</time>
      </trkpt>
      <trkpt lat="44.39958" lon="6.06508">
        <ele>1081.1999511719</ele>
        <time>2021-03-07T14:55:50.000Z</time>
      </trkpt>
      <trkpt lat="44.39962" lon="6.06502">
        <ele>1079.8000488281</ele>
        <time>2021-03-07T14:55:52.000Z</time>
      </trkpt>
      <trkpt lat="44.39965" lon="6.065">
        <ele>1079.1999511719</ele>
        <time>2021-03-07T14:55:53.000Z</time>
      </trkpt>
      <trkpt lat="44.39967" lon="6.06498">
        <ele>1078.4000244141</ele>
        <time>2021-03-07T14:55:54.000Z</time>
      </trkpt>
      <trkpt lat="44.39971" lon="6.06496">
        <ele>1077.8000488281</ele>
        <time>2021-03-07T14:55:55.000Z</time>
      </trkpt>
      <trkpt lat="44.39974" lon="6.06494">
        <ele>1077.1999511719</ele>
        <time>2021-03-07T14:55:56.000Z</time>
      </trkpt>
      <trkpt lat="44.39981" lon="6.06494">
        <ele>1075.8000488281</ele>
        <time>2021-03-07T14:55:58.000Z</time>
      </trkpt>
      <trkpt lat="44.39985" lon="6.06495">
        <ele>1073.4000244141</ele>
        <time>2021-03-07T14:55:59.000Z</time>
      </trkpt>
      <trkpt lat="44.39989" lon="6.06497">
        <ele>1072.1999511719</ele>
        <time>2021-03-07T14:56:00.000Z</time>
      </trkpt>
      <trkpt lat="44.39992" lon="6.06498">
        <ele>1070.8000488281</ele>
        <time>2021-03-07T14:56:01.000Z</time>
      </trkpt>
      <trkpt lat="44.39994" lon="6.065">
        <ele>1069.1999511719</ele>
        <time>2021-03-07T14:56:02.000Z</time>
      </trkpt>
      <trkpt lat="44.39995" lon="6.06501">
        <ele>1067.8000488281</ele>
        <time>2021-03-07T14:56:03.000Z</time>
      </trkpt>
      <trkpt lat="44.39996" lon="6.06501">
        <ele>1066.4000244141</ele>
        <time>2021-03-07T14:56:04.000Z</time>
      </trkpt>
      <trkpt lat="44.39997" lon="6.06502">
        <ele>1065</ele>
        <time>2021-03-07T14:56:05.000Z</time>
      </trkpt>
      <trkpt lat="44.39998" lon="6.06502">
        <ele>1063.5999755859</ele>
        <time>2021-03-07T14:56:06.000Z</time>
      </trkpt>
      <trkpt lat="44.39998" lon="6.06501">
        <ele>1062.4000244141</ele>
        <time>2021-03-07T14:56:07.000Z</time>
      </trkpt>
      <trkpt lat="44.39998" lon="6.06501">
        <ele>1061.4000244141</ele>
        <time>2021-03-07T14:56:08.000Z</time>
      </trkpt>
      <trkpt lat="44.39999" lon="6.06499">
        <ele>1059.8000488281</ele>
        <time>2021-03-07T14:56:10.000Z</time>
      </trkpt>
      <trkpt lat="44.39999" lon="6.06497">
        <ele>1059.4000244141</ele>
        <time>2021-03-07T14:56:11.000Z</time>
      </trkpt>
      <trkpt lat="44.4" lon="6.06495">
        <ele>1058.5999755859</ele>
        <time>2021-03-07T14:56:12.000Z</time>
      </trkpt>
      <trkpt lat="44.40001" lon="6.06488">
        <ele>1057.5999755859</ele>
        <time>2021-03-07T14:56:15.000Z</time>
      </trkpt>
      <trkpt lat="44.40002" lon="6.06487">
        <ele>1057.4000244141</ele>
        <time>2021-03-07T14:56:16.000Z</time>
      </trkpt>
      <trkpt lat="44.40007" lon="6.06487">
        <ele>1056.5999755859</ele>
        <time>2021-03-07T14:56:19.000Z</time>
      </trkpt>
      <trkpt lat="44.40009" lon="6.06486">
        <ele>1055.4000244141</ele>
        <time>2021-03-07T14:56:21.000Z</time>
      </trkpt>
      <trkpt lat="44.4001" lon="6.06485">
        <ele>1053.8000488281</ele>
        <time>2021-03-07T14:56:23.000Z</time>
      </trkpt>
      <trkpt lat="44.4001" lon="6.06481">
        <ele>1052.1999511719</ele>
        <time>2021-03-07T14:56:25.000Z</time>
      </trkpt>
      <trkpt lat="44.40011" lon="6.06478">
        <ele>1051.4000244141</ele>
        <time>2021-03-07T14:56:26.000Z</time>
      </trkpt>
      <trkpt lat="44.40011" lon="6.06476">
        <ele>1049.5999755859</ele>
        <time>2021-03-07T14:56:27.000Z</time>
      </trkpt>
      <trkpt lat="44.40013" lon="6.06474">
        <ele>1048.4000244141</ele>
        <time>2021-03-07T14:56:29.000Z</time>
      </trkpt>
      <trkpt lat="44.40014" lon="6.06473">
        <ele>1048</ele>
        <time>2021-03-07T14:56:30.000Z</time>
      </trkpt>
      <trkpt lat="44.40014" lon="6.0647">
        <ele>1047.5999755859</ele>
        <time>2021-03-07T14:56:31.000Z</time>
      </trkpt>
      <trkpt lat="44.40013" lon="6.06467">
        <ele>1047.1999511719</ele>
        <time>2021-03-07T14:56:32.000Z</time>
      </trkpt>
      <trkpt lat="44.40012" lon="6.06462">
        <ele>1045.5999755859</ele>
        <time>2021-03-07T14:56:34.000Z</time>
      </trkpt>
      <trkpt lat="44.40012" lon="6.06459">
        <ele>1044.1999511719</ele>
        <time>2021-03-07T14:56:36.000Z</time>
      </trkpt>
      <trkpt lat="44.40016" lon="6.06455">
        <ele>1043</ele>
        <time>2021-03-07T14:56:38.000Z</time>
      </trkpt>
      <trkpt lat="44.4002" lon="6.06454">
        <ele>1041.1999511719</ele>
        <time>2021-03-07T14:56:40.000Z</time>
      </trkpt>
      <trkpt lat="44.40022" lon="6.06454">
        <ele>1040</ele>
        <time>2021-03-07T14:56:41.000Z</time>
      </trkpt>
      <trkpt lat="44.40023" lon="6.06453">
        <ele>1038.4000244141</ele>
        <time>2021-03-07T14:56:43.000Z</time>
      </trkpt>
      <trkpt lat="44.40024" lon="6.06452">
        <ele>1037.8000488281</ele>
        <time>2021-03-07T14:56:44.000Z</time>
      </trkpt>
      <trkpt lat="44.40025" lon="6.06452">
        <ele>1037.1999511719</ele>
        <time>2021-03-07T14:56:45.000Z</time>
      </trkpt>
      <trkpt lat="44.40025" lon="6.0645">
        <ele>1035</ele>
        <time>2021-03-07T14:56:47.000Z</time>
      </trkpt>
      <trkpt lat="44.40025" lon="6.06449">
        <ele>1033.8000488281</ele>
        <time>2021-03-07T14:56:48.000Z</time>
      </trkpt>
      <trkpt lat="44.40025" lon="6.06445">
        <ele>1032.8000488281</ele>
        <time>2021-03-07T14:56:49.000Z</time>
      </trkpt>
      <trkpt lat="44.40026" lon="6.06442">
        <ele>1031.8000488281</ele>
        <time>2021-03-07T14:56:50.000Z</time>
      </trkpt>
      <trkpt lat="44.40025" lon="6.06437">
        <ele>1030.8000488281</ele>
        <time>2021-03-07T14:56:51.000Z</time>
      </trkpt>
      <trkpt lat="44.40023" lon="6.0643">
        <ele>1029.1999511719</ele>
        <time>2021-03-07T14:56:53.000Z</time>
      </trkpt>
      <trkpt lat="44.40023" lon="6.06427">
        <ele>1028.5999755859</ele>
        <time>2021-03-07T14:56:54.000Z</time>
      </trkpt>
      <trkpt lat="44.40023" lon="6.06425">
        <ele>1028.4000244141</ele>
        <time>2021-03-07T14:56:55.000Z</time>
      </trkpt>
      <trkpt lat="44.40023" lon="6.06423">
        <ele>1027.8000488281</ele>
        <time>2021-03-07T14:56:56.000Z</time>
      </trkpt>
      <trkpt lat="44.40026" lon="6.0642">
        <ele>1026</ele>
        <time>2021-03-07T14:56:58.000Z</time>
      </trkpt>
      <trkpt lat="44.40027" lon="6.06418">
        <ele>1024.5999755859</ele>
        <time>2021-03-07T14:56:59.000Z</time>
      </trkpt>
      <trkpt lat="44.4003" lon="6.06418">
        <ele>1023</ele>
        <time>2021-03-07T14:57:00.000Z</time>
      </trkpt>
      <trkpt lat="44.40031" lon="6.06418">
        <ele>1021.799987793</ele>
        <time>2021-03-07T14:57:01.000Z</time>
      </trkpt>
      <trkpt lat="44.40033" lon="6.06417">
        <ele>1020.5999755859</ele>
        <time>2021-03-07T14:57:02.000Z</time>
      </trkpt>
      <trkpt lat="44.40035" lon="6.06416">
        <ele>1018.799987793</ele>
        <time>2021-03-07T14:57:04.000Z</time>
      </trkpt>
      <trkpt lat="44.40035" lon="6.06413">
        <ele>1016.5999755859</ele>
        <time>2021-03-07T14:57:06.000Z</time>
      </trkpt>
      <trkpt lat="44.40035" lon="6.0641">
        <ele>1015.4000244141</ele>
        <time>2021-03-07T14:57:07.000Z</time>
      </trkpt>
      <trkpt lat="44.40034" lon="6.06407">
        <ele>1014.200012207</ele>
        <time>2021-03-07T14:57:08.000Z</time>
      </trkpt>
      <trkpt lat="44.40033" lon="6.06402">
        <ele>1012.4000244141</ele>
        <time>2021-03-07T14:57:10.000Z</time>
      </trkpt>
      <trkpt lat="44.40032" lon="6.06401">
        <ele>1011.5999755859</ele>
        <time>2021-03-07T14:57:11.000Z</time>
      </trkpt>
      <trkpt lat="44.40033" lon="6.064">
        <ele>1010.799987793</ele>
        <time>2021-03-07T14:57:12.000Z</time>
      </trkpt>
      <trkpt lat="44.40033" lon="6.06398">
        <ele>1009.4000244141</ele>
        <time>2021-03-07T14:57:14.000Z</time>
      </trkpt>
      <trkpt lat="44.40035" lon="6.06396">
        <ele>1007.5999755859</ele>
        <time>2021-03-07T14:57:16.000Z</time>
      </trkpt>
      <trkpt lat="44.40035" lon="6.06396">
        <ele>1006.4000244141</ele>
        <time>2021-03-07T14:57:17.000Z</time>
      </trkpt>
      <trkpt lat="44.40038" lon="6.06394">
        <ele>1004.5999755859</ele>
        <time>2021-03-07T14:57:19.000Z</time>
      </trkpt>
      <trkpt lat="44.40038" lon="6.06393">
        <ele>1003.200012207</ele>
        <time>2021-03-07T14:57:21.000Z</time>
      </trkpt>
      <trkpt lat="44.40038" lon="6.06392">
        <ele>1002.4000244141</ele>
        <time>2021-03-07T14:57:24.000Z</time>
      </trkpt>
      <trkpt lat="44.40038" lon="6.06391">
        <ele>1002.200012207</ele>
        <time>2021-03-07T14:57:25.000Z</time>
      </trkpt>
      <trkpt lat="44.40036" lon="6.06389">
        <ele>1001</ele>
        <time>2021-03-07T14:57:28.000Z</time>
      </trkpt>
      <trkpt lat="44.40036" lon="6.06388">
        <ele>1000.5999755859</ele>
        <time>2021-03-07T14:57:37.000Z</time>
      </trkpt>
      <trkpt lat="44.40035" lon="6.06388">
        <ele>1000.5999755859</ele>
        <time>2021-03-07T14:57:49.000Z</time>
      </trkpt>
      <trkpt lat="44.40035" lon="6.06388">
        <ele>1000.5999755859</ele>
        <time>2021-03-07T14:57:53.000Z</time>
      </trkpt>
      <trkpt lat="44.40039" lon="6.06387">
        <ele>1000.4000244141</ele>
        <time>2021-03-07T14:58:04.000Z</time>
      </trkpt>
      <trkpt lat="44.40042" lon="6.06383">
        <ele>1000.4000244141</ele>
        <time>2021-03-07T14:58:08.000Z</time>
      </trkpt>
      <trkpt lat="44.40042" lon="6.06382">
        <ele>1000.4000244141</ele>
        <time>2021-03-07T14:58:09.000Z</time>
      </trkpt>
      <trkpt lat="44.40044" lon="6.06379">
        <ele>1000.200012207</ele>
        <time>2021-03-07T14:58:11.000Z</time>
      </trkpt>
      <trkpt lat="44.40046" lon="6.06378">
        <ele>999.79998779297</ele>
        <time>2021-03-07T14:58:12.000Z</time>
      </trkpt>
      <trkpt lat="44.40048" lon="6.06378">
        <ele>999.40002441406</ele>
        <time>2021-03-07T14:58:13.000Z</time>
      </trkpt>
      <trkpt lat="44.40051" lon="6.06377">
        <ele>997.40002441406</ele>
        <time>2021-03-07T14:58:15.000Z</time>
      </trkpt>
      <trkpt lat="44.40053" lon="6.06376">
        <ele>996.20001220703</ele>
        <time>2021-03-07T14:58:17.000Z</time>
      </trkpt>
      <trkpt lat="44.40053" lon="6.06374">
        <ele>995.59997558594</ele>
        <time>2021-03-07T14:58:18.000Z</time>
      </trkpt>
      <trkpt lat="44.40053" lon="6.06373">
        <ele>995</ele>
        <time>2021-03-07T14:58:19.000Z</time>
      </trkpt>
      <trkpt lat="44.40057" lon="6.06373">
        <ele>993</ele>
        <time>2021-03-07T14:58:21.000Z</time>
      </trkpt>
      <trkpt lat="44.40061" lon="6.06374">
        <ele>991</ele>
        <time>2021-03-07T14:58:23.000Z</time>
      </trkpt>
      <trkpt lat="44.40062" lon="6.06375">
        <ele>990.40002441406</ele>
        <time>2021-03-07T14:58:24.000Z</time>
      </trkpt>
      <trkpt lat="44.40062" lon="6.06374">
        <ele>989.79998779297</ele>
        <time>2021-03-07T14:58:25.000Z</time>
      </trkpt>
      <trkpt lat="44.40065" lon="6.06372">
        <ele>988.59997558594</ele>
        <time>2021-03-07T14:58:27.000Z</time>
      </trkpt>
      <trkpt lat="44.40066" lon="6.06365">
        <ele>987</ele>
        <time>2021-03-07T14:58:29.000Z</time>
      </trkpt>
      <trkpt lat="44.4006" lon="6.06357">
        <ele>985.40002441406</ele>
        <time>2021-03-07T14:58:31.000Z</time>
      </trkpt>
      <trkpt lat="44.40056" lon="6.06352">
        <ele>984.79998779297</ele>
        <time>2021-03-07T14:58:32.000Z</time>
      </trkpt>
      <trkpt lat="44.40052" lon="6.06347">
        <ele>984.40002441406</ele>
        <time>2021-03-07T14:58:33.000Z</time>
      </trkpt>
      <trkpt lat="44.4005" lon="6.06344">
        <ele>984</ele>
        <time>2021-03-07T14:58:34.000Z</time>
      </trkpt>
      <trkpt lat="44.40051" lon="6.06341">
        <ele>983.59997558594</ele>
        <time>2021-03-07T14:58:35.000Z</time>
      </trkpt>
      <trkpt lat="44.40053" lon="6.06339">
        <ele>982.79998779297</ele>
        <time>2021-03-07T14:58:36.000Z</time>
      </trkpt>
      <trkpt lat="44.40056" lon="6.06339">
        <ele>981.59997558594</ele>
        <time>2021-03-07T14:58:37.000Z</time>
      </trkpt>
      <trkpt lat="44.40059" lon="6.0634">
        <ele>980.40002441406</ele>
        <time>2021-03-07T14:58:38.000Z</time>
      </trkpt>
      <trkpt lat="44.40063" lon="6.06341">
        <ele>979</ele>
        <time>2021-03-07T14:58:39.000Z</time>
      </trkpt>
      <trkpt lat="44.40065" lon="6.0634">
        <ele>977.40002441406</ele>
        <time>2021-03-07T14:58:40.000Z</time>
      </trkpt>
      <trkpt lat="44.40067" lon="6.06337">
        <ele>976</ele>
        <time>2021-03-07T14:58:41.000Z</time>
      </trkpt>
      <trkpt lat="44.40067" lon="6.06333">
        <ele>974.79998779297</ele>
        <time>2021-03-07T14:58:42.000Z</time>
      </trkpt>
      <trkpt lat="44.40066" lon="6.06327">
        <ele>973</ele>
        <time>2021-03-07T14:58:43.000Z</time>
      </trkpt>
      <trkpt lat="44.40064" lon="6.06323">
        <ele>972.20001220703</ele>
        <time>2021-03-07T14:58:44.000Z</time>
      </trkpt>
      <trkpt lat="44.4006" lon="6.06319">
        <ele>971.59997558594</ele>
        <time>2021-03-07T14:58:45.000Z</time>
      </trkpt>
      <trkpt lat="44.40051" lon="6.06312">
        <ele>970.20001220703</ele>
        <time>2021-03-07T14:58:47.000Z</time>
      </trkpt>
      <trkpt lat="44.40042" lon="6.06311">
        <ele>969</ele>
        <time>2021-03-07T14:58:49.000Z</time>
      </trkpt>
      <trkpt lat="44.40034" lon="6.06312">
        <ele>967</ele>
        <time>2021-03-07T14:58:51.000Z</time>
      </trkpt>
      <trkpt lat="44.4003" lon="6.06313">
        <ele>965.40002441406</ele>
        <time>2021-03-07T14:58:52.000Z</time>
      </trkpt>
      <trkpt lat="44.40026" lon="6.06313">
        <ele>964</ele>
        <time>2021-03-07T14:58:53.000Z</time>
      </trkpt>
      <trkpt lat="44.40022" lon="6.06312">
        <ele>962.79998779297</ele>
        <time>2021-03-07T14:58:54.000Z</time>
      </trkpt>
      <trkpt lat="44.40017" lon="6.06312">
        <ele>961.59997558594</ele>
        <time>2021-03-07T14:58:55.000Z</time>
      </trkpt>
      <trkpt lat="44.40011" lon="6.06312">
        <ele>960.40002441406</ele>
        <time>2021-03-07T14:58:56.000Z</time>
      </trkpt>
      <trkpt lat="44.40008" lon="6.06311">
        <ele>959.20001220703</ele>
        <time>2021-03-07T14:58:57.000Z</time>
      </trkpt>
      <trkpt lat="44.40007" lon="6.06311">
        <ele>958</ele>
        <time>2021-03-07T14:58:58.000Z</time>
      </trkpt>
      <trkpt lat="44.40007" lon="6.06311">
        <ele>956.79998779297</ele>
        <time>2021-03-07T14:58:59.000Z</time>
      </trkpt>
      <trkpt lat="44.40007" lon="6.06312">
        <ele>955.79998779297</ele>
        <time>2021-03-07T14:59:00.000Z</time>
      </trkpt>
      <trkpt lat="44.40007" lon="6.06312">
        <ele>953.59997558594</ele>
        <time>2021-03-07T14:59:02.000Z</time>
      </trkpt>
      <trkpt lat="44.40007" lon="6.06312">
        <ele>952</ele>
        <time>2021-03-07T14:59:03.000Z</time>
      </trkpt>
      <trkpt lat="44.40008" lon="6.06312">
        <ele>950.59997558594</ele>
        <time>2021-03-07T14:59:04.000Z</time>
      </trkpt>
      <trkpt lat="44.40008" lon="6.06312">
        <ele>949.40002441406</ele>
        <time>2021-03-07T14:59:05.000Z</time>
      </trkpt>
      <trkpt lat="44.40008" lon="6.06312">
        <ele>948.79998779297</ele>
        <time>2021-03-07T14:59:07.000Z</time>
      </trkpt>
      <trkpt lat="44.40008" lon="6.06312">
        <ele>948.59997558594</ele>
        <time>2021-03-07T14:59:08.000Z</time>
      </trkpt>
      <trkpt lat="44.40009" lon="6.06313">
        <ele>948.40002441406</ele>
        <time>2021-03-07T14:59:28.000Z</time>
      </trkpt>
      <trkpt lat="44.4001" lon="6.06312">
        <ele>948.40002441406</ele>
        <time>2021-03-07T14:59:52.000Z</time>
      </trkpt>
      <trkpt lat="44.4001" lon="6.06311">
        <ele>948.40002441406</ele>
        <time>2021-03-07T15:00:11.000Z</time>
      </trkpt>
      <trkpt lat="44.4001" lon="6.06311">
        <ele>948.40002441406</ele>
        <time>2021-03-07T15:00:12.000Z</time>
      </trkpt>
      <trkpt lat="44.4001" lon="6.06311">
        <ele>948.40002441406</ele>
        <time>2021-03-07T15:00:14.000Z</time>
      </trkpt>
      <trkpt lat="44.4001" lon="6.06311">
        <ele>948.40002441406</ele>
        <time>2021-03-07T15:00:29.000Z</time>
      </trkpt>
      <trkpt lat="44.4001" lon="6.06311">
        <ele>948.20001220703</ele>
        <time>2021-03-07T15:00:35.000Z</time>
      </trkpt>
      <trkpt lat="44.4001" lon="6.0631">
        <ele>948.40002441406</ele>
        <time>2021-03-07T15:00:53.000Z</time>
      </trkpt>
      <trkpt lat="44.40009" lon="6.0631">
        <ele>948.20001220703</ele>
        <time>2021-03-07T15:01:11.000Z</time>
      </trkpt>
      <trkpt lat="44.4001" lon="6.0631">
        <ele>948.40002441406</ele>
        <time>2021-03-07T15:01:32.000Z</time>
      </trkpt>
      <trkpt lat="44.4001" lon="6.0631">
        <ele>948.59997558594</ele>
        <time>2021-03-07T15:01:44.000Z</time>
      </trkpt>
      <trkpt lat="44.4001" lon="6.0631">
        <ele>949</ele>
        <time>2021-03-07T15:01:52.000Z</time>
      </trkpt>
      <trkpt lat="44.4001" lon="6.0631">
        <ele>948.79998779297</ele>
        <time>2021-03-07T15:02:15.000Z</time>
      </trkpt>
      <trkpt lat="44.40009" lon="6.06307">
        <ele>948.79998779297</ele>
        <time>2021-03-07T15:02:23.000Z</time>
      </trkpt>
      <trkpt lat="44.40009" lon="6.06306">
        <ele>949</ele>
        <time>2021-03-07T15:02:32.000Z</time>
      </trkpt>
      <trkpt lat="44.40009" lon="6.06305">
        <ele>949</ele>
        <time>2021-03-07T15:02:52.000Z</time>
      </trkpt>
      <trkpt lat="44.40009" lon="6.06305">
        <ele>948.79998779297</ele>
        <time>2021-03-07T15:03:14.000Z</time>
      </trkpt>
      <trkpt lat="44.40008" lon="6.06306">
        <ele>949</ele>
        <time>2021-03-07T15:03:34.000Z</time>
      </trkpt>
      <trkpt lat="44.40008" lon="6.06306">
        <ele>948.79998779297</ele>
        <time>2021-03-07T15:04:00.000Z</time>
      </trkpt>
      <trkpt lat="44.40008" lon="6.06306">
        <ele>949</ele>
        <time>2021-03-07T15:04:03.000Z</time>
      </trkpt>
      <trkpt lat="44.40008" lon="6.06306">
        <ele>948.79998779297</ele>
        <time>2021-03-07T15:04:43.000Z</time>
      </trkpt>
      <trkpt lat="44.40007" lon="6.06306">
        <ele>949</ele>
        <time>2021-03-07T15:05:34.000Z</time>
      </trkpt>
      <trkpt lat="44.40006" lon="6.06306">
        <ele>949</ele>
        <time>2021-03-07T15:05:49.000Z</time>
      </trkpt>
      <trkpt lat="44.40004" lon="6.06306">
        <ele>948.79998779297</ele>
        <time>2021-03-07T15:05:50.000Z</time>
      </trkpt>
      <trkpt lat="44.39999" lon="6.06301">
        <ele>948.79998779297</ele>
        <time>2021-03-07T15:05:54.000Z</time>
      </trkpt>
      <trkpt lat="44.39997" lon="6.063">
        <ele>948.59997558594</ele>
        <time>2021-03-07T15:05:55.000Z</time>
      </trkpt>
      <trkpt lat="44.39988" lon="6.06294">
        <ele>948.40002441406</ele>
        <time>2021-03-07T15:05:59.000Z</time>
      </trkpt>
      <trkpt lat="44.39977" lon="6.06292">
        <ele>947.79998779297</ele>
        <time>2021-03-07T15:06:02.000Z</time>
      </trkpt>
      <trkpt lat="44.39971" lon="6.06291">
        <ele>947.40002441406</ele>
        <time>2021-03-07T15:06:03.000Z</time>
      </trkpt>
      <trkpt lat="44.39953" lon="6.06293">
        <ele>946.59997558594</ele>
        <time>2021-03-07T15:06:06.000Z</time>
      </trkpt>
      <trkpt lat="44.39949" lon="6.06294">
        <ele>946.40002441406</ele>
        <time>2021-03-07T15:06:07.000Z</time>
      </trkpt>
      <trkpt lat="44.39924" lon="6.06296">
        <ele>945.40002441406</ele>
        <time>2021-03-07T15:06:11.000Z</time>
      </trkpt>
      <trkpt lat="44.39919" lon="6.06295">
        <ele>945</ele>
        <time>2021-03-07T15:06:12.000Z</time>
      </trkpt>
      <trkpt lat="44.39905" lon="6.06291">
        <ele>944.40002441406</ele>
        <time>2021-03-07T15:06:15.000Z</time>
      </trkpt>
      <trkpt lat="44.39901" lon="6.0629">
        <ele>944</ele>
        <time>2021-03-07T15:06:16.000Z</time>
      </trkpt>
      <trkpt lat="44.39895" lon="6.06287">
        <ele>943.20001220703</ele>
        <time>2021-03-07T15:06:18.000Z</time>
      </trkpt>
      <trkpt lat="44.39881" lon="6.06281">
        <ele>942.79998779297</ele>
        <time>2021-03-07T15:06:21.000Z</time>
      </trkpt>
      <trkpt lat="44.39871" lon="6.06276">
        <ele>942.59997558594</ele>
        <time>2021-03-07T15:06:23.000Z</time>
      </trkpt>
      <trkpt lat="44.39855" lon="6.06267">
        <ele>942.20001220703</ele>
        <time>2021-03-07T15:06:26.000Z</time>
      </trkpt>
      <trkpt lat="44.39849" lon="6.06265">
        <ele>942</ele>
        <time>2021-03-07T15:06:27.000Z</time>
      </trkpt>
      <trkpt lat="44.39844" lon="6.06262">
        <ele>941.79998779297</ele>
        <time>2021-03-07T15:06:28.000Z</time>
      </trkpt>
      <trkpt lat="44.39824" lon="6.06249">
        <ele>941.20001220703</ele>
        <time>2021-03-07T15:06:32.000Z</time>
      </trkpt>
      <trkpt lat="44.39818" lon="6.06246">
        <ele>941</ele>
        <time>2021-03-07T15:06:34.000Z</time>
      </trkpt>
      <trkpt lat="44.39813" lon="6.0624">
        <ele>940</ele>
        <time>2021-03-07T15:06:36.000Z</time>
      </trkpt>
      <trkpt lat="44.3981" lon="6.06237">
        <ele>939.59997558594</ele>
        <time>2021-03-07T15:06:37.000Z</time>
      </trkpt>
      <trkpt lat="44.39798" lon="6.06219">
        <ele>939.20001220703</ele>
        <time>2021-03-07T15:06:41.000Z</time>
      </trkpt>
      <trkpt lat="44.39791" lon="6.06211">
        <ele>939.20001220703</ele>
        <time>2021-03-07T15:06:43.000Z</time>
      </trkpt>
      <trkpt lat="44.39783" lon="6.0621">
        <ele>939.20001220703</ele>
        <time>2021-03-07T15:06:45.000Z</time>
      </trkpt>
      <trkpt lat="44.39781" lon="6.06208">
        <ele>939.20001220703</ele>
        <time>2021-03-07T15:06:46.000Z</time>
      </trkpt>
      <trkpt lat="44.39769" lon="6.06197">
        <ele>939</ele>
        <time>2021-03-07T15:06:49.000Z</time>
      </trkpt>
      <trkpt lat="44.39759" lon="6.06187">
        <ele>939</ele>
        <time>2021-03-07T15:06:51.000Z</time>
      </trkpt>
      <trkpt lat="44.39745" lon="6.06171">
        <ele>938.59997558594</ele>
        <time>2021-03-07T15:06:54.000Z</time>
      </trkpt>
      <trkpt lat="44.39722" lon="6.0615">
        <ele>937.59997558594</ele>
        <time>2021-03-07T15:06:57.000Z</time>
      </trkpt>
      <trkpt lat="44.39717" lon="6.06145">
        <ele>936.79998779297</ele>
        <time>2021-03-07T15:06:58.000Z</time>
      </trkpt>
      <trkpt lat="44.3971" lon="6.0614">
        <ele>936.20001220703</ele>
        <time>2021-03-07T15:06:59.000Z</time>
      </trkpt>
      <trkpt lat="44.39704" lon="6.06135">
        <ele>934.59997558594</ele>
        <time>2021-03-07T15:07:01.000Z</time>
      </trkpt>
      <trkpt lat="44.39698" lon="6.06129">
        <ele>934</ele>
        <time>2021-03-07T15:07:04.000Z</time>
      </trkpt>
      <trkpt lat="44.39696" lon="6.06125">
        <ele>933.79998779297</ele>
        <time>2021-03-07T15:07:06.000Z</time>
      </trkpt>
      <trkpt lat="44.39691" lon="6.06122">
        <ele>933.40002441406</ele>
        <time>2021-03-07T15:07:10.000Z</time>
      </trkpt>
      <trkpt lat="44.39691" lon="6.06121">
        <ele>933.40002441406</ele>
        <time>2021-03-07T15:07:11.000Z</time>
      </trkpt>
      <trkpt lat="44.39684" lon="6.06115">
        <ele>933.59997558594</ele>
        <time>2021-03-07T15:07:18.000Z</time>
      </trkpt>
      <trkpt lat="44.39683" lon="6.06112">
        <ele>933.59997558594</ele>
        <time>2021-03-07T15:07:19.000Z</time>
      </trkpt>
      <trkpt lat="44.39683" lon="6.06092">
        <ele>933.40002441406</ele>
        <time>2021-03-07T15:07:23.000Z</time>
      </trkpt>
      <trkpt lat="44.39681" lon="6.06069">
        <ele>932.79998779297</ele>
        <time>2021-03-07T15:07:27.000Z</time>
      </trkpt>
      <trkpt lat="44.39676" lon="6.06064">
        <ele>932</ele>
        <time>2021-03-07T15:07:29.000Z</time>
      </trkpt>
      <trkpt lat="44.39667" lon="6.06054">
        <ele>931</ele>
        <time>2021-03-07T15:07:32.000Z</time>
      </trkpt>
      <trkpt lat="44.39659" lon="6.06043">
        <ele>930.79998779297</ele>
        <time>2021-03-07T15:07:34.000Z</time>
      </trkpt>
      <trkpt lat="44.39656" lon="6.06038">
        <ele>930.79998779297</ele>
        <time>2021-03-07T15:07:35.000Z</time>
      </trkpt>
      <trkpt lat="44.39648" lon="6.06028">
        <ele>930.59997558594</ele>
        <time>2021-03-07T15:07:37.000Z</time>
      </trkpt>
      <trkpt lat="44.39638" lon="6.06016">
        <ele>930.20001220703</ele>
        <time>2021-03-07T15:07:40.000Z</time>
      </trkpt>
      <trkpt lat="44.39635" lon="6.06013">
        <ele>929.79998779297</ele>
        <time>2021-03-07T15:07:41.000Z</time>
      </trkpt>
      <trkpt lat="44.39629" lon="6.06007">
        <ele>928.59997558594</ele>
        <time>2021-03-07T15:07:43.000Z</time>
      </trkpt>
      <trkpt lat="44.3962" lon="6.05996">
        <ele>927.59997558594</ele>
        <time>2021-03-07T15:07:46.000Z</time>
      </trkpt>
      <trkpt lat="44.39616" lon="6.0599">
        <ele>927.20001220703</ele>
        <time>2021-03-07T15:07:47.000Z</time>
      </trkpt>
      <trkpt lat="44.39597" lon="6.05976">
        <ele>926.59997558594</ele>
        <time>2021-03-07T15:07:51.000Z</time>
      </trkpt>
      <trkpt lat="44.39575" lon="6.05976">
        <ele>925.79998779297</ele>
        <time>2021-03-07T15:07:55.000Z</time>
      </trkpt>
      <trkpt lat="44.39562" lon="6.05978">
        <ele>925.40002441406</ele>
        <time>2021-03-07T15:07:57.000Z</time>
      </trkpt>
      <trkpt lat="44.3955" lon="6.05973">
        <ele>925.20001220703</ele>
        <time>2021-03-07T15:07:59.000Z</time>
      </trkpt>
      <trkpt lat="44.39538" lon="6.05952">
        <ele>924.79998779297</ele>
        <time>2021-03-07T15:08:03.000Z</time>
      </trkpt>
      <trkpt lat="44.39537" lon="6.05947">
        <ele>924.79998779297</ele>
        <time>2021-03-07T15:08:04.000Z</time>
      </trkpt>
      <trkpt lat="44.39537" lon="6.05939">
        <ele>924</ele>
        <time>2021-03-07T15:08:06.000Z</time>
      </trkpt>
      <trkpt lat="44.39534" lon="6.0593">
        <ele>923</ele>
        <time>2021-03-07T15:08:09.000Z</time>
      </trkpt>
      <trkpt lat="44.39534" lon="6.05926">
        <ele>922.59997558594</ele>
        <time>2021-03-07T15:08:10.000Z</time>
      </trkpt>
      <trkpt lat="44.39534" lon="6.05911">
        <ele>922</ele>
        <time>2021-03-07T15:08:13.000Z</time>
      </trkpt>
      <trkpt lat="44.39532" lon="6.05898">
        <ele>921.79998779297</ele>
        <time>2021-03-07T15:08:15.000Z</time>
      </trkpt>
      <trkpt lat="44.3953" lon="6.05891">
        <ele>921.59997558594</ele>
        <time>2021-03-07T15:08:16.000Z</time>
      </trkpt>
      <trkpt lat="44.39521" lon="6.05875">
        <ele>921.20001220703</ele>
        <time>2021-03-07T15:08:19.000Z</time>
      </trkpt>
      <trkpt lat="44.39518" lon="6.05872">
        <ele>920.79998779297</ele>
        <time>2021-03-07T15:08:20.000Z</time>
      </trkpt>
      <trkpt lat="44.39515" lon="6.05867">
        <ele>920</ele>
        <time>2021-03-07T15:08:22.000Z</time>
      </trkpt>
      <trkpt lat="44.39514" lon="6.05863">
        <ele>920</ele>
        <time>2021-03-07T15:08:23.000Z</time>
      </trkpt>
      <trkpt lat="44.39505" lon="6.05842">
        <ele>919.40002441406</ele>
        <time>2021-03-07T15:08:27.000Z</time>
      </trkpt>
      <trkpt lat="44.39496" lon="6.05834">
        <ele>919.20001220703</ele>
        <time>2021-03-07T15:08:29.000Z</time>
      </trkpt>
      <trkpt lat="44.39485" lon="6.05827">
        <ele>919.20001220703</ele>
        <time>2021-03-07T15:08:31.000Z</time>
      </trkpt>
      <trkpt lat="44.39481" lon="6.05822">
        <ele>919.20001220703</ele>
        <time>2021-03-07T15:08:32.000Z</time>
      </trkpt>
      <trkpt lat="44.39466" lon="6.05806">
        <ele>918.79998779297</ele>
        <time>2021-03-07T15:08:35.000Z</time>
      </trkpt>
      <trkpt lat="44.39454" lon="6.05799">
        <ele>917.59997558594</ele>
        <time>2021-03-07T15:08:37.000Z</time>
      </trkpt>
      <trkpt lat="44.39442" lon="6.05798">
        <ele>917</ele>
        <time>2021-03-07T15:08:39.000Z</time>
      </trkpt>
      <trkpt lat="44.39436" lon="6.05797">
        <ele>916.79998779297</ele>
        <time>2021-03-07T15:08:40.000Z</time>
      </trkpt>
      <trkpt lat="44.3943" lon="6.05795">
        <ele>916.20001220703</ele>
        <time>2021-03-07T15:08:41.000Z</time>
      </trkpt>
      <trkpt lat="44.3942" lon="6.05789">
        <ele>914.79998779297</ele>
        <time>2021-03-07T15:08:43.000Z</time>
      </trkpt>
      <trkpt lat="44.39415" lon="6.05785">
        <ele>914.40002441406</ele>
        <time>2021-03-07T15:08:44.000Z</time>
      </trkpt>
      <trkpt lat="44.39406" lon="6.05777">
        <ele>913.79998779297</ele>
        <time>2021-03-07T15:08:46.000Z</time>
      </trkpt>
      <trkpt lat="44.39394" lon="6.05773">
        <ele>913.59997558594</ele>
        <time>2021-03-07T15:08:48.000Z</time>
      </trkpt>
      <trkpt lat="44.39367" lon="6.05767">
        <ele>913.20001220703</ele>
        <time>2021-03-07T15:08:52.000Z</time>
      </trkpt>
      <trkpt lat="44.39343" lon="6.05763">
        <ele>912.79998779297</ele>
        <time>2021-03-07T15:08:56.000Z</time>
      </trkpt>
      <trkpt lat="44.39337" lon="6.05762">
        <ele>912.40002441406</ele>
        <time>2021-03-07T15:08:57.000Z</time>
      </trkpt>
      <trkpt lat="44.39326" lon="6.05759">
        <ele>911.59997558594</ele>
        <time>2021-03-07T15:08:59.000Z</time>
      </trkpt>
      <trkpt lat="44.39319" lon="6.05757">
        <ele>911.40002441406</ele>
        <time>2021-03-07T15:09:00.000Z</time>
      </trkpt>
      <trkpt lat="44.39312" lon="6.05754">
        <ele>911.20001220703</ele>
        <time>2021-03-07T15:09:01.000Z</time>
      </trkpt>
      <trkpt lat="44.39282" lon="6.05742">
        <ele>910.40002441406</ele>
        <time>2021-03-07T15:09:05.000Z</time>
      </trkpt>
      <trkpt lat="44.39275" lon="6.05738">
        <ele>910</ele>
        <time>2021-03-07T15:09:06.000Z</time>
      </trkpt>
      <trkpt lat="44.3926" lon="6.05731">
        <ele>908.40002441406</ele>
        <time>2021-03-07T15:09:08.000Z</time>
      </trkpt>
      <trkpt lat="44.39243" lon="6.0573">
        <ele>907.20001220703</ele>
        <time>2021-03-07T15:09:10.000Z</time>
      </trkpt>
      <trkpt lat="44.39226" lon="6.05731">
        <ele>906.20001220703</ele>
        <time>2021-03-07T15:09:13.000Z</time>
      </trkpt>
      <trkpt lat="44.39222" lon="6.05731">
        <ele>905.59997558594</ele>
        <time>2021-03-07T15:09:14.000Z</time>
      </trkpt>
      <trkpt lat="44.39209" lon="6.05728">
        <ele>905.20001220703</ele>
        <time>2021-03-07T15:09:17.000Z</time>
      </trkpt>
      <trkpt lat="44.39204" lon="6.05728">
        <ele>905.20001220703</ele>
        <time>2021-03-07T15:09:18.000Z</time>
      </trkpt>
      <trkpt lat="44.39198" lon="6.05729">
        <ele>905.20001220703</ele>
        <time>2021-03-07T15:09:19.000Z</time>
      </trkpt>
      <trkpt lat="44.39187" lon="6.05733">
        <ele>904.79998779297</ele>
        <time>2021-03-07T15:09:21.000Z</time>
      </trkpt>
      <trkpt lat="44.39181" lon="6.05736">
        <ele>904.79998779297</ele>
        <time>2021-03-07T15:09:22.000Z</time>
      </trkpt>
      <trkpt lat="44.39168" lon="6.05741">
        <ele>904.40002441406</ele>
        <time>2021-03-07T15:09:26.000Z</time>
      </trkpt>
      <trkpt lat="44.39165" lon="6.05741">
        <ele>904</ele>
        <time>2021-03-07T15:09:27.000Z</time>
      </trkpt>
      <trkpt lat="44.39155" lon="6.05739">
        <ele>903.79998779297</ele>
        <time>2021-03-07T15:09:30.000Z</time>
      </trkpt>
      <trkpt lat="44.39146" lon="6.05734">
        <ele>903.59997558594</ele>
        <time>2021-03-07T15:09:32.000Z</time>
      </trkpt>
      <trkpt lat="44.39143" lon="6.05731">
        <ele>903.59997558594</ele>
        <time>2021-03-07T15:09:33.000Z</time>
      </trkpt>
      <trkpt lat="44.39137" lon="6.05721">
        <ele>903.20001220703</ele>
        <time>2021-03-07T15:09:37.000Z</time>
      </trkpt>
      <trkpt lat="44.39134" lon="6.05722">
        <ele>903.59997558594</ele>
        <time>2021-03-07T15:09:40.000Z</time>
      </trkpt>
      <trkpt lat="44.39129" lon="6.05724">
        <ele>903.59997558594</ele>
        <time>2021-03-07T15:09:42.000Z</time>
      </trkpt>
      <trkpt lat="44.39123" lon="6.05724">
        <ele>903.79998779297</ele>
        <time>2021-03-07T15:09:44.000Z</time>
      </trkpt>
      <trkpt lat="44.39114" lon="6.05723">
        <ele>904.40002441406</ele>
        <time>2021-03-07T15:09:47.000Z</time>
      </trkpt>
      <trkpt lat="44.39099" lon="6.05723">
        <ele>905.20001220703</ele>
        <time>2021-03-07T15:09:52.000Z</time>
      </trkpt>
      <trkpt lat="44.39099" lon="6.05723">
        <ele>905.20001220703</ele>
        <time>2021-03-07T15:09:53.000Z</time>
      </trkpt>
      <trkpt lat="44.39097" lon="6.05722">
        <ele>906.59997558594</ele>
        <time>2021-03-07T15:09:57.000Z</time>
      </trkpt>
      <trkpt lat="44.39097" lon="6.05722">
        <ele>907</ele>
        <time>2021-03-07T15:09:58.000Z</time>
      </trkpt>
      <trkpt lat="44.39097" lon="6.05722">
        <ele>908</ele>
        <time>2021-03-07T15:10:00.000Z</time>
      </trkpt>
      <trkpt lat="44.39097" lon="6.05722">
        <ele>909</ele>
        <time>2021-03-07T15:10:06.000Z</time>
      </trkpt>
      <trkpt lat="44.39097" lon="6.05722">
        <ele>909</ele>
        <time>2021-03-07T15:10:08.000Z</time>
      </trkpt>
      <trkpt lat="44.39097" lon="6.05722">
        <ele>909</ele>
        <time>2021-03-07T15:10:17.000Z</time>
      </trkpt>
      <trkpt lat="44.39097" lon="6.05722">
        <ele>909</ele>
        <time>2021-03-07T15:10:30.000Z</time>
      </trkpt>
      <trkpt lat="44.39097" lon="6.05722">
        <ele>909</ele>
        <time>2021-03-07T15:10:52.000Z</time>
      </trkpt>
      <trkpt lat="44.39097" lon="6.05722">
        <ele>909</ele>
        <time>2021-03-07T15:11:14.000Z</time>
      </trkpt>
      <trkpt lat="44.39096" lon="6.05722">
        <ele>908.59997558594</ele>
        <time>2021-03-07T15:11:26.000Z</time>
      </trkpt>
      <trkpt lat="44.39096" lon="6.05722">
        <ele>908.79998779297</ele>
        <time>2021-03-07T15:11:51.000Z</time>
      </trkpt>
      <trkpt lat="44.39096" lon="6.05722">
        <ele>908.79998779297</ele>
        <time>2021-03-07T15:12:01.000Z</time>
      </trkpt>
      <trkpt lat="44.39093" lon="6.05723">
        <ele>908.79998779297</ele>
        <time>2021-03-07T15:12:16.000Z</time>
      </trkpt>
      <trkpt lat="44.39092" lon="6.05724">
        <ele>908.59997558594</ele>
        <time>2021-03-07T15:12:17.000Z</time>
      </trkpt>
      <trkpt lat="44.39076" lon="6.05736">
        <ele>908.59997558594</ele>
        <time>2021-03-07T15:12:22.000Z</time>
      </trkpt>
      <trkpt lat="44.3906" lon="6.05739">
        <ele>907.79998779297</ele>
        <time>2021-03-07T15:12:26.000Z</time>
      </trkpt>
      <trkpt lat="44.39056" lon="6.0574">
        <ele>907.40002441406</ele>
        <time>2021-03-07T15:12:27.000Z</time>
      </trkpt>
      <trkpt lat="44.39044" lon="6.05744">
        <ele>906.20001220703</ele>
        <time>2021-03-07T15:12:30.000Z</time>
      </trkpt>
      <trkpt lat="44.3904" lon="6.05745">
        <ele>906</ele>
        <time>2021-03-07T15:12:31.000Z</time>
      </trkpt>
      <trkpt lat="44.39031" lon="6.05747">
        <ele>905</ele>
        <time>2021-03-07T15:12:33.000Z</time>
      </trkpt>
      <trkpt lat="44.39016" lon="6.05747">
        <ele>904</ele>
        <time>2021-03-07T15:12:36.000Z</time>
      </trkpt>
      <trkpt lat="44.39011" lon="6.05746">
        <ele>903.59997558594</ele>
        <time>2021-03-07T15:12:37.000Z</time>
      </trkpt>
      <trkpt lat="44.39001" lon="6.05744">
        <ele>903</ele>
        <time>2021-03-07T15:12:39.000Z</time>
      </trkpt>
      <trkpt lat="44.3899" lon="6.05741">
        <ele>901.59997558594</ele>
        <time>2021-03-07T15:12:41.000Z</time>
      </trkpt>
      <trkpt lat="44.38984" lon="6.05739">
        <ele>900.79998779297</ele>
        <time>2021-03-07T15:12:42.000Z</time>
      </trkpt>
      <trkpt lat="44.38978" lon="6.05737">
        <ele>900.20001220703</ele>
        <time>2021-03-07T15:12:43.000Z</time>
      </trkpt>
      <trkpt lat="44.38971" lon="6.05734">
        <ele>899.59997558594</ele>
        <time>2021-03-07T15:12:44.000Z</time>
      </trkpt>
      <trkpt lat="44.38965" lon="6.05731">
        <ele>899</ele>
        <time>2021-03-07T15:12:45.000Z</time>
      </trkpt>
      <trkpt lat="44.38953" lon="6.05724">
        <ele>897.79998779297</ele>
        <time>2021-03-07T15:12:47.000Z</time>
      </trkpt>
      <trkpt lat="44.38937" lon="6.05716">
        <ele>896.40002441406</ele>
        <time>2021-03-07T15:12:50.000Z</time>
      </trkpt>
      <trkpt lat="44.38924" lon="6.05713">
        <ele>894</ele>
        <time>2021-03-07T15:12:52.000Z</time>
      </trkpt>
      <trkpt lat="44.38911" lon="6.05713">
        <ele>892.40002441406</ele>
        <time>2021-03-07T15:12:54.000Z</time>
      </trkpt>
      <trkpt lat="44.38899" lon="6.05715">
        <ele>891.79998779297</ele>
        <time>2021-03-07T15:12:56.000Z</time>
      </trkpt>
      <trkpt lat="44.38893" lon="6.05716">
        <ele>891.59997558594</ele>
        <time>2021-03-07T15:12:57.000Z</time>
      </trkpt>
      <trkpt lat="44.38868" lon="6.05722">
        <ele>891.20001220703</ele>
        <time>2021-03-07T15:13:01.000Z</time>
      </trkpt>
      <trkpt lat="44.38857" lon="6.05728">
        <ele>890.20001220703</ele>
        <time>2021-03-07T15:13:03.000Z</time>
      </trkpt>
      <trkpt lat="44.38851" lon="6.05731">
        <ele>890</ele>
        <time>2021-03-07T15:13:04.000Z</time>
      </trkpt>
      <trkpt lat="44.38845" lon="6.05733">
        <ele>889.59997558594</ele>
        <time>2021-03-07T15:13:05.000Z</time>
      </trkpt>
      <trkpt lat="44.38827" lon="6.05737">
        <ele>888.79998779297</ele>
        <time>2021-03-07T15:13:08.000Z</time>
      </trkpt>
      <trkpt lat="44.38821" lon="6.05738">
        <ele>888.59997558594</ele>
        <time>2021-03-07T15:13:09.000Z</time>
      </trkpt>
      <trkpt lat="44.38815" lon="6.0574">
        <ele>888.59997558594</ele>
        <time>2021-03-07T15:13:10.000Z</time>
      </trkpt>
      <trkpt lat="44.38794" lon="6.05753">
        <ele>887.79998779297</ele>
        <time>2021-03-07T15:13:14.000Z</time>
      </trkpt>
      <trkpt lat="44.38789" lon="6.05756">
        <ele>887.59997558594</ele>
        <time>2021-03-07T15:13:15.000Z</time>
      </trkpt>
      <trkpt lat="44.38752" lon="6.0578">
        <ele>886.59997558594</ele>
        <time>2021-03-07T15:13:22.000Z</time>
      </trkpt>
      <trkpt lat="44.38716" lon="6.05807">
        <ele>885.79998779297</ele>
        <time>2021-03-07T15:13:29.000Z</time>
      </trkpt>
      <trkpt lat="44.38711" lon="6.05812">
        <ele>885.59997558594</ele>
        <time>2021-03-07T15:13:30.000Z</time>
      </trkpt>
      <trkpt lat="44.38688" lon="6.05828">
        <ele>885</ele>
        <time>2021-03-07T15:13:34.000Z</time>
      </trkpt>
      <trkpt lat="44.38675" lon="6.05834">
        <ele>884.59997558594</ele>
        <time>2021-03-07T15:13:36.000Z</time>
      </trkpt>
      <trkpt lat="44.38656" lon="6.05841">
        <ele>882.59997558594</ele>
        <time>2021-03-07T15:13:39.000Z</time>
      </trkpt>
      <trkpt lat="44.38643" lon="6.05843">
        <ele>881.40002441406</ele>
        <time>2021-03-07T15:13:41.000Z</time>
      </trkpt>
      <trkpt lat="44.38624" lon="6.05845">
        <ele>880.59997558594</ele>
        <time>2021-03-07T15:13:44.000Z</time>
      </trkpt>
      <trkpt lat="44.38618" lon="6.05846">
        <ele>880.20001220703</ele>
        <time>2021-03-07T15:13:45.000Z</time>
      </trkpt>
      <trkpt lat="44.38606" lon="6.05851">
        <ele>879</ele>
        <time>2021-03-07T15:13:47.000Z</time>
      </trkpt>
      <trkpt lat="44.38601" lon="6.05855">
        <ele>878.79998779297</ele>
        <time>2021-03-07T15:13:48.000Z</time>
      </trkpt>
      <trkpt lat="44.3859" lon="6.05865">
        <ele>878.20001220703</ele>
        <time>2021-03-07T15:13:50.000Z</time>
      </trkpt>
      <trkpt lat="44.38585" lon="6.0587">
        <ele>878</ele>
        <time>2021-03-07T15:13:51.000Z</time>
      </trkpt>
      <trkpt lat="44.38573" lon="6.05879">
        <ele>877.79998779297</ele>
        <time>2021-03-07T15:13:53.000Z</time>
      </trkpt>
      <trkpt lat="44.3856" lon="6.05885">
        <ele>877.40002441406</ele>
        <time>2021-03-07T15:13:55.000Z</time>
      </trkpt>
      <trkpt lat="44.3854" lon="6.05892">
        <ele>877</ele>
        <time>2021-03-07T15:13:58.000Z</time>
      </trkpt>
      <trkpt lat="44.38522" lon="6.059">
        <ele>875.40002441406</ele>
        <time>2021-03-07T15:14:01.000Z</time>
      </trkpt>
      <trkpt lat="44.38516" lon="6.05902">
        <ele>875</ele>
        <time>2021-03-07T15:14:02.000Z</time>
      </trkpt>
      <trkpt lat="44.38509" lon="6.05903">
        <ele>874.59997558594</ele>
        <time>2021-03-07T15:14:03.000Z</time>
      </trkpt>
      <trkpt lat="44.38503" lon="6.05904">
        <ele>874</ele>
        <time>2021-03-07T15:14:04.000Z</time>
      </trkpt>
      <trkpt lat="44.38483" lon="6.05905">
        <ele>873</ele>
        <time>2021-03-07T15:14:07.000Z</time>
      </trkpt>
      <trkpt lat="44.38464" lon="6.0591">
        <ele>872.59997558594</ele>
        <time>2021-03-07T15:14:10.000Z</time>
      </trkpt>
      <trkpt lat="44.38453" lon="6.05917">
        <ele>872</ele>
        <time>2021-03-07T15:14:12.000Z</time>
      </trkpt>
      <trkpt lat="44.38424" lon="6.05938">
        <ele>870.59997558594</ele>
        <time>2021-03-07T15:14:17.000Z</time>
      </trkpt>
      <trkpt lat="44.38404" lon="6.05951">
        <ele>870.20001220703</ele>
        <time>2021-03-07T15:14:20.000Z</time>
      </trkpt>
      <trkpt lat="44.38382" lon="6.05958">
        <ele>869.59997558594</ele>
        <time>2021-03-07T15:14:23.000Z</time>
      </trkpt>
      <trkpt lat="44.38368" lon="6.05963">
        <ele>869.40002441406</ele>
        <time>2021-03-07T15:14:25.000Z</time>
      </trkpt>
      <trkpt lat="44.38351" lon="6.05976">
        <ele>868.20001220703</ele>
        <time>2021-03-07T15:14:28.000Z</time>
      </trkpt>
      <trkpt lat="44.38346" lon="6.05981">
        <ele>867.40002441406</ele>
        <time>2021-03-07T15:14:29.000Z</time>
      </trkpt>
      <trkpt lat="44.3834" lon="6.05986">
        <ele>866.79998779297</ele>
        <time>2021-03-07T15:14:30.000Z</time>
      </trkpt>
      <trkpt lat="44.38334" lon="6.0599">
        <ele>866.40002441406</ele>
        <time>2021-03-07T15:14:31.000Z</time>
      </trkpt>
      <trkpt lat="44.38322" lon="6.05995">
        <ele>865.59997558594</ele>
        <time>2021-03-07T15:14:33.000Z</time>
      </trkpt>
      <trkpt lat="44.38309" lon="6.05996">
        <ele>864.79998779297</ele>
        <time>2021-03-07T15:14:35.000Z</time>
      </trkpt>
      <trkpt lat="44.38303" lon="6.05997">
        <ele>864.40002441406</ele>
        <time>2021-03-07T15:14:36.000Z</time>
      </trkpt>
      <trkpt lat="44.38292" lon="6.06">
        <ele>863.79998779297</ele>
        <time>2021-03-07T15:14:38.000Z</time>
      </trkpt>
      <trkpt lat="44.38275" lon="6.06015">
        <ele>863.20001220703</ele>
        <time>2021-03-07T15:14:41.000Z</time>
      </trkpt>
      <trkpt lat="44.38269" lon="6.06021">
        <ele>863</ele>
        <time>2021-03-07T15:14:42.000Z</time>
      </trkpt>
      <trkpt lat="44.38247" lon="6.06045">
        <ele>862.59997558594</ele>
        <time>2021-03-07T15:14:46.000Z</time>
      </trkpt>
      <trkpt lat="44.38233" lon="6.06052">
        <ele>862.59997558594</ele>
        <time>2021-03-07T15:14:48.000Z</time>
      </trkpt>
      <trkpt lat="44.38226" lon="6.06052">
        <ele>862.20001220703</ele>
        <time>2021-03-07T15:14:49.000Z</time>
      </trkpt>
      <trkpt lat="44.38213" lon="6.06047">
        <ele>861.20001220703</ele>
        <time>2021-03-07T15:14:51.000Z</time>
      </trkpt>
      <trkpt lat="44.38207" lon="6.06043">
        <ele>860.79998779297</ele>
        <time>2021-03-07T15:14:52.000Z</time>
      </trkpt>
      <trkpt lat="44.38179" lon="6.06037">
        <ele>859.79998779297</ele>
        <time>2021-03-07T15:14:56.000Z</time>
      </trkpt>
      <trkpt lat="44.38172" lon="6.06035">
        <ele>859.59997558594</ele>
        <time>2021-03-07T15:14:57.000Z</time>
      </trkpt>
      <trkpt lat="44.38154" lon="6.06024">
        <ele>858.59997558594</ele>
        <time>2021-03-07T15:15:00.000Z</time>
      </trkpt>
      <trkpt lat="44.38148" lon="6.06018">
        <ele>858.20001220703</ele>
        <time>2021-03-07T15:15:01.000Z</time>
      </trkpt>
      <trkpt lat="44.38143" lon="6.06013">
        <ele>857.79998779297</ele>
        <time>2021-03-07T15:15:02.000Z</time>
      </trkpt>
      <trkpt lat="44.38132" lon="6.06002">
        <ele>856.79998779297</ele>
        <time>2021-03-07T15:15:04.000Z</time>
      </trkpt>
      <trkpt lat="44.38127" lon="6.05997">
        <ele>856.40002441406</ele>
        <time>2021-03-07T15:15:05.000Z</time>
      </trkpt>
      <trkpt lat="44.38116" lon="6.05987">
        <ele>855.59997558594</ele>
        <time>2021-03-07T15:15:07.000Z</time>
      </trkpt>
      <trkpt lat="44.38099" lon="6.05973">
        <ele>854.59997558594</ele>
        <time>2021-03-07T15:15:10.000Z</time>
      </trkpt>
      <trkpt lat="44.38092" lon="6.05969">
        <ele>854.40002441406</ele>
        <time>2021-03-07T15:15:11.000Z</time>
      </trkpt>
      <trkpt lat="44.3806" lon="6.05954">
        <ele>853.20001220703</ele>
        <time>2021-03-07T15:15:16.000Z</time>
      </trkpt>
      <trkpt lat="44.38033" lon="6.05955">
        <ele>852.59997558594</ele>
        <time>2021-03-07T15:15:20.000Z</time>
      </trkpt>
      <trkpt lat="44.38026" lon="6.05957">
        <ele>852.20001220703</ele>
        <time>2021-03-07T15:15:21.000Z</time>
      </trkpt>
      <trkpt lat="44.38015" lon="6.05962">
        <ele>851.20001220703</ele>
        <time>2021-03-07T15:15:23.000Z</time>
      </trkpt>
      <trkpt lat="44.38009" lon="6.05965">
        <ele>850.79998779297</ele>
        <time>2021-03-07T15:15:24.000Z</time>
      </trkpt>
      <trkpt lat="44.38004" lon="6.0597">
        <ele>850.40002441406</ele>
        <time>2021-03-07T15:15:25.000Z</time>
      </trkpt>
      <trkpt lat="44.37992" lon="6.0598">
        <ele>849.79998779297</ele>
        <time>2021-03-07T15:15:27.000Z</time>
      </trkpt>
      <trkpt lat="44.37985" lon="6.05984">
        <ele>849.79998779297</ele>
        <time>2021-03-07T15:15:28.000Z</time>
      </trkpt>
      <trkpt lat="44.37973" lon="6.0599">
        <ele>849.59997558594</ele>
        <time>2021-03-07T15:15:30.000Z</time>
      </trkpt>
      <trkpt lat="44.37941" lon="6.06005">
        <ele>848.59997558594</ele>
        <time>2021-03-07T15:15:35.000Z</time>
      </trkpt>
      <trkpt lat="44.37935" lon="6.0601">
        <ele>848.40002441406</ele>
        <time>2021-03-07T15:15:36.000Z</time>
      </trkpt>
      <trkpt lat="44.37923" lon="6.06028">
        <ele>847.79998779297</ele>
        <time>2021-03-07T15:15:39.000Z</time>
      </trkpt>
      <trkpt lat="44.37918" lon="6.06034">
        <ele>847.40002441406</ele>
        <time>2021-03-07T15:15:40.000Z</time>
      </trkpt>
      <trkpt lat="44.37913" lon="6.06038">
        <ele>847.40002441406</ele>
        <time>2021-03-07T15:15:41.000Z</time>
      </trkpt>
      <trkpt lat="44.37901" lon="6.06044">
        <ele>847</ele>
        <time>2021-03-07T15:15:43.000Z</time>
      </trkpt>
      <trkpt lat="44.37888" lon="6.06045">
        <ele>846.59997558594</ele>
        <time>2021-03-07T15:15:45.000Z</time>
      </trkpt>
      <trkpt lat="44.37881" lon="6.06045">
        <ele>846.40002441406</ele>
        <time>2021-03-07T15:15:46.000Z</time>
      </trkpt>
      <trkpt lat="44.37875" lon="6.06046">
        <ele>846.20001220703</ele>
        <time>2021-03-07T15:15:47.000Z</time>
      </trkpt>
      <trkpt lat="44.37856" lon="6.06056">
        <ele>845.40002441406</ele>
        <time>2021-03-07T15:15:50.000Z</time>
      </trkpt>
      <trkpt lat="44.3785" lon="6.06061">
        <ele>845.20001220703</ele>
        <time>2021-03-07T15:15:51.000Z</time>
      </trkpt>
      <trkpt lat="44.37843" lon="6.06066">
        <ele>845</ele>
        <time>2021-03-07T15:15:52.000Z</time>
      </trkpt>
      <trkpt lat="44.37831" lon="6.06078">
        <ele>844.40002441406</ele>
        <time>2021-03-07T15:15:54.000Z</time>
      </trkpt>
      <trkpt lat="44.37825" lon="6.06083">
        <ele>844</ele>
        <time>2021-03-07T15:15:55.000Z</time>
      </trkpt>
      <trkpt lat="44.37818" lon="6.06087">
        <ele>843.59997558594</ele>
        <time>2021-03-07T15:15:56.000Z</time>
      </trkpt>
      <trkpt lat="44.37804" lon="6.06096">
        <ele>842.79998779297</ele>
        <time>2021-03-07T15:15:58.000Z</time>
      </trkpt>
      <trkpt lat="44.37789" lon="6.06103">
        <ele>841.79998779297</ele>
        <time>2021-03-07T15:16:00.000Z</time>
      </trkpt>
      <trkpt lat="44.37781" lon="6.06106">
        <ele>841.59997558594</ele>
        <time>2021-03-07T15:16:01.000Z</time>
      </trkpt>
      <trkpt lat="44.37773" lon="6.06108">
        <ele>841.20001220703</ele>
        <time>2021-03-07T15:16:02.000Z</time>
      </trkpt>
      <trkpt lat="44.37757" lon="6.06109">
        <ele>840</ele>
        <time>2021-03-07T15:16:04.000Z</time>
      </trkpt>
      <trkpt lat="44.37749" lon="6.06108">
        <ele>839.20001220703</ele>
        <time>2021-03-07T15:16:05.000Z</time>
      </trkpt>
      <trkpt lat="44.37742" lon="6.06106">
        <ele>838.40002441406</ele>
        <time>2021-03-07T15:16:06.000Z</time>
      </trkpt>
      <trkpt lat="44.37728" lon="6.06097">
        <ele>836.79998779297</ele>
        <time>2021-03-07T15:16:08.000Z</time>
      </trkpt>
      <trkpt lat="44.37712" lon="6.06088">
        <ele>835</ele>
        <time>2021-03-07T15:16:10.000Z</time>
      </trkpt>
      <trkpt lat="44.37695" lon="6.06083">
        <ele>833.59997558594</ele>
        <time>2021-03-07T15:16:12.000Z</time>
      </trkpt>
      <trkpt lat="44.37677" lon="6.06083">
        <ele>832.40002441406</ele>
        <time>2021-03-07T15:16:14.000Z</time>
      </trkpt>
      <trkpt lat="44.37649" lon="6.06085">
        <ele>830.40002441406</ele>
        <time>2021-03-07T15:16:17.000Z</time>
      </trkpt>
      <trkpt lat="44.37631" lon="6.06082">
        <ele>828.79998779297</ele>
        <time>2021-03-07T15:16:19.000Z</time>
      </trkpt>
      <trkpt lat="44.37604" lon="6.06071">
        <ele>827.79998779297</ele>
        <time>2021-03-07T15:16:22.000Z</time>
      </trkpt>
      <trkpt lat="44.37595" lon="6.06066">
        <ele>827</ele>
        <time>2021-03-07T15:16:23.000Z</time>
      </trkpt>
      <trkpt lat="44.37586" lon="6.0606">
        <ele>825.79998779297</ele>
        <time>2021-03-07T15:16:24.000Z</time>
      </trkpt>
      <trkpt lat="44.37579" lon="6.06053">
        <ele>824.20001220703</ele>
        <time>2021-03-07T15:16:25.000Z</time>
      </trkpt>
      <trkpt lat="44.37573" lon="6.06046">
        <ele>823</ele>
        <time>2021-03-07T15:16:26.000Z</time>
      </trkpt>
      <trkpt lat="44.37563" lon="6.06027">
        <ele>821.40002441406</ele>
        <time>2021-03-07T15:16:28.000Z</time>
      </trkpt>
      <trkpt lat="44.37558" lon="6.06018">
        <ele>820.59997558594</ele>
        <time>2021-03-07T15:16:29.000Z</time>
      </trkpt>
      <trkpt lat="44.37552" lon="6.06011">
        <ele>819.20001220703</ele>
        <time>2021-03-07T15:16:30.000Z</time>
      </trkpt>
      <trkpt lat="44.37538" lon="6.06003">
        <ele>818.40002441406</ele>
        <time>2021-03-07T15:16:32.000Z</time>
      </trkpt>
      <trkpt lat="44.3753" lon="6.06">
        <ele>818.20001220703</ele>
        <time>2021-03-07T15:16:33.000Z</time>
      </trkpt>
      <trkpt lat="44.37507" lon="6.05994">
        <ele>816.40002441406</ele>
        <time>2021-03-07T15:16:36.000Z</time>
      </trkpt>
      <trkpt lat="44.37499" lon="6.05995">
        <ele>815.79998779297</ele>
        <time>2021-03-07T15:16:37.000Z</time>
      </trkpt>
      <trkpt lat="44.37482" lon="6.05996">
        <ele>815.40002441406</ele>
        <time>2021-03-07T15:16:39.000Z</time>
      </trkpt>
      <trkpt lat="44.37474" lon="6.05995">
        <ele>815</ele>
        <time>2021-03-07T15:16:40.000Z</time>
      </trkpt>
      <trkpt lat="44.37465" lon="6.05991">
        <ele>814.20001220703</ele>
        <time>2021-03-07T15:16:41.000Z</time>
      </trkpt>
      <trkpt lat="44.37457" lon="6.05986">
        <ele>813.40002441406</ele>
        <time>2021-03-07T15:16:42.000Z</time>
      </trkpt>
      <trkpt lat="44.37441" lon="6.0598">
        <ele>811.59997558594</ele>
        <time>2021-03-07T15:16:44.000Z</time>
      </trkpt>
      <trkpt lat="44.37424" lon="6.05981">
        <ele>809.59997558594</ele>
        <time>2021-03-07T15:16:46.000Z</time>
      </trkpt>
      <trkpt lat="44.37416" lon="6.0598">
        <ele>808.59997558594</ele>
        <time>2021-03-07T15:16:47.000Z</time>
      </trkpt>
      <trkpt lat="44.37407" lon="6.05979">
        <ele>807.79998779297</ele>
        <time>2021-03-07T15:16:48.000Z</time>
      </trkpt>
      <trkpt lat="44.37398" lon="6.05979">
        <ele>807.40002441406</ele>
        <time>2021-03-07T15:16:49.000Z</time>
      </trkpt>
      <trkpt lat="44.37383" lon="6.05983">
        <ele>806.79998779297</ele>
        <time>2021-03-07T15:16:51.000Z</time>
      </trkpt>
      <trkpt lat="44.37374" lon="6.05996">
        <ele>806</ele>
        <time>2021-03-07T15:16:53.000Z</time>
      </trkpt>
      <trkpt lat="44.37369" lon="6.06004">
        <ele>805</ele>
        <time>2021-03-07T15:16:54.000Z</time>
      </trkpt>
      <trkpt lat="44.37355" lon="6.06012">
        <ele>803.79998779297</ele>
        <time>2021-03-07T15:16:56.000Z</time>
      </trkpt>
      <trkpt lat="44.37348" lon="6.0601">
        <ele>802</ele>
        <time>2021-03-07T15:16:57.000Z</time>
      </trkpt>
      <trkpt lat="44.37342" lon="6.06005">
        <ele>801.59997558594</ele>
        <time>2021-03-07T15:16:58.000Z</time>
      </trkpt>
      <trkpt lat="44.37336" lon="6.06">
        <ele>801.40002441406</ele>
        <time>2021-03-07T15:16:59.000Z</time>
      </trkpt>
      <trkpt lat="44.3733" lon="6.05997">
        <ele>801</ele>
        <time>2021-03-07T15:17:00.000Z</time>
      </trkpt>
      <trkpt lat="44.37324" lon="6.05995">
        <ele>800.79998779297</ele>
        <time>2021-03-07T15:17:01.000Z</time>
      </trkpt>
      <trkpt lat="44.37302" lon="6.06004">
        <ele>799.59997558594</ele>
        <time>2021-03-07T15:17:04.000Z</time>
      </trkpt>
      <trkpt lat="44.37287" lon="6.06011">
        <ele>798.20001220703</ele>
        <time>2021-03-07T15:17:06.000Z</time>
      </trkpt>
      <trkpt lat="44.3727" lon="6.06017">
        <ele>796.79998779297</ele>
        <time>2021-03-07T15:17:08.000Z</time>
      </trkpt>
      <trkpt lat="44.37253" lon="6.06022">
        <ele>795.79998779297</ele>
        <time>2021-03-07T15:17:10.000Z</time>
      </trkpt>
      <trkpt lat="44.37237" lon="6.06029">
        <ele>793.79998779297</ele>
        <time>2021-03-07T15:17:12.000Z</time>
      </trkpt>
      <trkpt lat="44.37222" lon="6.06037">
        <ele>791.59997558594</ele>
        <time>2021-03-07T15:17:14.000Z</time>
      </trkpt>
      <trkpt lat="44.37215" lon="6.0604">
        <ele>790.40002441406</ele>
        <time>2021-03-07T15:17:15.000Z</time>
      </trkpt>
      <trkpt lat="44.37208" lon="6.06042">
        <ele>789.20001220703</ele>
        <time>2021-03-07T15:17:16.000Z</time>
      </trkpt>
      <trkpt lat="44.37193" lon="6.06044">
        <ele>787.79998779297</ele>
        <time>2021-03-07T15:17:18.000Z</time>
      </trkpt>
      <trkpt lat="44.37187" lon="6.06044">
        <ele>787.40002441406</ele>
        <time>2021-03-07T15:17:19.000Z</time>
      </trkpt>
      <trkpt lat="44.37167" lon="6.06038">
        <ele>787.20001220703</ele>
        <time>2021-03-07T15:17:23.000Z</time>
      </trkpt>
      <trkpt lat="44.3716" lon="6.06036">
        <ele>787</ele>
        <time>2021-03-07T15:17:25.000Z</time>
      </trkpt>
      <trkpt lat="44.37146" lon="6.06034">
        <ele>786.79998779297</ele>
        <time>2021-03-07T15:17:28.000Z</time>
      </trkpt>
      <trkpt lat="44.37141" lon="6.06035">
        <ele>786.79998779297</ele>
        <time>2021-03-07T15:17:29.000Z</time>
      </trkpt>
      <trkpt lat="44.37135" lon="6.06036">
        <ele>786.59997558594</ele>
        <time>2021-03-07T15:17:30.000Z</time>
      </trkpt>
      <trkpt lat="44.37119" lon="6.06039">
        <ele>786.40002441406</ele>
        <time>2021-03-07T15:17:33.000Z</time>
      </trkpt>
      <trkpt lat="44.37112" lon="6.06041">
        <ele>785.59997558594</ele>
        <time>2021-03-07T15:17:36.000Z</time>
      </trkpt>
      <trkpt lat="44.37109" lon="6.06041">
        <ele>785.40002441406</ele>
        <time>2021-03-07T15:17:38.000Z</time>
      </trkpt>
      <trkpt lat="44.37101" lon="6.06039">
        <ele>785</ele>
        <time>2021-03-07T15:17:42.000Z</time>
      </trkpt>
      <trkpt lat="44.37088" lon="6.06037">
        <ele>784.79998779297</ele>
        <time>2021-03-07T15:17:46.000Z</time>
      </trkpt>
      <trkpt lat="44.37063" lon="6.06045">
        <ele>784.20001220703</ele>
        <time>2021-03-07T15:17:51.000Z</time>
      </trkpt>
      <trkpt lat="44.37052" lon="6.06047">
        <ele>783.40002441406</ele>
        <time>2021-03-07T15:17:53.000Z</time>
      </trkpt>
      <trkpt lat="44.37046" lon="6.06046">
        <ele>783</ele>
        <time>2021-03-07T15:17:54.000Z</time>
      </trkpt>
      <trkpt lat="44.3704" lon="6.06044">
        <ele>782.40002441406</ele>
        <time>2021-03-07T15:17:55.000Z</time>
      </trkpt>
      <trkpt lat="44.37029" lon="6.06035">
        <ele>781.79998779297</ele>
        <time>2021-03-07T15:17:57.000Z</time>
      </trkpt>
      <trkpt lat="44.37023" lon="6.06029">
        <ele>781.40002441406</ele>
        <time>2021-03-07T15:17:58.000Z</time>
      </trkpt>
      <trkpt lat="44.37017" lon="6.06025">
        <ele>780.79998779297</ele>
        <time>2021-03-07T15:17:59.000Z</time>
      </trkpt>
      <trkpt lat="44.37013" lon="6.06023">
        <ele>780.59997558594</ele>
        <time>2021-03-07T15:18:00.000Z</time>
      </trkpt>
      <trkpt lat="44.37005" lon="6.06027">
        <ele>779.79998779297</ele>
        <time>2021-03-07T15:18:02.000Z</time>
      </trkpt>
      <trkpt lat="44.37002" lon="6.06031">
        <ele>779.40002441406</ele>
        <time>2021-03-07T15:18:03.000Z</time>
      </trkpt>
      <trkpt lat="44.36999" lon="6.06037">
        <ele>778</ele>
        <time>2021-03-07T15:18:05.000Z</time>
      </trkpt>
      <trkpt lat="44.36998" lon="6.06039">
        <ele>777.59997558594</ele>
        <time>2021-03-07T15:18:06.000Z</time>
      </trkpt>
      <trkpt lat="44.3699" lon="6.06052">
        <ele>777</ele>
        <time>2021-03-07T15:18:12.000Z</time>
      </trkpt>
      <trkpt lat="44.36988" lon="6.06053">
        <ele>776.79998779297</ele>
        <time>2021-03-07T15:18:16.000Z</time>
      </trkpt>
      <trkpt lat="44.36988" lon="6.06053">
        <ele>776.20001220703</ele>
        <time>2021-03-07T15:18:27.000Z</time>
      </trkpt>
      <trkpt lat="44.36988" lon="6.06053">
        <ele>776.20001220703</ele>
        <time>2021-03-07T15:18:46.000Z</time>
      </trkpt>
      <trkpt lat="44.36988" lon="6.06053">
        <ele>776</ele>
        <time>2021-03-07T15:19:24.000Z</time>
      </trkpt>
      <trkpt lat="44.36988" lon="6.06054">
        <ele>776.20001220703</ele>
        <time>2021-03-07T15:19:53.000Z</time>
      </trkpt>
      <trkpt lat="44.36987" lon="6.06056">
        <ele>776.20001220703</ele>
        <time>2021-03-07T15:20:05.000Z</time>
      </trkpt>
      <trkpt lat="44.36987" lon="6.06059">
        <ele>776.20001220703</ele>
        <time>2021-03-07T15:20:06.000Z</time>
      </trkpt>
      <trkpt lat="44.36991" lon="6.06071">
        <ele>776</ele>
        <time>2021-03-07T15:20:10.000Z</time>
      </trkpt>
      <trkpt lat="44.36993" lon="6.06074">
        <ele>776</ele>
        <time>2021-03-07T15:20:11.000Z</time>
      </trkpt>
      <trkpt lat="44.3701" lon="6.06104">
        <ele>775.59997558594</ele>
        <time>2021-03-07T15:20:19.000Z</time>
      </trkpt>
      <trkpt lat="44.37024" lon="6.06126">
        <ele>775</ele>
        <time>2021-03-07T15:20:24.000Z</time>
      </trkpt>
      <trkpt lat="44.37032" lon="6.06142">
        <ele>774.79998779297</ele>
        <time>2021-03-07T15:20:27.000Z</time>
      </trkpt>
      <trkpt lat="44.37047" lon="6.06168">
        <ele>774.40002441406</ele>
        <time>2021-03-07T15:20:32.000Z</time>
      </trkpt>
      <trkpt lat="44.37049" lon="6.06173">
        <ele>774.20001220703</ele>
        <time>2021-03-07T15:20:33.000Z</time>
      </trkpt>
      <trkpt lat="44.37054" lon="6.06182">
        <ele>774</ele>
        <time>2021-03-07T15:20:36.000Z</time>
      </trkpt>
      <trkpt lat="44.37048" lon="6.06184">
        <ele>774</ele>
        <time>2021-03-07T15:20:40.000Z</time>
      </trkpt>
      <trkpt lat="44.37043" lon="6.06198">
        <ele>773.79998779297</ele>
        <time>2021-03-07T15:20:43.000Z</time>
      </trkpt>
      <trkpt lat="44.3705" lon="6.06221">
        <ele>773.59997558594</ele>
        <time>2021-03-07T15:20:47.000Z</time>
      </trkpt>
      <trkpt lat="44.37061" lon="6.06226">
        <ele>773.59997558594</ele>
        <time>2021-03-07T15:20:49.000Z</time>
      </trkpt>
      <trkpt lat="44.37072" lon="6.06231">
        <ele>773.20001220703</ele>
        <time>2021-03-07T15:20:51.000Z</time>
      </trkpt>
      <trkpt lat="44.37078" lon="6.06235">
        <ele>773</ele>
        <time>2021-03-07T15:20:52.000Z</time>
      </trkpt>
      <trkpt lat="44.37089" lon="6.06243">
        <ele>772.79998779297</ele>
        <time>2021-03-07T15:20:54.000Z</time>
      </trkpt>
      <trkpt lat="44.371" lon="6.06253">
        <ele>772.79998779297</ele>
        <time>2021-03-07T15:20:56.000Z</time>
      </trkpt>
      <trkpt lat="44.37133" lon="6.0629">
        <ele>772.79998779297</ele>
        <time>2021-03-07T15:21:03.000Z</time>
      </trkpt>
      <trkpt lat="44.37142" lon="6.06322">
        <ele>773</ele>
        <time>2021-03-07T15:21:07.000Z</time>
      </trkpt>
      <trkpt lat="44.37144" lon="6.0633">
        <ele>773.20001220703</ele>
        <time>2021-03-07T15:21:08.000Z</time>
      </trkpt>
      <trkpt lat="44.37147" lon="6.06347">
        <ele>773.59997558594</ele>
        <time>2021-03-07T15:21:10.000Z</time>
      </trkpt>
      <trkpt lat="44.37143" lon="6.0637">
        <ele>774</ele>
        <time>2021-03-07T15:21:13.000Z</time>
      </trkpt>
      <trkpt lat="44.37125" lon="6.06392">
        <ele>774.40002441406</ele>
        <time>2021-03-07T15:21:17.000Z</time>
      </trkpt>
      <trkpt lat="44.37112" lon="6.06404">
        <ele>775</ele>
        <time>2021-03-07T15:21:20.000Z</time>
      </trkpt>
      <trkpt lat="44.37109" lon="6.06409">
        <ele>775.20001220703</ele>
        <time>2021-03-07T15:21:21.000Z</time>
      </trkpt>
      <trkpt lat="44.37104" lon="6.06419">
        <ele>775.59997558594</ele>
        <time>2021-03-07T15:21:23.000Z</time>
      </trkpt>
      <trkpt lat="44.37095" lon="6.06443">
        <ele>776.20001220703</ele>
        <time>2021-03-07T15:21:28.000Z</time>
      </trkpt>
      <trkpt lat="44.37091" lon="6.06452">
        <ele>776.59997558594</ele>
        <time>2021-03-07T15:21:30.000Z</time>
      </trkpt>
      <trkpt lat="44.3709" lon="6.06462">
        <ele>776.79998779297</ele>
        <time>2021-03-07T15:21:33.000Z</time>
      </trkpt>
      <trkpt lat="44.37092" lon="6.06465">
        <ele>777</ele>
        <time>2021-03-07T15:21:34.000Z</time>
      </trkpt>
      <trkpt lat="44.37094" lon="6.06468">
        <ele>777.40002441406</ele>
        <time>2021-03-07T15:21:35.000Z</time>
      </trkpt>
      <trkpt lat="44.37104" lon="6.06479">
        <ele>778.40002441406</ele>
        <time>2021-03-07T15:21:39.000Z</time>
      </trkpt>
      <trkpt lat="44.37107" lon="6.06483">
        <ele>778.79998779297</ele>
        <time>2021-03-07T15:21:40.000Z</time>
      </trkpt>
      <trkpt lat="44.37119" lon="6.06498">
        <ele>779.59997558594</ele>
        <time>2021-03-07T15:21:44.000Z</time>
      </trkpt>
      <trkpt lat="44.3713" lon="6.06512">
        <ele>779.59997558594</ele>
        <time>2021-03-07T15:21:47.000Z</time>
      </trkpt>
      <trkpt lat="44.37134" lon="6.06518">
        <ele>779.59997558594</ele>
        <time>2021-03-07T15:21:48.000Z</time>
      </trkpt>
      <trkpt lat="44.37146" lon="6.06543">
        <ele>779.59997558594</ele>
        <time>2021-03-07T15:21:52.000Z</time>
      </trkpt>
      <trkpt lat="44.37156" lon="6.06566">
        <ele>779.79998779297</ele>
        <time>2021-03-07T15:21:56.000Z</time>
      </trkpt>
      <trkpt lat="44.37157" lon="6.06577">
        <ele>779.79998779297</ele>
        <time>2021-03-07T15:21:58.000Z</time>
      </trkpt>
      <trkpt lat="44.37151" lon="6.06597">
        <ele>779.79998779297</ele>
        <time>2021-03-07T15:22:02.000Z</time>
      </trkpt>
      <trkpt lat="44.37153" lon="6.0661">
        <ele>780.79998779297</ele>
        <time>2021-03-07T15:22:05.000Z</time>
      </trkpt>
      <trkpt lat="44.37156" lon="6.06614">
        <ele>781</ele>
        <time>2021-03-07T15:22:06.000Z</time>
      </trkpt>
      <trkpt lat="44.37168" lon="6.06635">
        <ele>781.79998779297</ele>
        <time>2021-03-07T15:22:11.000Z</time>
      </trkpt>
      <trkpt lat="44.3717" lon="6.06638">
        <ele>782</ele>
        <time>2021-03-07T15:22:12.000Z</time>
      </trkpt>
      <trkpt lat="44.37173" lon="6.06639">
        <ele>782.20001220703</ele>
        <time>2021-03-07T15:22:13.000Z</time>
      </trkpt>
      <trkpt lat="44.3718" lon="6.06638">
        <ele>782.40002441406</ele>
        <time>2021-03-07T15:22:15.000Z</time>
      </trkpt>
      <trkpt lat="44.37189" lon="6.06632">
        <ele>782.20001220703</ele>
        <time>2021-03-07T15:22:17.000Z</time>
      </trkpt>
      <trkpt lat="44.37199" lon="6.0663">
        <ele>782.40002441406</ele>
        <time>2021-03-07T15:22:19.000Z</time>
      </trkpt>
      <trkpt lat="44.37209" lon="6.06628">
        <ele>782.20001220703</ele>
        <time>2021-03-07T15:22:21.000Z</time>
      </trkpt>
      <trkpt lat="44.37217" lon="6.06632">
        <ele>782.20001220703</ele>
        <time>2021-03-07T15:22:23.000Z</time>
      </trkpt>
      <trkpt lat="44.37223" lon="6.06645">
        <ele>781.40002441406</ele>
        <time>2021-03-07T15:22:26.000Z</time>
      </trkpt>
      <trkpt lat="44.37225" lon="6.06651">
        <ele>781.40002441406</ele>
        <time>2021-03-07T15:22:27.000Z</time>
      </trkpt>
      <trkpt lat="44.3724" lon="6.06686">
        <ele>781.20001220703</ele>
        <time>2021-03-07T15:22:33.000Z</time>
      </trkpt>
      <trkpt lat="44.37248" lon="6.06698">
        <ele>781.20001220703</ele>
        <time>2021-03-07T15:22:35.000Z</time>
      </trkpt>
      <trkpt lat="44.37262" lon="6.06713">
        <ele>781.20001220703</ele>
        <time>2021-03-07T15:22:38.000Z</time>
      </trkpt>
      <trkpt lat="44.37287" lon="6.06751">
        <ele>781.40002441406</ele>
        <time>2021-03-07T15:22:44.000Z</time>
      </trkpt>
      <trkpt lat="44.37307" lon="6.06773">
        <ele>781.79998779297</ele>
        <time>2021-03-07T15:22:48.000Z</time>
      </trkpt>
      <trkpt lat="44.37312" lon="6.06778">
        <ele>782</ele>
        <time>2021-03-07T15:22:49.000Z</time>
      </trkpt>
      <trkpt lat="44.37339" lon="6.06803">
        <ele>782.20001220703</ele>
        <time>2021-03-07T15:22:54.000Z</time>
      </trkpt>
      <trkpt lat="44.37344" lon="6.06809">
        <ele>782.40002441406</ele>
        <time>2021-03-07T15:22:55.000Z</time>
      </trkpt>
      <trkpt lat="44.37368" lon="6.06838">
        <ele>782.79998779297</ele>
        <time>2021-03-07T15:23:00.000Z</time>
      </trkpt>
      <trkpt lat="44.37373" lon="6.06842">
        <ele>782.79998779297</ele>
        <time>2021-03-07T15:23:01.000Z</time>
      </trkpt>
      <trkpt lat="44.37378" lon="6.06847">
        <ele>783</ele>
        <time>2021-03-07T15:23:02.000Z</time>
      </trkpt>
      <trkpt lat="44.37393" lon="6.06864">
        <ele>783.40002441406</ele>
        <time>2021-03-07T15:23:05.000Z</time>
      </trkpt>
      <trkpt lat="44.37397" lon="6.06871">
        <ele>783.59997558594</ele>
        <time>2021-03-07T15:23:06.000Z</time>
      </trkpt>
      <trkpt lat="44.37403" lon="6.06884">
        <ele>783.79998779297</ele>
        <time>2021-03-07T15:23:08.000Z</time>
      </trkpt>
      <trkpt lat="44.37406" lon="6.06891">
        <ele>784</ele>
        <time>2021-03-07T15:23:09.000Z</time>
      </trkpt>
      <trkpt lat="44.37411" lon="6.06903">
        <ele>784.20001220703</ele>
        <time>2021-03-07T15:23:11.000Z</time>
      </trkpt>
      <trkpt lat="44.37424" lon="6.06907">
        <ele>784.40002441406</ele>
        <time>2021-03-07T15:23:14.000Z</time>
      </trkpt>
      <trkpt lat="44.37437" lon="6.06915">
        <ele>785</ele>
        <time>2021-03-07T15:23:17.000Z</time>
      </trkpt>
      <trkpt lat="44.37441" lon="6.06921">
        <ele>785</ele>
        <time>2021-03-07T15:23:18.000Z</time>
      </trkpt>
      <trkpt lat="44.37445" lon="6.06927">
        <ele>785.40002441406</ele>
        <time>2021-03-07T15:23:19.000Z</time>
      </trkpt>
      <trkpt lat="44.37454" lon="6.06937">
        <ele>786.40002441406</ele>
        <time>2021-03-07T15:23:21.000Z</time>
      </trkpt>
      <trkpt lat="44.37458" lon="6.06942">
        <ele>786.59997558594</ele>
        <time>2021-03-07T15:23:22.000Z</time>
      </trkpt>
      <trkpt lat="44.37472" lon="6.06958">
        <ele>787</ele>
        <time>2021-03-07T15:23:25.000Z</time>
      </trkpt>
      <trkpt lat="44.37484" lon="6.06965">
        <ele>787.20001220703</ele>
        <time>2021-03-07T15:23:27.000Z</time>
      </trkpt>
      <trkpt lat="44.37506" lon="6.06979">
        <ele>787.20001220703</ele>
        <time>2021-03-07T15:23:31.000Z</time>
      </trkpt>
      <trkpt lat="44.3751" lon="6.06982">
        <ele>787.20001220703</ele>
        <time>2021-03-07T15:23:32.000Z</time>
      </trkpt>
      <trkpt lat="44.37522" lon="6.06991">
        <ele>787.40002441406</ele>
        <time>2021-03-07T15:23:35.000Z</time>
      </trkpt>
      <trkpt lat="44.37533" lon="6.07001">
        <ele>788</ele>
        <time>2021-03-07T15:23:38.000Z</time>
      </trkpt>
      <trkpt lat="44.3754" lon="6.07009">
        <ele>788.59997558594</ele>
        <time>2021-03-07T15:23:40.000Z</time>
      </trkpt>
      <trkpt lat="44.37553" lon="6.07028">
        <ele>789.20001220703</ele>
        <time>2021-03-07T15:23:44.000Z</time>
      </trkpt>
      <trkpt lat="44.37564" lon="6.07044">
        <ele>789.79998779297</ele>
        <time>2021-03-07T15:23:48.000Z</time>
      </trkpt>
      <trkpt lat="44.37568" lon="6.07049">
        <ele>790</ele>
        <time>2021-03-07T15:23:50.000Z</time>
      </trkpt>
      <trkpt lat="44.37573" lon="6.07049">
        <ele>791</ele>
        <time>2021-03-07T15:23:54.000Z</time>
      </trkpt>
      <trkpt lat="44.37574" lon="6.07049">
        <ele>792</ele>
        <time>2021-03-07T15:24:05.000Z</time>
      </trkpt>
      <trkpt lat="44.37577" lon="6.07046">
        <ele>792</ele>
        <time>2021-03-07T15:24:09.000Z</time>
      </trkpt>
      <trkpt lat="44.37581" lon="6.07043">
        <ele>792</ele>
        <time>2021-03-07T15:24:12.000Z</time>
      </trkpt>
      <trkpt lat="44.37586" lon="6.07041">
        <ele>792</ele>
        <time>2021-03-07T15:24:17.000Z</time>
      </trkpt>
      <trkpt lat="44.37598" lon="6.07043">
        <ele>792</ele>
        <time>2021-03-07T15:24:21.000Z</time>
      </trkpt>
      <trkpt lat="44.3762" lon="6.07054">
        <ele>792.40002441406</ele>
        <time>2021-03-07T15:24:27.000Z</time>
      </trkpt>
      <trkpt lat="44.37633" lon="6.07059">
        <ele>792.59997558594</ele>
        <time>2021-03-07T15:24:32.000Z</time>
      </trkpt>
      <trkpt lat="44.37637" lon="6.0706">
        <ele>792.79998779297</ele>
        <time>2021-03-07T15:24:34.000Z</time>
      </trkpt>
      <trkpt lat="44.37639" lon="6.07064">
        <ele>793</ele>
        <time>2021-03-07T15:24:36.000Z</time>
      </trkpt>
      <trkpt lat="44.37639" lon="6.07064">
        <ele>793</ele>
        <time>2021-03-07T15:24:37.000Z</time>
      </trkpt>
      <trkpt lat="44.3764" lon="6.07066">
        <ele>793.59997558594</ele>
        <time>2021-03-07T15:24:47.000Z</time>
      </trkpt>
      <trkpt lat="44.3764" lon="6.07066">
        <ele>793.79998779297</ele>
        <time>2021-03-07T15:24:54.000Z</time>
      </trkpt>
      <trkpt lat="44.3764" lon="6.07066">
        <ele>794</ele>
        <time>2021-03-07T15:25:04.000Z</time>
      </trkpt>
      <trkpt lat="44.3764" lon="6.07066">
        <ele>794</ele>
        <time>2021-03-07T15:25:17.000Z</time>
      </trkpt>
      <trkpt lat="44.37642" lon="6.07069">
        <ele>794</ele>
        <time>2021-03-07T15:25:26.000Z</time>
      </trkpt>
      <trkpt lat="44.37641" lon="6.07069">
        <ele>794</ele>
        <time>2021-03-07T15:25:29.000Z</time>
      </trkpt>
      <trkpt lat="44.3764" lon="6.07069">
        <ele>794.20001220703</ele>
        <time>2021-03-07T15:25:36.000Z</time>
      </trkpt>
      <trkpt lat="44.3764" lon="6.0707">
        <ele>794.79998779297</ele>
        <time>2021-03-07T15:25:56.000Z</time>
      </trkpt>
      <trkpt lat="44.3764" lon="6.07069">
        <ele>794.59997558594</ele>
        <time>2021-03-07T15:26:09.000Z</time>
      </trkpt>
    </trkseg>
  </trk>
</gpx>